<?xml version="1.0" encoding="UTF-8" standalone="no" ?>
<gpx xmlns="http://www.topografix.com/GPX/1/1" xmlns:xsi="http://www.w3.org/2001/XMLSchema-instance" xsi:schemaLocation="http://www.topografix.com/GPX/1/1 http://www.topografix.com/GPX/1/1/gpx.xsd" version="1.1" creator="VisuGPX - https://www.visugpx.com">
  <metadata>
    <name>Ceuta</name>
  </metadata>
  <trk>
    <name><![CDATA[Ceuta]]></name>
    <extensions>
      <line xmlns="http://www.topografix.com/GPX/gpx_style/0/2">
        <color>0000FF</color>
        <width>4</width>
      </line>
    </extensions>
    <trkseg>
      <trkpt lat="35.89336" lon="-5.32103">
        <ele>3.447872</ele>
        <time>2022-04-16T09:37:39.000Z</time>
      </trkpt>
      <trkpt lat="35.89336" lon="-5.32102">
        <ele>3.447872</ele>
        <time>2022-04-16T09:37:40.000Z</time>
      </trkpt>
      <trkpt lat="35.89331" lon="-5.32101">
        <ele>3.447872</ele>
        <time>2022-04-16T09:37:47.000Z</time>
      </trkpt>
      <trkpt lat="35.89318" lon="-5.32098">
        <ele>3.447872</ele>
        <time>2022-04-16T09:37:52.000Z</time>
      </trkpt>
      <trkpt lat="35.89301" lon="-5.32113">
        <ele>3.447872</ele>
        <time>2022-04-16T09:37:58.000Z</time>
      </trkpt>
      <trkpt lat="35.89288" lon="-5.32128">
        <ele>3.447872</ele>
        <time>2022-04-16T09:38:04.000Z</time>
      </trkpt>
      <trkpt lat="35.89285" lon="-5.32135">
        <ele>3.447872</ele>
        <time>2022-04-16T09:38:09.000Z</time>
      </trkpt>
      <trkpt lat="35.89286" lon="-5.32134">
        <ele>3.447872</ele>
        <time>2022-04-16T09:38:14.000Z</time>
      </trkpt>
      <trkpt lat="35.89287" lon="-5.32135">
        <ele>3.447872</ele>
        <time>2022-04-16T09:38:23.000Z</time>
      </trkpt>
      <trkpt lat="35.89287" lon="-5.32135">
        <ele>3.447872</ele>
        <time>2022-04-16T09:38:26.000Z</time>
      </trkpt>
      <trkpt lat="35.89286" lon="-5.32138">
        <ele>3.447872</ele>
        <time>2022-04-16T09:38:28.000Z</time>
      </trkpt>
      <trkpt lat="35.89285" lon="-5.32142">
        <ele>3.447872</ele>
        <time>2022-04-16T09:38:29.000Z</time>
      </trkpt>
      <trkpt lat="35.89283" lon="-5.32153">
        <ele>3.447872</ele>
        <time>2022-04-16T09:38:32.000Z</time>
      </trkpt>
      <trkpt lat="35.8928" lon="-5.32157">
        <ele>3.447872</ele>
        <time>2022-04-16T09:38:33.000Z</time>
      </trkpt>
      <trkpt lat="35.89277" lon="-5.32159">
        <ele>3.447872</ele>
        <time>2022-04-16T09:38:34.000Z</time>
      </trkpt>
      <trkpt lat="35.89269" lon="-5.3216">
        <ele>3.4707</ele>
        <time>2022-04-16T09:38:36.000Z</time>
      </trkpt>
      <trkpt lat="35.89257" lon="-5.32145">
        <ele>3.52359</ele>
        <time>2022-04-16T09:38:40.000Z</time>
      </trkpt>
      <trkpt lat="35.89241" lon="-5.3212">
        <ele>3.602453</ele>
        <time>2022-04-16T09:38:46.000Z</time>
      </trkpt>
      <trkpt lat="35.89239" lon="-5.32117">
        <ele>3.613057</ele>
        <time>2022-04-16T09:38:47.000Z</time>
      </trkpt>
      <trkpt lat="35.89233" lon="-5.32108">
        <ele>3.642874</ele>
        <time>2022-04-16T09:38:49.000Z</time>
      </trkpt>
      <trkpt lat="35.8923" lon="-5.32104">
        <ele>3.655734</ele>
        <time>2022-04-16T09:38:50.000Z</time>
      </trkpt>
      <trkpt lat="35.89227" lon="-5.32101">
        <ele>3.668369</ele>
        <time>2022-04-16T09:38:51.000Z</time>
      </trkpt>
      <trkpt lat="35.89221" lon="-5.32094">
        <ele>3.694145</ele>
        <time>2022-04-16T09:38:53.000Z</time>
      </trkpt>
      <trkpt lat="35.89205" lon="-5.3207">
        <ele>3.772608</ele>
        <time>2022-04-16T09:38:59.000Z</time>
      </trkpt>
      <trkpt lat="35.89197" lon="-5.32059">
        <ele>3.810688</ele>
        <time>2022-04-16T09:39:02.000Z</time>
      </trkpt>
      <trkpt lat="35.89191" lon="-5.32052">
        <ele>3.835638</ele>
        <time>2022-04-16T09:39:04.000Z</time>
      </trkpt>
      <trkpt lat="35.89165" lon="-5.32017">
        <ele>3.957216</ele>
        <time>2022-04-16T09:39:14.000Z</time>
      </trkpt>
      <trkpt lat="35.89162" lon="-5.32013">
        <ele>3.969453</ele>
        <time>2022-04-16T09:39:15.000Z</time>
      </trkpt>
      <trkpt lat="35.89148" lon="-5.31991">
        <ele>4.004504</ele>
        <time>2022-04-16T09:39:21.000Z</time>
      </trkpt>
      <trkpt lat="35.89134" lon="-5.31953">
        <ele>3.992832</ele>
        <time>2022-04-16T09:39:29.000Z</time>
      </trkpt>
      <trkpt lat="35.89122" lon="-5.31909">
        <ele>3.979963</ele>
        <time>2022-04-16T09:39:38.000Z</time>
      </trkpt>
      <trkpt lat="35.89112" lon="-5.31862">
        <ele>3.965957</ele>
        <time>2022-04-16T09:39:47.000Z</time>
      </trkpt>
      <trkpt lat="35.89109" lon="-5.31851">
        <ele>3.962768</ele>
        <time>2022-04-16T09:39:49.000Z</time>
      </trkpt>
      <trkpt lat="35.89102" lon="-5.3183">
        <ele>3.956397</ele>
        <time>2022-04-16T09:39:53.000Z</time>
      </trkpt>
      <trkpt lat="35.89096" lon="-5.3181">
        <ele>3.950603</ele>
        <time>2022-04-16T09:39:57.000Z</time>
      </trkpt>
      <trkpt lat="35.89091" lon="-5.31787">
        <ele>4.068903</ele>
        <time>2022-04-16T09:40:02.000Z</time>
      </trkpt>
      <trkpt lat="35.89085" lon="-5.31758">
        <ele>4.621338</ele>
        <time>2022-04-16T09:40:09.000Z</time>
      </trkpt>
      <trkpt lat="35.89085" lon="-5.31754">
        <ele>4.695333</ele>
        <time>2022-04-16T09:40:10.000Z</time>
      </trkpt>
      <trkpt lat="35.89078" lon="-5.31737">
        <ele>5.048706</ele>
        <time>2022-04-16T09:40:15.000Z</time>
      </trkpt>
      <trkpt lat="35.89069" lon="-5.31734">
        <ele>5.257367</ele>
        <time>2022-04-16T09:40:18.000Z</time>
      </trkpt>
      <trkpt lat="35.89066" lon="-5.31736">
        <ele>5.334446</ele>
        <time>2022-04-16T09:40:19.000Z</time>
      </trkpt>
      <trkpt lat="35.89053" lon="-5.3175">
        <ele>5.728362</ele>
        <time>2022-04-16T09:40:24.000Z</time>
      </trkpt>
      <trkpt lat="35.89048" lon="-5.31755">
        <ele>5.879579</ele>
        <time>2022-04-16T09:40:26.000Z</time>
      </trkpt>
      <trkpt lat="35.89036" lon="-5.31773">
        <ele>6.30262</ele>
        <time>2022-04-16T09:40:32.000Z</time>
      </trkpt>
      <trkpt lat="35.89034" lon="-5.31776">
        <ele>6.375542</ele>
        <time>2022-04-16T09:40:33.000Z</time>
      </trkpt>
      <trkpt lat="35.89027" lon="-5.31787">
        <ele>6.63142</ele>
        <time>2022-04-16T09:40:37.000Z</time>
      </trkpt>
      <trkpt lat="35.89026" lon="-5.31798">
        <ele>6.83296</ele>
        <time>2022-04-16T09:40:40.000Z</time>
      </trkpt>
      <trkpt lat="35.89019" lon="-5.31817">
        <ele>7.203074</ele>
        <time>2022-04-16T09:40:45.000Z</time>
      </trkpt>
      <trkpt lat="35.89015" lon="-5.31819">
        <ele>7.294274</ele>
        <time>2022-04-16T09:40:46.000Z</time>
      </trkpt>
      <trkpt lat="35.89004" lon="-5.31819">
        <ele>7.557637</ele>
        <time>2022-04-16T09:40:49.000Z</time>
      </trkpt>
      <trkpt lat="35.88995" lon="-5.31807">
        <ele>7.853697</ele>
        <time>2022-04-16T09:40:53.000Z</time>
      </trkpt>
      <trkpt lat="35.88992" lon="-5.318">
        <ele>7.989882</ele>
        <time>2022-04-16T09:40:57.000Z</time>
      </trkpt>
      <trkpt lat="35.88991" lon="-5.31799">
        <ele>8.017374</ele>
        <time>2022-04-16T09:40:59.000Z</time>
      </trkpt>
      <trkpt lat="35.88991" lon="-5.31799">
        <ele>8.022273</ele>
        <time>2022-04-16T09:41:04.000Z</time>
      </trkpt>
      <trkpt lat="35.8899" lon="-5.31798">
        <ele>8.039718</ele>
        <time>2022-04-16T09:41:14.000Z</time>
      </trkpt>
      <trkpt lat="35.8899" lon="-5.31798">
        <ele>8.039718</ele>
        <time>2022-04-16T09:41:18.000Z</time>
      </trkpt>
      <trkpt lat="35.8899" lon="-5.31798">
        <ele>8.039718</ele>
        <time>2022-04-16T09:41:25.000Z</time>
      </trkpt>
      <trkpt lat="35.8899" lon="-5.31798">
        <ele>8.039718</ele>
        <time>2022-04-16T09:41:28.000Z</time>
      </trkpt>
      <trkpt lat="35.8899" lon="-5.31798">
        <ele>8.039718</ele>
        <time>2022-04-16T09:41:32.000Z</time>
      </trkpt>
      <trkpt lat="35.8899" lon="-5.31798">
        <ele>8.039718</ele>
        <time>2022-04-16T09:41:39.000Z</time>
      </trkpt>
      <trkpt lat="35.88989" lon="-5.31799">
        <ele>8.044037</ele>
        <time>2022-04-16T09:42:01.000Z</time>
      </trkpt>
      <trkpt lat="35.88982" lon="-5.31803">
        <ele>8.115135</ele>
        <time>2022-04-16T09:42:04.000Z</time>
      </trkpt>
      <trkpt lat="35.8898" lon="-5.31803">
        <ele>8.141901</ele>
        <time>2022-04-16T09:42:05.000Z</time>
      </trkpt>
      <trkpt lat="35.88966" lon="-5.31801">
        <ele>8.263681</ele>
        <time>2022-04-16T09:42:09.000Z</time>
      </trkpt>
      <trkpt lat="35.88951" lon="-5.31794">
        <ele>8.417077</ele>
        <time>2022-04-16T09:42:14.000Z</time>
      </trkpt>
      <trkpt lat="35.88948" lon="-5.31793">
        <ele>8.443881</ele>
        <time>2022-04-16T09:42:15.000Z</time>
      </trkpt>
      <trkpt lat="35.88941" lon="-5.31788">
        <ele>8.520493</ele>
        <time>2022-04-16T09:42:18.000Z</time>
      </trkpt>
      <trkpt lat="35.88937" lon="-5.31784">
        <ele>8.568562</ele>
        <time>2022-04-16T09:42:20.000Z</time>
      </trkpt>
      <trkpt lat="35.8893" lon="-5.31768">
        <ele>8.699016</ele>
        <time>2022-04-16T09:42:25.000Z</time>
      </trkpt>
      <trkpt lat="35.88929" lon="-5.31749">
        <ele>8.840407</ele>
        <time>2022-04-16T09:42:31.000Z</time>
      </trkpt>
      <trkpt lat="35.88928" lon="-5.31741">
        <ele>8.905109</ele>
        <time>2022-04-16T09:42:34.000Z</time>
      </trkpt>
      <trkpt lat="35.88927" lon="-5.31735">
        <ele>8.950894</ele>
        <time>2022-04-16T09:42:36.000Z</time>
      </trkpt>
      <trkpt lat="35.88925" lon="-5.31725">
        <ele>9.026535</ele>
        <time>2022-04-16T09:42:39.000Z</time>
      </trkpt>
      <trkpt lat="35.88922" lon="-5.31707">
        <ele>9.166867</ele>
        <time>2022-04-16T09:42:45.000Z</time>
      </trkpt>
      <trkpt lat="35.88921" lon="-5.31703">
        <ele>9.197698</ele>
        <time>2022-04-16T09:42:47.000Z</time>
      </trkpt>
      <trkpt lat="35.88916" lon="-5.31699">
        <ele>9.246489</ele>
        <time>2022-04-16T09:42:49.000Z</time>
      </trkpt>
      <trkpt lat="35.88906" lon="-5.31696">
        <ele>9.344856</ele>
        <time>2022-04-16T09:42:53.000Z</time>
      </trkpt>
      <trkpt lat="35.88903" lon="-5.31697">
        <ele>9.367608</ele>
        <time>2022-04-16T09:42:54.000Z</time>
      </trkpt>
      <trkpt lat="35.88898" lon="-5.31698">
        <ele>9.42154</ele>
        <time>2022-04-16T09:42:57.000Z</time>
      </trkpt>
      <trkpt lat="35.88886" lon="-5.317">
        <ele>9.530318</ele>
        <time>2022-04-16T09:43:02.000Z</time>
      </trkpt>
      <trkpt lat="35.88874" lon="-5.31704">
        <ele>9.64164</ele>
        <time>2022-04-16T09:43:08.000Z</time>
      </trkpt>
      <trkpt lat="35.88865" lon="-5.31701">
        <ele>9.622892</ele>
        <time>2022-04-16T09:43:13.000Z</time>
      </trkpt>
      <trkpt lat="35.88865" lon="-5.31699">
        <ele>9.591759</ele>
        <time>2022-04-16T09:43:14.000Z</time>
      </trkpt>
      <trkpt lat="35.88865" lon="-5.31696">
        <ele>9.559329</ele>
        <time>2022-04-16T09:43:15.000Z</time>
      </trkpt>
      <trkpt lat="35.88868" lon="-5.31692">
        <ele>9.499591</ele>
        <time>2022-04-16T09:43:17.000Z</time>
      </trkpt>
      <trkpt lat="35.88871" lon="-5.3169">
        <ele>9.452842</ele>
        <time>2022-04-16T09:43:19.000Z</time>
      </trkpt>
      <trkpt lat="35.88882" lon="-5.31695">
        <ele>9.295458</ele>
        <time>2022-04-16T09:43:24.000Z</time>
      </trkpt>
      <trkpt lat="35.88897" lon="-5.31694">
        <ele>9.092428</ele>
        <time>2022-04-16T09:43:29.000Z</time>
      </trkpt>
      <trkpt lat="35.88909" lon="-5.31692">
        <ele>8.920336</ele>
        <time>2022-04-16T09:43:34.000Z</time>
      </trkpt>
      <trkpt lat="35.88911" lon="-5.31689">
        <ele>8.885753</ele>
        <time>2022-04-16T09:43:35.000Z</time>
      </trkpt>
      <trkpt lat="35.88912" lon="-5.31684">
        <ele>8.825008</ele>
        <time>2022-04-16T09:43:37.000Z</time>
      </trkpt>
      <trkpt lat="35.88911" lon="-5.31678">
        <ele>8.758162</ele>
        <time>2022-04-16T09:43:39.000Z</time>
      </trkpt>
      <trkpt lat="35.88908" lon="-5.31667">
        <ele>8.626495</ele>
        <time>2022-04-16T09:43:43.000Z</time>
      </trkpt>
      <trkpt lat="35.88907" lon="-5.31658">
        <ele>8.521185</ele>
        <time>2022-04-16T09:43:46.000Z</time>
      </trkpt>
      <trkpt lat="35.88906" lon="-5.31652">
        <ele>8.454496</ele>
        <time>2022-04-16T09:43:48.000Z</time>
      </trkpt>
      <trkpt lat="35.88906" lon="-5.31648">
        <ele>8.418846</ele>
        <time>2022-04-16T09:43:49.000Z</time>
      </trkpt>
      <trkpt lat="35.88904" lon="-5.31633">
        <ele>8.249333</ele>
        <time>2022-04-16T09:43:54.000Z</time>
      </trkpt>
      <trkpt lat="35.88905" lon="-5.31623">
        <ele>8.135734</ele>
        <time>2022-04-16T09:43:57.000Z</time>
      </trkpt>
      <trkpt lat="35.88905" lon="-5.31615">
        <ele>8.050204</ele>
        <time>2022-04-16T09:43:59.000Z</time>
      </trkpt>
      <trkpt lat="35.88905" lon="-5.31611">
        <ele>8.005687</ele>
        <time>2022-04-16T09:44:00.000Z</time>
      </trkpt>
      <trkpt lat="35.88903" lon="-5.31598">
        <ele>7.860014</ele>
        <time>2022-04-16T09:44:03.000Z</time>
      </trkpt>
      <trkpt lat="35.88902" lon="-5.31593">
        <ele>7.799147</ele>
        <time>2022-04-16T09:44:04.000Z</time>
      </trkpt>
      <trkpt lat="35.88899" lon="-5.31578">
        <ele>7.624688</ele>
        <time>2022-04-16T09:44:07.000Z</time>
      </trkpt>
      <trkpt lat="35.88898" lon="-5.31564">
        <ele>7.472356</ele>
        <time>2022-04-16T09:44:10.000Z</time>
      </trkpt>
      <trkpt lat="35.88896" lon="-5.31553">
        <ele>7.348509</ele>
        <time>2022-04-16T09:44:12.000Z</time>
      </trkpt>
      <trkpt lat="35.88887" lon="-5.31534">
        <ele>7.103808</ele>
        <time>2022-04-16T09:44:16.000Z</time>
      </trkpt>
      <trkpt lat="35.88886" lon="-5.31528">
        <ele>7.049085</ele>
        <time>2022-04-16T09:44:17.000Z</time>
      </trkpt>
      <trkpt lat="35.88883" lon="-5.31506">
        <ele>6.81776</ele>
        <time>2022-04-16T09:44:21.000Z</time>
      </trkpt>
      <trkpt lat="35.88881" lon="-5.31495">
        <ele>6.696537</ele>
        <time>2022-04-16T09:44:23.000Z</time>
      </trkpt>
      <trkpt lat="35.88879" lon="-5.31484">
        <ele>6.577886</ele>
        <time>2022-04-16T09:44:25.000Z</time>
      </trkpt>
      <trkpt lat="35.88878" lon="-5.31478">
        <ele>6.52137</ele>
        <time>2022-04-16T09:44:26.000Z</time>
      </trkpt>
      <trkpt lat="35.88878" lon="-5.31473">
        <ele>6.46588</ele>
        <time>2022-04-16T09:44:27.000Z</time>
      </trkpt>
      <trkpt lat="35.88878" lon="-5.31468">
        <ele>6.410791</ele>
        <time>2022-04-16T09:44:28.000Z</time>
      </trkpt>
      <trkpt lat="35.88877" lon="-5.31457">
        <ele>6.296552</ele>
        <time>2022-04-16T09:44:30.000Z</time>
      </trkpt>
      <trkpt lat="35.88876" lon="-5.31451">
        <ele>6.23781</ele>
        <time>2022-04-16T09:44:31.000Z</time>
      </trkpt>
      <trkpt lat="35.88874" lon="-5.31432">
        <ele>6.033418</ele>
        <time>2022-04-16T09:44:35.000Z</time>
      </trkpt>
      <trkpt lat="35.88874" lon="-5.31427">
        <ele>5.983581</ele>
        <time>2022-04-16T09:44:36.000Z</time>
      </trkpt>
      <trkpt lat="35.88875" lon="-5.31414">
        <ele>5.845384</ele>
        <time>2022-04-16T09:44:39.000Z</time>
      </trkpt>
      <trkpt lat="35.88876" lon="-5.31391">
        <ele>5.609422</ele>
        <time>2022-04-16T09:44:45.000Z</time>
      </trkpt>
      <trkpt lat="35.88874" lon="-5.31364">
        <ele>5.326886</ele>
        <time>2022-04-16T09:44:51.000Z</time>
      </trkpt>
      <trkpt lat="35.88875" lon="-5.31342">
        <ele>5.103235</ele>
        <time>2022-04-16T09:44:55.000Z</time>
      </trkpt>
      <trkpt lat="35.88876" lon="-5.31332">
        <ele>4.993138</ele>
        <time>2022-04-16T09:44:57.000Z</time>
      </trkpt>
      <trkpt lat="35.88877" lon="-5.31303">
        <ele>4.853404</ele>
        <time>2022-04-16T09:45:03.000Z</time>
      </trkpt>
      <trkpt lat="35.88876" lon="-5.31298">
        <ele>4.839741</ele>
        <time>2022-04-16T09:45:04.000Z</time>
      </trkpt>
      <trkpt lat="35.88876" lon="-5.31277">
        <ele>4.774785</ele>
        <time>2022-04-16T09:45:08.000Z</time>
      </trkpt>
      <trkpt lat="35.88876" lon="-5.3127">
        <ele>4.75538</ele>
        <time>2022-04-16T09:45:09.000Z</time>
      </trkpt>
      <trkpt lat="35.88877" lon="-5.31264">
        <ele>4.735709</ele>
        <time>2022-04-16T09:45:10.000Z</time>
      </trkpt>
      <trkpt lat="35.88878" lon="-5.31227">
        <ele>4.625226</ele>
        <time>2022-04-16T09:45:16.000Z</time>
      </trkpt>
      <trkpt lat="35.8888" lon="-5.31197">
        <ele>4.532243</ele>
        <time>2022-04-16T09:45:23.000Z</time>
      </trkpt>
      <trkpt lat="35.88881" lon="-5.31171">
        <ele>4.455683</ele>
        <time>2022-04-16T09:45:29.000Z</time>
      </trkpt>
      <trkpt lat="35.88882" lon="-5.31161">
        <ele>4.425767</ele>
        <time>2022-04-16T09:45:31.000Z</time>
      </trkpt>
      <trkpt lat="35.88883" lon="-5.3114">
        <ele>4.361375</ele>
        <time>2022-04-16T09:45:35.000Z</time>
      </trkpt>
      <trkpt lat="35.88887" lon="-5.31092">
        <ele>4.27596</ele>
        <time>2022-04-16T09:45:44.000Z</time>
      </trkpt>
      <trkpt lat="35.88892" lon="-5.31056">
        <ele>4.355501</ele>
        <time>2022-04-16T09:45:51.000Z</time>
      </trkpt>
      <trkpt lat="35.889" lon="-5.31014">
        <ele>4.451143</ele>
        <time>2022-04-16T09:46:00.000Z</time>
      </trkpt>
      <trkpt lat="35.88908" lon="-5.30977">
        <ele>4.533889</ele>
        <time>2022-04-16T09:46:08.000Z</time>
      </trkpt>
      <trkpt lat="35.8892" lon="-5.30935">
        <ele>4.631784</ele>
        <time>2022-04-16T09:46:17.000Z</time>
      </trkpt>
      <trkpt lat="35.88923" lon="-5.30925">
        <ele>4.654953</ele>
        <time>2022-04-16T09:46:19.000Z</time>
      </trkpt>
      <trkpt lat="35.88928" lon="-5.30911">
        <ele>4.688989</ele>
        <time>2022-04-16T09:46:22.000Z</time>
      </trkpt>
      <trkpt lat="35.88934" lon="-5.3089">
        <ele>4.73744</ele>
        <time>2022-04-16T09:46:26.000Z</time>
      </trkpt>
      <trkpt lat="35.88938" lon="-5.3088">
        <ele>4.761824</ele>
        <time>2022-04-16T09:46:28.000Z</time>
      </trkpt>
      <trkpt lat="35.88953" lon="-5.30841">
        <ele>4.854683</ele>
        <time>2022-04-16T09:46:36.000Z</time>
      </trkpt>
      <trkpt lat="35.88954" lon="-5.30837">
        <ele>4.865549</ele>
        <time>2022-04-16T09:46:37.000Z</time>
      </trkpt>
      <trkpt lat="35.88958" lon="-5.30828">
        <ele>4.88657</ele>
        <time>2022-04-16T09:46:39.000Z</time>
      </trkpt>
      <trkpt lat="35.88968" lon="-5.30806">
        <ele>4.940169</ele>
        <time>2022-04-16T09:46:44.000Z</time>
      </trkpt>
      <trkpt lat="35.88982" lon="-5.30775">
        <ele>5.017034</ele>
        <time>2022-04-16T09:46:51.000Z</time>
      </trkpt>
      <trkpt lat="35.88995" lon="-5.30749">
        <ele>5.084314</ele>
        <time>2022-04-16T09:46:57.000Z</time>
      </trkpt>
      <trkpt lat="35.88999" lon="-5.30739">
        <ele>5.108092</ele>
        <time>2022-04-16T09:46:59.000Z</time>
      </trkpt>
      <trkpt lat="35.89009" lon="-5.30718">
        <ele>5.159871</ele>
        <time>2022-04-16T09:47:04.000Z</time>
      </trkpt>
      <trkpt lat="35.89013" lon="-5.30709">
        <ele>5.18319</ele>
        <time>2022-04-16T09:47:06.000Z</time>
      </trkpt>
      <trkpt lat="35.89023" lon="-5.3068">
        <ele>5.38348</ele>
        <time>2022-04-16T09:47:12.000Z</time>
      </trkpt>
      <trkpt lat="35.89026" lon="-5.30665">
        <ele>5.552476</ele>
        <time>2022-04-16T09:47:15.000Z</time>
      </trkpt>
      <trkpt lat="35.89031" lon="-5.3064">
        <ele>5.844938</ele>
        <time>2022-04-16T09:47:20.000Z</time>
      </trkpt>
      <trkpt lat="35.89034" lon="-5.30625">
        <ele>6.016727</ele>
        <time>2022-04-16T09:47:23.000Z</time>
      </trkpt>
      <trkpt lat="35.89037" lon="-5.30599">
        <ele>6.297621</ele>
        <time>2022-04-16T09:47:29.000Z</time>
      </trkpt>
      <trkpt lat="35.89041" lon="-5.30581">
        <ele>6.504524</ele>
        <time>2022-04-16T09:47:35.000Z</time>
      </trkpt>
      <trkpt lat="35.89047" lon="-5.30558">
        <ele>6.776781</ele>
        <time>2022-04-16T09:47:41.000Z</time>
      </trkpt>
      <trkpt lat="35.89052" lon="-5.30536">
        <ele>7.026889</ele>
        <time>2022-04-16T09:47:46.000Z</time>
      </trkpt>
      <trkpt lat="35.89059" lon="-5.30504">
        <ele>7.394993</ele>
        <time>2022-04-16T09:47:53.000Z</time>
      </trkpt>
      <trkpt lat="35.89059" lon="-5.305">
        <ele>7.431614</ele>
        <time>2022-04-16T09:47:54.000Z</time>
      </trkpt>
      <trkpt lat="35.89059" lon="-5.30495">
        <ele>7.491166</ele>
        <time>2022-04-16T09:47:56.000Z</time>
      </trkpt>
      <trkpt lat="35.89059" lon="-5.30493">
        <ele>7.515466</ele>
        <time>2022-04-16T09:47:57.000Z</time>
      </trkpt>
      <trkpt lat="35.8906" lon="-5.3049">
        <ele>7.550956</ele>
        <time>2022-04-16T09:47:59.000Z</time>
      </trkpt>
      <trkpt lat="35.89062" lon="-5.30486">
        <ele>7.601517</ele>
        <time>2022-04-16T09:48:02.000Z</time>
      </trkpt>
      <trkpt lat="35.89062" lon="-5.30485">
        <ele>7.614814</ele>
        <time>2022-04-16T09:48:03.000Z</time>
      </trkpt>
      <trkpt lat="35.89063" lon="-5.30482">
        <ele>7.653701</ele>
        <time>2022-04-16T09:48:08.000Z</time>
      </trkpt>
      <trkpt lat="35.89063" lon="-5.30468">
        <ele>7.856387</ele>
        <time>2022-04-16T09:48:15.000Z</time>
      </trkpt>
      <trkpt lat="35.89067" lon="-5.30456">
        <ele>8.04841</ele>
        <time>2022-04-16T09:48:20.000Z</time>
      </trkpt>
      <trkpt lat="35.8908" lon="-5.30433">
        <ele>8.463086</ele>
        <time>2022-04-16T09:48:28.000Z</time>
      </trkpt>
      <trkpt lat="35.89094" lon="-5.30405">
        <ele>8.949022</ele>
        <time>2022-04-16T09:48:37.000Z</time>
      </trkpt>
      <trkpt lat="35.89112" lon="-5.30382">
        <ele>9.407221</ele>
        <time>2022-04-16T09:48:45.000Z</time>
      </trkpt>
      <trkpt lat="35.89117" lon="-5.30377">
        <ele>9.525774</ele>
        <time>2022-04-16T09:48:47.000Z</time>
      </trkpt>
      <trkpt lat="35.89125" lon="-5.3037">
        <ele>9.716278</ele>
        <time>2022-04-16T09:48:50.000Z</time>
      </trkpt>
      <trkpt lat="35.89131" lon="-5.30366">
        <ele>9.834012</ele>
        <time>2022-04-16T09:48:52.000Z</time>
      </trkpt>
      <trkpt lat="35.8915" lon="-5.30353">
        <ele>10.227009</ele>
        <time>2022-04-16T09:48:59.000Z</time>
      </trkpt>
      <trkpt lat="35.8916" lon="-5.30348">
        <ele>10.427825</ele>
        <time>2022-04-16T09:49:03.000Z</time>
      </trkpt>
      <trkpt lat="35.89167" lon="-5.30343">
        <ele>10.569831</ele>
        <time>2022-04-16T09:49:06.000Z</time>
      </trkpt>
      <trkpt lat="35.89173" lon="-5.30336">
        <ele>10.723474</ele>
        <time>2022-04-16T09:49:11.000Z</time>
      </trkpt>
      <trkpt lat="35.8918" lon="-5.30326">
        <ele>10.920699</ele>
        <time>2022-04-16T09:49:17.000Z</time>
      </trkpt>
      <trkpt lat="35.8919" lon="-5.30307">
        <ele>11.170777</ele>
        <time>2022-04-16T09:49:25.000Z</time>
      </trkpt>
      <trkpt lat="35.89191" lon="-5.30292">
        <ele>11.334878</ele>
        <time>2022-04-16T09:49:31.000Z</time>
      </trkpt>
      <trkpt lat="35.89193" lon="-5.30275">
        <ele>11.51689</ele>
        <time>2022-04-16T09:49:36.000Z</time>
      </trkpt>
      <trkpt lat="35.89197" lon="-5.30263">
        <ele>11.658058</ele>
        <time>2022-04-16T09:49:41.000Z</time>
      </trkpt>
      <trkpt lat="35.89198" lon="-5.30256">
        <ele>11.733672</ele>
        <time>2022-04-16T09:49:44.000Z</time>
      </trkpt>
      <trkpt lat="35.89199" lon="-5.30247">
        <ele>11.832682</ele>
        <time>2022-04-16T09:49:48.000Z</time>
      </trkpt>
      <trkpt lat="35.89203" lon="-5.30226">
        <ele>12.07689</ele>
        <time>2022-04-16T09:49:55.000Z</time>
      </trkpt>
      <trkpt lat="35.89213" lon="-5.30202">
        <ele>12.368279</ele>
        <time>2022-04-16T09:50:02.000Z</time>
      </trkpt>
      <trkpt lat="35.89217" lon="-5.30196">
        <ele>12.448579</ele>
        <time>2022-04-16T09:50:04.000Z</time>
      </trkpt>
      <trkpt lat="35.8922" lon="-5.30192">
        <ele>12.502686</ele>
        <time>2022-04-16T09:50:08.000Z</time>
      </trkpt>
      <trkpt lat="35.89228" lon="-5.30187">
        <ele>12.629696</ele>
        <time>2022-04-16T09:50:13.000Z</time>
      </trkpt>
      <trkpt lat="35.89237" lon="-5.30175">
        <ele>12.805873</ele>
        <time>2022-04-16T09:50:19.000Z</time>
      </trkpt>
      <trkpt lat="35.89242" lon="-5.30157">
        <ele>13.011562</ele>
        <time>2022-04-16T09:50:25.000Z</time>
      </trkpt>
      <trkpt lat="35.89254" lon="-5.30133">
        <ele>13.3142</ele>
        <time>2022-04-16T09:50:34.000Z</time>
      </trkpt>
      <trkpt lat="35.89266" lon="-5.30117">
        <ele>13.401754</ele>
        <time>2022-04-16T09:50:41.000Z</time>
      </trkpt>
      <trkpt lat="35.8927" lon="-5.30111">
        <ele>13.418853</ele>
        <time>2022-04-16T09:50:43.000Z</time>
      </trkpt>
      <trkpt lat="35.8928" lon="-5.30104">
        <ele>13.454809</ele>
        <time>2022-04-16T09:50:48.000Z</time>
      </trkpt>
      <trkpt lat="35.89292" lon="-5.30087">
        <ele>13.510507</ele>
        <time>2022-04-16T09:50:55.000Z</time>
      </trkpt>
      <trkpt lat="35.89294" lon="-5.30088">
        <ele>13.517404</ele>
        <time>2022-04-16T09:50:59.000Z</time>
      </trkpt>
      <trkpt lat="35.89303" lon="-5.30088">
        <ele>13.54487</ele>
        <time>2022-04-16T09:51:04.000Z</time>
      </trkpt>
      <trkpt lat="35.89306" lon="-5.30087">
        <ele>13.556105</ele>
        <time>2022-04-16T09:51:06.000Z</time>
      </trkpt>
      <trkpt lat="35.89309" lon="-5.30085">
        <ele>13.566599</ele>
        <time>2022-04-16T09:51:08.000Z</time>
      </trkpt>
      <trkpt lat="35.8931" lon="-5.30085">
        <ele>13.570332</ele>
        <time>2022-04-16T09:51:09.000Z</time>
      </trkpt>
      <trkpt lat="35.89312" lon="-5.30086">
        <ele>13.575276</ele>
        <time>2022-04-16T09:51:10.000Z</time>
      </trkpt>
      <trkpt lat="35.89322" lon="-5.30086">
        <ele>13.606121</ele>
        <time>2022-04-16T09:51:15.000Z</time>
      </trkpt>
      <trkpt lat="35.89326" lon="-5.30086">
        <ele>13.619108</ele>
        <time>2022-04-16T09:51:17.000Z</time>
      </trkpt>
      <trkpt lat="35.89337" lon="-5.30084">
        <ele>13.652254</ele>
        <time>2022-04-16T09:51:22.000Z</time>
      </trkpt>
      <trkpt lat="35.89345" lon="-5.30083">
        <ele>13.676099</ele>
        <time>2022-04-16T09:51:25.000Z</time>
      </trkpt>
      <trkpt lat="35.89352" lon="-5.30083">
        <ele>13.698961</ele>
        <time>2022-04-16T09:51:28.000Z</time>
      </trkpt>
      <trkpt lat="35.89365" lon="-5.30081">
        <ele>13.739521</ele>
        <time>2022-04-16T09:51:34.000Z</time>
      </trkpt>
      <trkpt lat="35.89372" lon="-5.30081">
        <ele>13.761753</ele>
        <time>2022-04-16T09:51:37.000Z</time>
      </trkpt>
      <trkpt lat="35.89379" lon="-5.30081">
        <ele>13.781791</ele>
        <time>2022-04-16T09:51:40.000Z</time>
      </trkpt>
      <trkpt lat="35.89381" lon="-5.30081">
        <ele>13.788592</ele>
        <time>2022-04-16T09:51:41.000Z</time>
      </trkpt>
      <trkpt lat="35.89384" lon="-5.30081">
        <ele>13.799077</ele>
        <time>2022-04-16T09:51:43.000Z</time>
      </trkpt>
      <trkpt lat="35.89386" lon="-5.3008">
        <ele>13.803507</ele>
        <time>2022-04-16T09:51:47.000Z</time>
      </trkpt>
      <trkpt lat="35.89388" lon="-5.3008">
        <ele>13.809195</ele>
        <time>2022-04-16T09:51:56.000Z</time>
      </trkpt>
      <trkpt lat="35.89388" lon="-5.30081">
        <ele>13.811335</ele>
        <time>2022-04-16T09:52:05.000Z</time>
      </trkpt>
      <trkpt lat="35.89388" lon="-5.3008">
        <ele>13.81238</ele>
        <time>2022-04-16T09:52:08.000Z</time>
      </trkpt>
      <trkpt lat="35.89388" lon="-5.3008">
        <ele>13.81288</ele>
        <time>2022-04-16T09:52:24.000Z</time>
      </trkpt>
      <trkpt lat="35.89388" lon="-5.3008">
        <ele>13.81288</ele>
        <time>2022-04-16T09:52:34.000Z</time>
      </trkpt>
      <trkpt lat="35.89388" lon="-5.3008">
        <ele>13.81288</ele>
        <time>2022-04-16T09:52:37.000Z</time>
      </trkpt>
      <trkpt lat="35.89388" lon="-5.3008">
        <ele>13.81288</ele>
        <time>2022-04-16T09:52:42.000Z</time>
      </trkpt>
      <trkpt lat="35.89388" lon="-5.3008">
        <ele>13.814421</ele>
        <time>2022-04-16T09:53:09.000Z</time>
      </trkpt>
      <trkpt lat="35.89388" lon="-5.3008">
        <ele>13.814421</ele>
        <time>2022-04-16T09:53:37.000Z</time>
      </trkpt>
      <trkpt lat="35.89388" lon="-5.3008">
        <ele>13.814421</ele>
        <time>2022-04-16T09:53:42.000Z</time>
      </trkpt>
      <trkpt lat="35.89388" lon="-5.3008">
        <ele>13.814421</ele>
        <time>2022-04-16T09:53:48.000Z</time>
      </trkpt>
      <trkpt lat="35.89388" lon="-5.3008">
        <ele>13.81517</ele>
        <time>2022-04-16T09:53:57.000Z</time>
      </trkpt>
      <trkpt lat="35.89388" lon="-5.3008">
        <ele>13.815567</ele>
        <time>2022-04-16T09:54:13.000Z</time>
      </trkpt>
      <trkpt lat="35.89388" lon="-5.3008">
        <ele>13.815964</ele>
        <time>2022-04-16T09:54:15.000Z</time>
      </trkpt>
      <trkpt lat="35.89388" lon="-5.3008">
        <ele>13.816213</ele>
        <time>2022-04-16T09:54:16.000Z</time>
      </trkpt>
      <trkpt lat="35.89388" lon="-5.3008">
        <ele>13.816463</ele>
        <time>2022-04-16T09:54:33.000Z</time>
      </trkpt>
      <trkpt lat="35.89388" lon="-5.3008">
        <ele>13.816463</ele>
        <time>2022-04-16T09:54:42.000Z</time>
      </trkpt>
      <trkpt lat="35.89388" lon="-5.3008">
        <ele>13.816463</ele>
        <time>2022-04-16T09:54:48.000Z</time>
      </trkpt>
      <trkpt lat="35.89388" lon="-5.30081">
        <ele>13.817712</ele>
        <time>2022-04-16T09:55:03.000Z</time>
      </trkpt>
      <trkpt lat="35.89388" lon="-5.30081">
        <ele>13.81802</ele>
        <time>2022-04-16T09:55:10.000Z</time>
      </trkpt>
      <trkpt lat="35.89388" lon="-5.30081">
        <ele>13.81802</ele>
        <time>2022-04-16T09:55:23.000Z</time>
      </trkpt>
      <trkpt lat="35.89389" lon="-5.3008">
        <ele>13.820499</ele>
        <time>2022-04-16T09:55:40.000Z</time>
      </trkpt>
      <trkpt lat="35.89389" lon="-5.3008">
        <ele>13.820999</ele>
        <time>2022-04-16T09:55:45.000Z</time>
      </trkpt>
      <trkpt lat="35.89389" lon="-5.3008">
        <ele>13.820999</ele>
        <time>2022-04-16T09:55:48.000Z</time>
      </trkpt>
      <trkpt lat="35.8939" lon="-5.3008">
        <ele>13.82256</ele>
        <time>2022-04-16T09:56:06.000Z</time>
      </trkpt>
      <trkpt lat="35.8939" lon="-5.3008">
        <ele>13.824321</ele>
        <time>2022-04-16T09:56:10.000Z</time>
      </trkpt>
      <trkpt lat="35.89392" lon="-5.30078">
        <ele>13.831807</ele>
        <time>2022-04-16T09:56:11.000Z</time>
      </trkpt>
      <trkpt lat="35.89401" lon="-5.30073">
        <ele>13.861186</ele>
        <time>2022-04-16T09:56:15.000Z</time>
      </trkpt>
      <trkpt lat="35.89403" lon="-5.30069">
        <ele>13.874015</ele>
        <time>2022-04-16T09:56:17.000Z</time>
      </trkpt>
      <trkpt lat="35.89409" lon="-5.30062">
        <ele>13.899157</ele>
        <time>2022-04-16T09:56:20.000Z</time>
      </trkpt>
      <trkpt lat="35.8942" lon="-5.30055">
        <ele>13.883419</ele>
        <time>2022-04-16T09:56:24.000Z</time>
      </trkpt>
      <trkpt lat="35.89445" lon="-5.30045">
        <ele>13.813252</ele>
        <time>2022-04-16T09:56:31.000Z</time>
      </trkpt>
      <trkpt lat="35.89474" lon="-5.30033">
        <ele>13.734439</ele>
        <time>2022-04-16T09:56:38.000Z</time>
      </trkpt>
      <trkpt lat="35.89481" lon="-5.30028">
        <ele>13.711336</ele>
        <time>2022-04-16T09:56:40.000Z</time>
      </trkpt>
      <trkpt lat="35.89493" lon="-5.30021">
        <ele>13.676185</ele>
        <time>2022-04-16T09:56:43.000Z</time>
      </trkpt>
      <trkpt lat="35.895" lon="-5.30016">
        <ele>13.655786</ele>
        <time>2022-04-16T09:56:45.000Z</time>
      </trkpt>
      <trkpt lat="35.89503" lon="-5.30012">
        <ele>13.64375</ele>
        <time>2022-04-16T09:56:46.000Z</time>
      </trkpt>
      <trkpt lat="35.89507" lon="-5.30008">
        <ele>13.629832</ele>
        <time>2022-04-16T09:56:47.000Z</time>
      </trkpt>
      <trkpt lat="35.89511" lon="-5.30005">
        <ele>13.617618</ele>
        <time>2022-04-16T09:56:48.000Z</time>
      </trkpt>
      <trkpt lat="35.89523" lon="-5.29997">
        <ele>13.582076</ele>
        <time>2022-04-16T09:56:51.000Z</time>
      </trkpt>
      <trkpt lat="35.89528" lon="-5.29993">
        <ele>13.566669</ele>
        <time>2022-04-16T09:56:52.000Z</time>
      </trkpt>
      <trkpt lat="35.89542" lon="-5.29978">
        <ele>13.517503</ele>
        <time>2022-04-16T09:56:56.000Z</time>
      </trkpt>
      <trkpt lat="35.8955" lon="-5.29964">
        <ele>13.478847</ele>
        <time>2022-04-16T09:56:59.000Z</time>
      </trkpt>
      <trkpt lat="35.89552" lon="-5.2996">
        <ele>13.46951</ele>
        <time>2022-04-16T09:57:00.000Z</time>
      </trkpt>
      <trkpt lat="35.89557" lon="-5.2995">
        <ele>13.445013</ele>
        <time>2022-04-16T09:57:02.000Z</time>
      </trkpt>
      <trkpt lat="35.89563" lon="-5.29939">
        <ele>13.495237</ele>
        <time>2022-04-16T09:57:05.000Z</time>
      </trkpt>
      <trkpt lat="35.8958" lon="-5.29909">
        <ele>13.830166</ele>
        <time>2022-04-16T09:57:13.000Z</time>
      </trkpt>
      <trkpt lat="35.89584" lon="-5.29902">
        <ele>13.902196</ele>
        <time>2022-04-16T09:57:15.000Z</time>
      </trkpt>
      <trkpt lat="35.89596" lon="-5.29879">
        <ele>14.151614</ele>
        <time>2022-04-16T09:57:21.000Z</time>
      </trkpt>
      <trkpt lat="35.89598" lon="-5.29876">
        <ele>14.191239</ele>
        <time>2022-04-16T09:57:22.000Z</time>
      </trkpt>
      <trkpt lat="35.89614" lon="-5.29849">
        <ele>14.498251</ele>
        <time>2022-04-16T09:57:30.000Z</time>
      </trkpt>
      <trkpt lat="35.89637" lon="-5.2983">
        <ele>14.803833</ele>
        <time>2022-04-16T09:57:37.000Z</time>
      </trkpt>
      <trkpt lat="35.89653" lon="-5.29824">
        <ele>14.98815</ele>
        <time>2022-04-16T09:57:41.000Z</time>
      </trkpt>
      <trkpt lat="35.89662" lon="-5.29824">
        <ele>15.086864</ele>
        <time>2022-04-16T09:57:43.000Z</time>
      </trkpt>
      <trkpt lat="35.89667" lon="-5.29824">
        <ele>15.146427</ele>
        <time>2022-04-16T09:57:44.000Z</time>
      </trkpt>
      <trkpt lat="35.89679" lon="-5.29827">
        <ele>15.287218</ele>
        <time>2022-04-16T09:57:47.000Z</time>
      </trkpt>
      <trkpt lat="35.89687" lon="-5.29829">
        <ele>15.381447</ele>
        <time>2022-04-16T09:57:49.000Z</time>
      </trkpt>
      <trkpt lat="35.89723" lon="-5.29839">
        <ele>15.763172</ele>
        <time>2022-04-16T09:57:57.000Z</time>
      </trkpt>
      <trkpt lat="35.89741" lon="-5.29842">
        <ele>15.94257</ele>
        <time>2022-04-16T09:58:02.000Z</time>
      </trkpt>
      <trkpt lat="35.89762" lon="-5.29849">
        <ele>16.167244</ele>
        <time>2022-04-16T09:58:08.000Z</time>
      </trkpt>
      <trkpt lat="35.89774" lon="-5.29852">
        <ele>16.289454</ele>
        <time>2022-04-16T09:58:11.000Z</time>
      </trkpt>
      <trkpt lat="35.89801" lon="-5.29858">
        <ele>16.570743</ele>
        <time>2022-04-16T09:58:19.000Z</time>
      </trkpt>
      <trkpt lat="35.89805" lon="-5.29859">
        <ele>16.605611</ele>
        <time>2022-04-16T09:58:20.000Z</time>
      </trkpt>
      <trkpt lat="35.89832" lon="-5.29865">
        <ele>16.890897</ele>
        <time>2022-04-16T09:58:28.000Z</time>
      </trkpt>
      <trkpt lat="35.89866" lon="-5.29877">
        <ele>17.252294</ele>
        <time>2022-04-16T09:58:37.000Z</time>
      </trkpt>
      <trkpt lat="35.89905" lon="-5.29896">
        <ele>17.112314</ele>
        <time>2022-04-16T09:58:47.000Z</time>
      </trkpt>
      <trkpt lat="35.89912" lon="-5.29902">
        <ele>17.07665</ele>
        <time>2022-04-16T09:58:49.000Z</time>
      </trkpt>
      <trkpt lat="35.89924" lon="-5.29908">
        <ele>17.024454</ele>
        <time>2022-04-16T09:58:52.000Z</time>
      </trkpt>
      <trkpt lat="35.89933" lon="-5.2991">
        <ele>16.987179</ele>
        <time>2022-04-16T09:58:54.000Z</time>
      </trkpt>
      <trkpt lat="35.89946" lon="-5.29908">
        <ele>16.929909</ele>
        <time>2022-04-16T09:58:57.000Z</time>
      </trkpt>
      <trkpt lat="35.89953" lon="-5.29903">
        <ele>16.89584</ele>
        <time>2022-04-16T09:58:59.000Z</time>
      </trkpt>
      <trkpt lat="35.89984" lon="-5.29875">
        <ele>16.735468</ele>
        <time>2022-04-16T09:59:07.000Z</time>
      </trkpt>
      <trkpt lat="35.89987" lon="-5.29872">
        <ele>16.716783</ele>
        <time>2022-04-16T09:59:08.000Z</time>
      </trkpt>
      <trkpt lat="35.89998" lon="-5.29862">
        <ele>16.659785</ele>
        <time>2022-04-16T09:59:11.000Z</time>
      </trkpt>
      <trkpt lat="35.90009" lon="-5.29852">
        <ele>16.603718</ele>
        <time>2022-04-16T09:59:14.000Z</time>
      </trkpt>
      <trkpt lat="35.90017" lon="-5.29842">
        <ele>16.556353</ele>
        <time>2022-04-16T09:59:17.000Z</time>
      </trkpt>
      <trkpt lat="35.90027" lon="-5.29826">
        <ele>16.508488</ele>
        <time>2022-04-16T09:59:22.000Z</time>
      </trkpt>
      <trkpt lat="35.90029" lon="-5.29823">
        <ele>16.504005</ele>
        <time>2022-04-16T09:59:23.000Z</time>
      </trkpt>
      <trkpt lat="35.9004" lon="-5.29808">
        <ele>16.479003</ele>
        <time>2022-04-16T09:59:27.000Z</time>
      </trkpt>
      <trkpt lat="35.90046" lon="-5.29801">
        <ele>16.465936</ele>
        <time>2022-04-16T09:59:29.000Z</time>
      </trkpt>
      <trkpt lat="35.90049" lon="-5.29796">
        <ele>16.458647</ele>
        <time>2022-04-16T09:59:30.000Z</time>
      </trkpt>
      <trkpt lat="35.90055" lon="-5.29788">
        <ele>16.445009</ele>
        <time>2022-04-16T09:59:32.000Z</time>
      </trkpt>
      <trkpt lat="35.90057" lon="-5.29784">
        <ele>16.439477</ele>
        <time>2022-04-16T09:59:33.000Z</time>
      </trkpt>
      <trkpt lat="35.9007" lon="-5.29767">
        <ele>16.410911</ele>
        <time>2022-04-16T09:59:37.000Z</time>
      </trkpt>
      <trkpt lat="35.90094" lon="-5.29736">
        <ele>16.358785</ele>
        <time>2022-04-16T09:59:45.000Z</time>
      </trkpt>
      <trkpt lat="35.90129" lon="-5.29703">
        <ele>16.292248</ele>
        <time>2022-04-16T09:59:55.000Z</time>
      </trkpt>
      <trkpt lat="35.90135" lon="-5.29698">
        <ele>16.280696</ele>
        <time>2022-04-16T09:59:57.000Z</time>
      </trkpt>
      <trkpt lat="35.90168" lon="-5.29669">
        <ele>16.387491</ele>
        <time>2022-04-16T10:00:06.000Z</time>
      </trkpt>
      <trkpt lat="35.9018" lon="-5.29654">
        <ele>16.517784</ele>
        <time>2022-04-16T10:00:10.000Z</time>
      </trkpt>
      <trkpt lat="35.9019" lon="-5.29637">
        <ele>16.646077</ele>
        <time>2022-04-16T10:00:14.000Z</time>
      </trkpt>
      <trkpt lat="35.90193" lon="-5.29632">
        <ele>16.685011</ele>
        <time>2022-04-16T10:00:15.000Z</time>
      </trkpt>
      <trkpt lat="35.90201" lon="-5.2961">
        <ele>16.834526</ele>
        <time>2022-04-16T10:00:20.000Z</time>
      </trkpt>
      <trkpt lat="35.90202" lon="-5.29605">
        <ele>16.864767</ele>
        <time>2022-04-16T10:00:21.000Z</time>
      </trkpt>
      <trkpt lat="35.90209" lon="-5.29588">
        <ele>16.980817</ele>
        <time>2022-04-16T10:00:25.000Z</time>
      </trkpt>
      <trkpt lat="35.90215" lon="-5.29569">
        <ele>17.101331</ele>
        <time>2022-04-16T10:00:29.000Z</time>
      </trkpt>
      <trkpt lat="35.90219" lon="-5.29556">
        <ele>17.187972</ele>
        <time>2022-04-16T10:00:32.000Z</time>
      </trkpt>
      <trkpt lat="35.9023" lon="-5.29523">
        <ele>17.407827</ele>
        <time>2022-04-16T10:00:39.000Z</time>
      </trkpt>
      <trkpt lat="35.90235" lon="-5.29497">
        <ele>17.569304</ele>
        <time>2022-04-16T10:00:44.000Z</time>
      </trkpt>
      <trkpt lat="35.90237" lon="-5.29477">
        <ele>18.2319</ele>
        <time>2022-04-16T10:00:48.000Z</time>
      </trkpt>
      <trkpt lat="35.90236" lon="-5.29459">
        <ele>18.980238</ele>
        <time>2022-04-16T10:00:52.000Z</time>
      </trkpt>
      <trkpt lat="35.90233" lon="-5.29447">
        <ele>19.506526</ele>
        <time>2022-04-16T10:00:55.000Z</time>
      </trkpt>
      <trkpt lat="35.90231" lon="-5.29442">
        <ele>19.726635</ele>
        <time>2022-04-16T10:00:57.000Z</time>
      </trkpt>
      <trkpt lat="35.90231" lon="-5.2944">
        <ele>19.804879</ele>
        <time>2022-04-16T10:00:58.000Z</time>
      </trkpt>
      <trkpt lat="35.9023" lon="-5.2944">
        <ele>19.818102</ele>
        <time>2022-04-16T10:01:00.000Z</time>
      </trkpt>
      <trkpt lat="35.9023" lon="-5.2944">
        <ele>19.834747</ele>
        <time>2022-04-16T10:01:21.000Z</time>
      </trkpt>
      <trkpt lat="35.9023" lon="-5.29437">
        <ele>19.946604</ele>
        <time>2022-04-16T10:01:22.000Z</time>
      </trkpt>
      <trkpt lat="35.90223" lon="-5.29423">
        <ele>20.603282</ele>
        <time>2022-04-16T10:01:27.000Z</time>
      </trkpt>
      <trkpt lat="35.90222" lon="-5.2942">
        <ele>20.738279</ele>
        <time>2022-04-16T10:01:28.000Z</time>
      </trkpt>
      <trkpt lat="35.90221" lon="-5.29414">
        <ele>21.020978</ele>
        <time>2022-04-16T10:01:30.000Z</time>
      </trkpt>
      <trkpt lat="35.90216" lon="-5.29398">
        <ele>21.717242</ele>
        <time>2022-04-16T10:01:36.000Z</time>
      </trkpt>
      <trkpt lat="35.90209" lon="-5.29381">
        <ele>22.494227</ele>
        <time>2022-04-16T10:01:42.000Z</time>
      </trkpt>
      <trkpt lat="35.90208" lon="-5.29378">
        <ele>22.631262</ele>
        <time>2022-04-16T10:01:43.000Z</time>
      </trkpt>
      <trkpt lat="35.90203" lon="-5.29361">
        <ele>23.420152</ele>
        <time>2022-04-16T10:01:49.000Z</time>
      </trkpt>
      <trkpt lat="35.902" lon="-5.29353">
        <ele>23.788495</ele>
        <time>2022-04-16T10:01:52.000Z</time>
      </trkpt>
      <trkpt lat="35.90197" lon="-5.29345">
        <ele>24.141498</ele>
        <time>2022-04-16T10:01:55.000Z</time>
      </trkpt>
      <trkpt lat="35.90193" lon="-5.29334">
        <ele>24.660514</ele>
        <time>2022-04-16T10:01:59.000Z</time>
      </trkpt>
      <trkpt lat="35.90189" lon="-5.29325">
        <ele>25.058405</ele>
        <time>2022-04-16T10:02:02.000Z</time>
      </trkpt>
      <trkpt lat="35.90185" lon="-5.29315">
        <ele>25.543119</ele>
        <time>2022-04-16T10:02:06.000Z</time>
      </trkpt>
      <trkpt lat="35.90183" lon="-5.29312">
        <ele>25.695822</ele>
        <time>2022-04-16T10:02:07.000Z</time>
      </trkpt>
      <trkpt lat="35.90182" lon="-5.29306">
        <ele>25.936908</ele>
        <time>2022-04-16T10:02:09.000Z</time>
      </trkpt>
      <trkpt lat="35.90177" lon="-5.29287">
        <ele>26.78208</ele>
        <time>2022-04-16T10:02:16.000Z</time>
      </trkpt>
      <trkpt lat="35.9018" lon="-5.29269">
        <ele>27.633891</ele>
        <time>2022-04-16T10:02:21.000Z</time>
      </trkpt>
      <trkpt lat="35.90182" lon="-5.29263">
        <ele>27.954283</ele>
        <time>2022-04-16T10:02:23.000Z</time>
      </trkpt>
      <trkpt lat="35.90186" lon="-5.29255">
        <ele>28.4172</ele>
        <time>2022-04-16T10:02:26.000Z</time>
      </trkpt>
      <trkpt lat="35.90192" lon="-5.29245">
        <ele>29.009346</ele>
        <time>2022-04-16T10:02:30.000Z</time>
      </trkpt>
      <trkpt lat="35.90194" lon="-5.29243">
        <ele>29.154125</ele>
        <time>2022-04-16T10:02:31.000Z</time>
      </trkpt>
      <trkpt lat="35.90198" lon="-5.29239">
        <ele>29.452844</ele>
        <time>2022-04-16T10:02:33.000Z</time>
      </trkpt>
      <trkpt lat="35.90201" lon="-5.29235">
        <ele>29.725188</ele>
        <time>2022-04-16T10:02:35.000Z</time>
      </trkpt>
      <trkpt lat="35.90203" lon="-5.29233">
        <ele>29.875102</ele>
        <time>2022-04-16T10:02:36.000Z</time>
      </trkpt>
      <trkpt lat="35.90207" lon="-5.29229">
        <ele>30.190044</ele>
        <time>2022-04-16T10:02:38.000Z</time>
      </trkpt>
      <trkpt lat="35.90209" lon="-5.29227">
        <ele>30.323895</ele>
        <time>2022-04-16T10:02:39.000Z</time>
      </trkpt>
      <trkpt lat="35.90211" lon="-5.29223">
        <ele>30.532499</ele>
        <time>2022-04-16T10:02:41.000Z</time>
      </trkpt>
      <trkpt lat="35.90215" lon="-5.29217">
        <ele>30.928599</ele>
        <time>2022-04-16T10:02:44.000Z</time>
      </trkpt>
      <trkpt lat="35.90217" lon="-5.29215">
        <ele>31.052693</ele>
        <time>2022-04-16T10:02:45.000Z</time>
      </trkpt>
      <trkpt lat="35.90231" lon="-5.29198">
        <ele>32.204738</ele>
        <time>2022-04-16T10:02:53.000Z</time>
      </trkpt>
      <trkpt lat="35.90233" lon="-5.29195">
        <ele>32.363605</ele>
        <time>2022-04-16T10:02:54.000Z</time>
      </trkpt>
      <trkpt lat="35.90243" lon="-5.29191">
        <ele>33.013923</ele>
        <time>2022-04-16T10:02:59.000Z</time>
      </trkpt>
      <trkpt lat="35.90245" lon="-5.2919">
        <ele>33.102716</ele>
        <time>2022-04-16T10:03:00.000Z</time>
      </trkpt>
      <trkpt lat="35.90246" lon="-5.29186">
        <ele>33.323517</ele>
        <time>2022-04-16T10:03:02.000Z</time>
      </trkpt>
      <trkpt lat="35.90247" lon="-5.29183">
        <ele>33.47391</ele>
        <time>2022-04-16T10:03:03.000Z</time>
      </trkpt>
      <trkpt lat="35.90252" lon="-5.29167">
        <ele>34.304242</ele>
        <time>2022-04-16T10:03:09.000Z</time>
      </trkpt>
      <trkpt lat="35.90252" lon="-5.29164">
        <ele>34.456617</ele>
        <time>2022-04-16T10:03:10.000Z</time>
      </trkpt>
      <trkpt lat="35.90254" lon="-5.29139">
        <ele>35.623826</ele>
        <time>2022-04-16T10:03:18.000Z</time>
      </trkpt>
      <trkpt lat="35.90254" lon="-5.29136">
        <ele>35.7762</ele>
        <time>2022-04-16T10:03:19.000Z</time>
      </trkpt>
      <trkpt lat="35.90254" lon="-5.29133">
        <ele>35.930377</ele>
        <time>2022-04-16T10:03:20.000Z</time>
      </trkpt>
      <trkpt lat="35.90255" lon="-5.29118">
        <ele>36.66603</ele>
        <time>2022-04-16T10:03:25.000Z</time>
      </trkpt>
      <trkpt lat="35.90256" lon="-5.29115">
        <ele>36.805241</ele>
        <time>2022-04-16T10:03:26.000Z</time>
      </trkpt>
      <trkpt lat="35.90257" lon="-5.29096">
        <ele>37.760861</ele>
        <time>2022-04-16T10:03:33.000Z</time>
      </trkpt>
      <trkpt lat="35.90257" lon="-5.29094">
        <ele>37.890767</ele>
        <time>2022-04-16T10:03:34.000Z</time>
      </trkpt>
      <trkpt lat="35.90258" lon="-5.29078">
        <ele>38.842616</ele>
        <time>2022-04-16T10:03:41.000Z</time>
      </trkpt>
      <trkpt lat="35.90257" lon="-5.29068">
        <ele>39.392149</ele>
        <time>2022-04-16T10:03:45.000Z</time>
      </trkpt>
      <trkpt lat="35.90256" lon="-5.29061">
        <ele>39.820188</ele>
        <time>2022-04-16T10:03:48.000Z</time>
      </trkpt>
      <trkpt lat="35.90252" lon="-5.29045">
        <ele>40.775909</ele>
        <time>2022-04-16T10:03:54.000Z</time>
      </trkpt>
      <trkpt lat="35.9025" lon="-5.29037">
        <ele>41.270212</ele>
        <time>2022-04-16T10:03:57.000Z</time>
      </trkpt>
      <trkpt lat="35.90248" lon="-5.2903">
        <ele>41.734683</ele>
        <time>2022-04-16T10:04:00.000Z</time>
      </trkpt>
      <trkpt lat="35.90247" lon="-5.29025">
        <ele>42.007402</ele>
        <time>2022-04-16T10:04:02.000Z</time>
      </trkpt>
      <trkpt lat="35.90246" lon="-5.29023">
        <ele>42.15047</ele>
        <time>2022-04-16T10:04:03.000Z</time>
      </trkpt>
      <trkpt lat="35.90244" lon="-5.29018">
        <ele>42.476992</ele>
        <time>2022-04-16T10:04:05.000Z</time>
      </trkpt>
      <trkpt lat="35.90241" lon="-5.29004">
        <ele>43.296822</ele>
        <time>2022-04-16T10:04:11.000Z</time>
      </trkpt>
      <trkpt lat="35.9024" lon="-5.29003">
        <ele>43.391272</ele>
        <time>2022-04-16T10:04:12.000Z</time>
      </trkpt>
      <trkpt lat="35.90239" lon="-5.29001">
        <ele>43.545713</ele>
        <time>2022-04-16T10:04:17.000Z</time>
      </trkpt>
      <trkpt lat="35.90239" lon="-5.29001">
        <ele>43.545713</ele>
        <time>2022-04-16T10:04:28.000Z</time>
      </trkpt>
      <trkpt lat="35.90239" lon="-5.29001">
        <ele>43.545713</ele>
        <time>2022-04-16T10:04:32.000Z</time>
      </trkpt>
      <trkpt lat="35.90239" lon="-5.29001">
        <ele>43.545713</ele>
        <time>2022-04-16T10:04:50.000Z</time>
      </trkpt>
      <trkpt lat="35.90239" lon="-5.29001">
        <ele>43.545713</ele>
        <time>2022-04-16T10:04:51.000Z</time>
      </trkpt>
      <trkpt lat="35.90239" lon="-5.29001">
        <ele>43.545713</ele>
        <time>2022-04-16T10:04:53.000Z</time>
      </trkpt>
      <trkpt lat="35.90239" lon="-5.29001">
        <ele>43.545713</ele>
        <time>2022-04-16T10:05:01.000Z</time>
      </trkpt>
      <trkpt lat="35.90239" lon="-5.29001">
        <ele>43.545713</ele>
        <time>2022-04-16T10:05:03.000Z</time>
      </trkpt>
      <trkpt lat="35.90239" lon="-5.29001">
        <ele>43.545713</ele>
        <time>2022-04-16T10:05:05.000Z</time>
      </trkpt>
      <trkpt lat="35.90239" lon="-5.29001">
        <ele>43.545713</ele>
        <time>2022-04-16T10:05:08.000Z</time>
      </trkpt>
      <trkpt lat="35.90239" lon="-5.29001">
        <ele>43.545713</ele>
        <time>2022-04-16T10:05:09.000Z</time>
      </trkpt>
      <trkpt lat="35.90239" lon="-5.29001">
        <ele>43.545713</ele>
        <time>2022-04-16T10:05:12.000Z</time>
      </trkpt>
      <trkpt lat="35.90239" lon="-5.29001">
        <ele>43.545713</ele>
        <time>2022-04-16T10:05:14.000Z</time>
      </trkpt>
      <trkpt lat="35.90239" lon="-5.29001">
        <ele>43.545713</ele>
        <time>2022-04-16T10:05:20.000Z</time>
      </trkpt>
      <trkpt lat="35.90239" lon="-5.29001">
        <ele>43.545713</ele>
        <time>2022-04-16T10:05:28.000Z</time>
      </trkpt>
      <trkpt lat="35.90239" lon="-5.29001">
        <ele>43.545713</ele>
        <time>2022-04-16T10:05:42.000Z</time>
      </trkpt>
      <trkpt lat="35.90239" lon="-5.29001">
        <ele>43.545713</ele>
        <time>2022-04-16T10:05:47.000Z</time>
      </trkpt>
      <trkpt lat="35.90238" lon="-5.29001">
        <ele>43.590389</ele>
        <time>2022-04-16T10:06:08.000Z</time>
      </trkpt>
      <trkpt lat="35.90236" lon="-5.28994">
        <ele>43.987296</ele>
        <time>2022-04-16T10:06:11.000Z</time>
      </trkpt>
      <trkpt lat="35.90235" lon="-5.2899">
        <ele>44.265912</ele>
        <time>2022-04-16T10:06:13.000Z</time>
      </trkpt>
      <trkpt lat="35.90231" lon="-5.28983">
        <ele>44.757792</ele>
        <time>2022-04-16T10:06:16.000Z</time>
      </trkpt>
      <trkpt lat="35.90227" lon="-5.28974">
        <ele>45.355557</ele>
        <time>2022-04-16T10:06:20.000Z</time>
      </trkpt>
      <trkpt lat="35.90224" lon="-5.28967">
        <ele>45.812153</ele>
        <time>2022-04-16T10:06:23.000Z</time>
      </trkpt>
      <trkpt lat="35.90219" lon="-5.28958">
        <ele>46.432783</ele>
        <time>2022-04-16T10:06:27.000Z</time>
      </trkpt>
      <trkpt lat="35.90215" lon="-5.28951">
        <ele>46.935419</ele>
        <time>2022-04-16T10:06:30.000Z</time>
      </trkpt>
      <trkpt lat="35.90209" lon="-5.28938">
        <ele>47.805203</ele>
        <time>2022-04-16T10:06:36.000Z</time>
      </trkpt>
      <trkpt lat="35.90208" lon="-5.28935">
        <ele>48.018394</ele>
        <time>2022-04-16T10:06:37.000Z</time>
      </trkpt>
      <trkpt lat="35.90206" lon="-5.28933">
        <ele>48.204264</ele>
        <time>2022-04-16T10:06:38.000Z</time>
      </trkpt>
      <trkpt lat="35.902" lon="-5.28922">
        <ele>48.996694</ele>
        <time>2022-04-16T10:06:43.000Z</time>
      </trkpt>
      <trkpt lat="35.90195" lon="-5.28912">
        <ele>49.623832</ele>
        <time>2022-04-16T10:06:47.000Z</time>
      </trkpt>
      <trkpt lat="35.90189" lon="-5.28902">
        <ele>50.361088</ele>
        <time>2022-04-16T10:06:52.000Z</time>
      </trkpt>
      <trkpt lat="35.90187" lon="-5.28898">
        <ele>50.73519</ele>
        <time>2022-04-16T10:06:54.000Z</time>
      </trkpt>
      <trkpt lat="35.90183" lon="-5.28891">
        <ele>51.278827</ele>
        <time>2022-04-16T10:06:57.000Z</time>
      </trkpt>
      <trkpt lat="35.90177" lon="-5.28881">
        <ele>52.136565</ele>
        <time>2022-04-16T10:07:02.000Z</time>
      </trkpt>
      <trkpt lat="35.90177" lon="-5.28878">
        <ele>52.30551</ele>
        <time>2022-04-16T10:07:03.000Z</time>
      </trkpt>
      <trkpt lat="35.90167" lon="-5.28862">
        <ele>53.727579</ele>
        <time>2022-04-16T10:07:11.000Z</time>
      </trkpt>
      <trkpt lat="35.9016" lon="-5.28848">
        <ele>54.830746</ele>
        <time>2022-04-16T10:07:18.000Z</time>
      </trkpt>
      <trkpt lat="35.90158" lon="-5.28841">
        <ele>55.32306</ele>
        <time>2022-04-16T10:07:21.000Z</time>
      </trkpt>
      <trkpt lat="35.90155" lon="-5.28836">
        <ele>55.793249</ele>
        <time>2022-04-16T10:07:24.000Z</time>
      </trkpt>
      <trkpt lat="35.90153" lon="-5.28832">
        <ele>56.106182</ele>
        <time>2022-04-16T10:07:26.000Z</time>
      </trkpt>
      <trkpt lat="35.90148" lon="-5.28823">
        <ele>56.822521</ele>
        <time>2022-04-16T10:07:30.000Z</time>
      </trkpt>
      <trkpt lat="35.90146" lon="-5.28821">
        <ele>57.020757</ele>
        <time>2022-04-16T10:07:31.000Z</time>
      </trkpt>
      <trkpt lat="35.90145" lon="-5.28819">
        <ele>57.181055</ele>
        <time>2022-04-16T10:07:32.000Z</time>
      </trkpt>
      <trkpt lat="35.90144" lon="-5.28817">
        <ele>57.358827</ele>
        <time>2022-04-16T10:07:33.000Z</time>
      </trkpt>
      <trkpt lat="35.90143" lon="-5.28815">
        <ele>57.554454</ele>
        <time>2022-04-16T10:07:34.000Z</time>
      </trkpt>
      <trkpt lat="35.90142" lon="-5.28813">
        <ele>57.730778</ele>
        <time>2022-04-16T10:07:35.000Z</time>
      </trkpt>
      <trkpt lat="35.90139" lon="-5.28809">
        <ele>58.083646</ele>
        <time>2022-04-16T10:07:37.000Z</time>
      </trkpt>
      <trkpt lat="35.90138" lon="-5.28806">
        <ele>58.267305</ele>
        <time>2022-04-16T10:07:38.000Z</time>
      </trkpt>
      <trkpt lat="35.90137" lon="-5.28802">
        <ele>58.608273</ele>
        <time>2022-04-16T10:07:40.000Z</time>
      </trkpt>
      <trkpt lat="35.90135" lon="-5.28795">
        <ele>59.100181</ele>
        <time>2022-04-16T10:07:43.000Z</time>
      </trkpt>
      <trkpt lat="35.90134" lon="-5.28792">
        <ele>59.282065</ele>
        <time>2022-04-16T10:07:44.000Z</time>
      </trkpt>
      <trkpt lat="35.90133" lon="-5.28785">
        <ele>59.804591</ele>
        <time>2022-04-16T10:07:47.000Z</time>
      </trkpt>
      <trkpt lat="35.90134" lon="-5.28778">
        <ele>60.269706</ele>
        <time>2022-04-16T10:07:50.000Z</time>
      </trkpt>
      <trkpt lat="35.90135" lon="-5.28776">
        <ele>60.433069</ele>
        <time>2022-04-16T10:07:51.000Z</time>
      </trkpt>
      <trkpt lat="35.90142" lon="-5.28767">
        <ele>61.305333</ele>
        <time>2022-04-16T10:07:56.000Z</time>
      </trkpt>
      <trkpt lat="35.90144" lon="-5.28765">
        <ele>61.507638</ele>
        <time>2022-04-16T10:07:57.000Z</time>
      </trkpt>
      <trkpt lat="35.90146" lon="-5.28764">
        <ele>61.699084</ele>
        <time>2022-04-16T10:07:58.000Z</time>
      </trkpt>
      <trkpt lat="35.90149" lon="-5.28762">
        <ele>62.04007</ele>
        <time>2022-04-16T10:08:00.000Z</time>
      </trkpt>
      <trkpt lat="35.90151" lon="-5.28761">
        <ele>62.218211</ele>
        <time>2022-04-16T10:08:01.000Z</time>
      </trkpt>
      <trkpt lat="35.90162" lon="-5.28752">
        <ele>63.269236</ele>
        <time>2022-04-16T10:08:07.000Z</time>
      </trkpt>
      <trkpt lat="35.90165" lon="-5.28749">
        <ele>63.652127</ele>
        <time>2022-04-16T10:08:09.000Z</time>
      </trkpt>
      <trkpt lat="35.9017" lon="-5.28746">
        <ele>64.143474</ele>
        <time>2022-04-16T10:08:12.000Z</time>
      </trkpt>
      <trkpt lat="35.90177" lon="-5.28737">
        <ele>64.999277</ele>
        <time>2022-04-16T10:08:17.000Z</time>
      </trkpt>
      <trkpt lat="35.90178" lon="-5.28734">
        <ele>65.178769</ele>
        <time>2022-04-16T10:08:18.000Z</time>
      </trkpt>
      <trkpt lat="35.9018" lon="-5.28721">
        <ele>66.046292</ele>
        <time>2022-04-16T10:08:24.000Z</time>
      </trkpt>
      <trkpt lat="35.9018" lon="-5.28716">
        <ele>66.323585</ele>
        <time>2022-04-16T10:08:26.000Z</time>
      </trkpt>
      <trkpt lat="35.90178" lon="-5.28708">
        <ele>66.810873</ele>
        <time>2022-04-16T10:08:29.000Z</time>
      </trkpt>
      <trkpt lat="35.90175" lon="-5.28703">
        <ele>67.207997</ele>
        <time>2022-04-16T10:08:32.000Z</time>
      </trkpt>
      <trkpt lat="35.90172" lon="-5.28699">
        <ele>67.492556</ele>
        <time>2022-04-16T10:08:34.000Z</time>
      </trkpt>
      <trkpt lat="35.90163" lon="-5.28687">
        <ele>68.468134</ele>
        <time>2022-04-16T10:08:41.000Z</time>
      </trkpt>
      <trkpt lat="35.9016" lon="-5.28684">
        <ele>68.762455</ele>
        <time>2022-04-16T10:08:43.000Z</time>
      </trkpt>
      <trkpt lat="35.90149" lon="-5.28674">
        <ele>69.707149</ele>
        <time>2022-04-16T10:08:50.000Z</time>
      </trkpt>
      <trkpt lat="35.90139" lon="-5.28666">
        <ele>70.631008</ele>
        <time>2022-04-16T10:08:56.000Z</time>
      </trkpt>
      <trkpt lat="35.90132" lon="-5.28661">
        <ele>71.20124</ele>
        <time>2022-04-16T10:09:00.000Z</time>
      </trkpt>
      <trkpt lat="35.90124" lon="-5.28656">
        <ele>71.836029</ele>
        <time>2022-04-16T10:09:05.000Z</time>
      </trkpt>
      <trkpt lat="35.90118" lon="-5.28652">
        <ele>72.3402</ele>
        <time>2022-04-16T10:09:09.000Z</time>
      </trkpt>
      <trkpt lat="35.90109" lon="-5.28645">
        <ele>73.124255</ele>
        <time>2022-04-16T10:09:14.000Z</time>
      </trkpt>
      <trkpt lat="35.901" lon="-5.2864">
        <ele>73.826002</ele>
        <time>2022-04-16T10:09:19.000Z</time>
      </trkpt>
      <trkpt lat="35.90095" lon="-5.28636">
        <ele>74.262955</ele>
        <time>2022-04-16T10:09:22.000Z</time>
      </trkpt>
      <trkpt lat="35.90088" lon="-5.28628">
        <ele>74.981043</ele>
        <time>2022-04-16T10:09:27.000Z</time>
      </trkpt>
      <trkpt lat="35.90084" lon="-5.28624">
        <ele>75.357995</ele>
        <time>2022-04-16T10:09:30.000Z</time>
      </trkpt>
      <trkpt lat="35.90079" lon="-5.28616">
        <ele>75.949731</ele>
        <time>2022-04-16T10:09:34.000Z</time>
      </trkpt>
      <trkpt lat="35.90075" lon="-5.28608">
        <ele>76.517149</ele>
        <time>2022-04-16T10:09:38.000Z</time>
      </trkpt>
      <trkpt lat="35.90071" lon="-5.28599">
        <ele>77.079718</ele>
        <time>2022-04-16T10:09:42.000Z</time>
      </trkpt>
      <trkpt lat="35.90069" lon="-5.2859">
        <ele>77.653725</ele>
        <time>2022-04-16T10:09:46.000Z</time>
      </trkpt>
      <trkpt lat="35.90071" lon="-5.28582">
        <ele>78.133744</ele>
        <time>2022-04-16T10:09:49.000Z</time>
      </trkpt>
      <trkpt lat="35.90075" lon="-5.28572">
        <ele>78.769939</ele>
        <time>2022-04-16T10:09:53.000Z</time>
      </trkpt>
      <trkpt lat="35.90079" lon="-5.28566">
        <ele>79.127496</ele>
        <time>2022-04-16T10:09:56.000Z</time>
      </trkpt>
      <trkpt lat="35.90086" lon="-5.2856">
        <ele>79.592156</ele>
        <time>2022-04-16T10:10:00.000Z</time>
      </trkpt>
      <trkpt lat="35.90088" lon="-5.28556">
        <ele>79.79171</ele>
        <time>2022-04-16T10:10:02.000Z</time>
      </trkpt>
      <trkpt lat="35.90095" lon="-5.28546">
        <ele>80.358132</ele>
        <time>2022-04-16T10:10:08.000Z</time>
      </trkpt>
      <trkpt lat="35.90095" lon="-5.28545">
        <ele>80.454484</ele>
        <time>2022-04-16T10:10:09.000Z</time>
      </trkpt>
      <trkpt lat="35.90099" lon="-5.28529">
        <ele>81.173611</ele>
        <time>2022-04-16T10:10:17.000Z</time>
      </trkpt>
      <trkpt lat="35.90099" lon="-5.28529">
        <ele>81.173611</ele>
        <time>2022-04-16T10:10:18.000Z</time>
      </trkpt>
      <trkpt lat="35.90099" lon="-5.28529">
        <ele>81.173611</ele>
        <time>2022-04-16T10:10:25.000Z</time>
      </trkpt>
      <trkpt lat="35.901" lon="-5.28528">
        <ele>81.243961</ele>
        <time>2022-04-16T10:10:28.000Z</time>
      </trkpt>
      <trkpt lat="35.90099" lon="-5.28518">
        <ele>81.719673</ele>
        <time>2022-04-16T10:10:34.000Z</time>
      </trkpt>
      <trkpt lat="35.90094" lon="-5.2851">
        <ele>82.149738</ele>
        <time>2022-04-16T10:10:38.000Z</time>
      </trkpt>
      <trkpt lat="35.90091" lon="-5.28507">
        <ele>82.401521</ele>
        <time>2022-04-16T10:10:40.000Z</time>
      </trkpt>
      <trkpt lat="35.90074" lon="-5.28497">
        <ele>83.445006</ele>
        <time>2022-04-16T10:10:48.000Z</time>
      </trkpt>
      <trkpt lat="35.90062" lon="-5.28493">
        <ele>84.121795</ele>
        <time>2022-04-16T10:10:53.000Z</time>
      </trkpt>
      <trkpt lat="35.90057" lon="-5.28492">
        <ele>84.382961</ele>
        <time>2022-04-16T10:10:55.000Z</time>
      </trkpt>
      <trkpt lat="35.90052" lon="-5.2849">
        <ele>84.669882</ele>
        <time>2022-04-16T10:10:57.000Z</time>
      </trkpt>
      <trkpt lat="35.90038" lon="-5.28481">
        <ele>85.548478</ele>
        <time>2022-04-16T10:11:03.000Z</time>
      </trkpt>
      <trkpt lat="35.90032" lon="-5.28474">
        <ele>86.016428</ele>
        <time>2022-04-16T10:11:06.000Z</time>
      </trkpt>
      <trkpt lat="35.90024" lon="-5.28455">
        <ele>87.015476</ele>
        <time>2022-04-16T10:11:12.000Z</time>
      </trkpt>
      <trkpt lat="35.90022" lon="-5.28448">
        <ele>87.341654</ele>
        <time>2022-04-16T10:11:14.000Z</time>
      </trkpt>
      <trkpt lat="35.90018" lon="-5.28431">
        <ele>88.108734</ele>
        <time>2022-04-16T10:11:19.000Z</time>
      </trkpt>
      <trkpt lat="35.90017" lon="-5.28429">
        <ele>88.246426</ele>
        <time>2022-04-16T10:11:20.000Z</time>
      </trkpt>
      <trkpt lat="35.90011" lon="-5.28407">
        <ele>89.285136</ele>
        <time>2022-04-16T10:11:28.000Z</time>
      </trkpt>
      <trkpt lat="35.90006" lon="-5.28393">
        <ele>89.983606</ele>
        <time>2022-04-16T10:11:34.000Z</time>
      </trkpt>
      <trkpt lat="35.90003" lon="-5.28384">
        <ele>90.422465</ele>
        <time>2022-04-16T10:11:38.000Z</time>
      </trkpt>
      <trkpt lat="35.89998" lon="-5.28375">
        <ele>90.937742</ele>
        <time>2022-04-16T10:11:42.000Z</time>
      </trkpt>
      <trkpt lat="35.89993" lon="-5.28364">
        <ele>91.544138</ele>
        <time>2022-04-16T10:11:47.000Z</time>
      </trkpt>
      <trkpt lat="35.89992" lon="-5.28362">
        <ele>91.652434</ele>
        <time>2022-04-16T10:11:48.000Z</time>
      </trkpt>
      <trkpt lat="35.89982" lon="-5.28348">
        <ele>92.503208</ele>
        <time>2022-04-16T10:11:56.000Z</time>
      </trkpt>
      <trkpt lat="35.8998" lon="-5.28347">
        <ele>92.616205</ele>
        <time>2022-04-16T10:11:57.000Z</time>
      </trkpt>
      <trkpt lat="35.8997" lon="-5.28337">
        <ele>93.357369</ele>
        <time>2022-04-16T10:12:03.000Z</time>
      </trkpt>
      <trkpt lat="35.89969" lon="-5.28335">
        <ele>93.48036</ele>
        <time>2022-04-16T10:12:04.000Z</time>
      </trkpt>
      <trkpt lat="35.89962" lon="-5.2832">
        <ele>94.259129</ele>
        <time>2022-04-16T10:12:11.000Z</time>
      </trkpt>
      <trkpt lat="35.89962" lon="-5.28318">
        <ele>94.366774</ele>
        <time>2022-04-16T10:12:12.000Z</time>
      </trkpt>
      <trkpt lat="35.89958" lon="-5.283">
        <ele>95.240684</ele>
        <time>2022-04-16T10:12:20.000Z</time>
      </trkpt>
      <trkpt lat="35.89958" lon="-5.28297">
        <ele>95.358854</ele>
        <time>2022-04-16T10:12:21.000Z</time>
      </trkpt>
      <trkpt lat="35.89953" lon="-5.28277">
        <ele>96.317258</ele>
        <time>2022-04-16T10:12:29.000Z</time>
      </trkpt>
      <trkpt lat="35.8995" lon="-5.28271">
        <ele>96.65741</ele>
        <time>2022-04-16T10:12:32.000Z</time>
      </trkpt>
      <trkpt lat="35.89943" lon="-5.28262">
        <ele>97.241518</ele>
        <time>2022-04-16T10:12:37.000Z</time>
      </trkpt>
      <trkpt lat="35.89929" lon="-5.28246">
        <ele>98.357949</ele>
        <time>2022-04-16T10:12:46.000Z</time>
      </trkpt>
      <trkpt lat="35.89926" lon="-5.28242">
        <ele>98.585089</ele>
        <time>2022-04-16T10:12:48.000Z</time>
      </trkpt>
      <trkpt lat="35.89922" lon="-5.28234">
        <ele>99.030656</ele>
        <time>2022-04-16T10:12:52.000Z</time>
      </trkpt>
      <trkpt lat="35.89918" lon="-5.28227">
        <ele>99.341573</ele>
        <time>2022-04-16T10:12:55.000Z</time>
      </trkpt>
      <trkpt lat="35.89912" lon="-5.28217">
        <ele>99.813205</ele>
        <time>2022-04-16T10:13:00.000Z</time>
      </trkpt>
      <trkpt lat="35.8991" lon="-5.2821">
        <ele>100.083075</ele>
        <time>2022-04-16T10:13:03.000Z</time>
      </trkpt>
      <trkpt lat="35.89905" lon="-5.28195">
        <ele>100.707792</ele>
        <time>2022-04-16T10:13:10.000Z</time>
      </trkpt>
      <trkpt lat="35.89902" lon="-5.28179">
        <ele>101.346651</ele>
        <time>2022-04-16T10:13:16.000Z</time>
      </trkpt>
      <trkpt lat="35.899" lon="-5.28171">
        <ele>101.658025</ele>
        <time>2022-04-16T10:13:19.000Z</time>
      </trkpt>
      <trkpt lat="35.89897" lon="-5.28156">
        <ele>102.225224</ele>
        <time>2022-04-16T10:13:24.000Z</time>
      </trkpt>
      <trkpt lat="35.89895" lon="-5.28151">
        <ele>102.435114</ele>
        <time>2022-04-16T10:13:26.000Z</time>
      </trkpt>
      <trkpt lat="35.89891" lon="-5.28135">
        <ele>103.070168</ele>
        <time>2022-04-16T10:13:32.000Z</time>
      </trkpt>
      <trkpt lat="35.89889" lon="-5.28125">
        <ele>103.486086</ele>
        <time>2022-04-16T10:13:36.000Z</time>
      </trkpt>
      <trkpt lat="35.8989" lon="-5.28114">
        <ele>103.878203</ele>
        <time>2022-04-16T10:13:40.000Z</time>
      </trkpt>
      <trkpt lat="35.89891" lon="-5.28103">
        <ele>104.302766</ele>
        <time>2022-04-16T10:13:44.000Z</time>
      </trkpt>
      <trkpt lat="35.89891" lon="-5.28095">
        <ele>104.612791</ele>
        <time>2022-04-16T10:13:47.000Z</time>
      </trkpt>
      <trkpt lat="35.89892" lon="-5.28084">
        <ele>105.054083</ele>
        <time>2022-04-16T10:13:52.000Z</time>
      </trkpt>
      <trkpt lat="35.89894" lon="-5.28072">
        <ele>105.49977</ele>
        <time>2022-04-16T10:13:57.000Z</time>
      </trkpt>
      <trkpt lat="35.89895" lon="-5.28066">
        <ele>105.723911</ele>
        <time>2022-04-16T10:14:00.000Z</time>
      </trkpt>
      <trkpt lat="35.89897" lon="-5.28057">
        <ele>106.108118</ele>
        <time>2022-04-16T10:14:05.000Z</time>
      </trkpt>
      <trkpt lat="35.89897" lon="-5.28053">
        <ele>106.233712</ele>
        <time>2022-04-16T10:14:07.000Z</time>
      </trkpt>
      <trkpt lat="35.89896" lon="-5.28051">
        <ele>106.303652</ele>
        <time>2022-04-16T10:14:08.000Z</time>
      </trkpt>
      <trkpt lat="35.89895" lon="-5.28041">
        <ele>106.716856</ele>
        <time>2022-04-16T10:14:14.000Z</time>
      </trkpt>
      <trkpt lat="35.89895" lon="-5.28035">
        <ele>106.919441</ele>
        <time>2022-04-16T10:14:17.000Z</time>
      </trkpt>
      <trkpt lat="35.89894" lon="-5.28032">
        <ele>107.071125</ele>
        <time>2022-04-16T10:14:22.000Z</time>
      </trkpt>
      <trkpt lat="35.89893" lon="-5.28031">
        <ele>107.105137</ele>
        <time>2022-04-16T10:14:30.000Z</time>
      </trkpt>
      <trkpt lat="35.89893" lon="-5.28031">
        <ele>107.105137</ele>
        <time>2022-04-16T10:14:37.000Z</time>
      </trkpt>
      <trkpt lat="35.89893" lon="-5.28031">
        <ele>107.105137</ele>
        <time>2022-04-16T10:14:42.000Z</time>
      </trkpt>
      <trkpt lat="35.89893" lon="-5.28031">
        <ele>107.105137</ele>
        <time>2022-04-16T10:14:45.000Z</time>
      </trkpt>
      <trkpt lat="35.89893" lon="-5.28031">
        <ele>107.105137</ele>
        <time>2022-04-16T10:15:01.000Z</time>
      </trkpt>
      <trkpt lat="35.89893" lon="-5.28031">
        <ele>107.105137</ele>
        <time>2022-04-16T10:15:04.000Z</time>
      </trkpt>
      <trkpt lat="35.89893" lon="-5.28031">
        <ele>107.105137</ele>
        <time>2022-04-16T10:15:06.000Z</time>
      </trkpt>
      <trkpt lat="35.89893" lon="-5.28031">
        <ele>107.105137</ele>
        <time>2022-04-16T10:15:08.000Z</time>
      </trkpt>
      <trkpt lat="35.89893" lon="-5.28031">
        <ele>107.105137</ele>
        <time>2022-04-16T10:15:13.000Z</time>
      </trkpt>
      <trkpt lat="35.89893" lon="-5.28031">
        <ele>107.105137</ele>
        <time>2022-04-16T10:15:16.000Z</time>
      </trkpt>
      <trkpt lat="35.89893" lon="-5.28031">
        <ele>107.105137</ele>
        <time>2022-04-16T10:15:22.000Z</time>
      </trkpt>
      <trkpt lat="35.89893" lon="-5.28031">
        <ele>107.105137</ele>
        <time>2022-04-16T10:15:28.000Z</time>
      </trkpt>
      <trkpt lat="35.89893" lon="-5.28031">
        <ele>107.105137</ele>
        <time>2022-04-16T10:15:37.000Z</time>
      </trkpt>
      <trkpt lat="35.89893" lon="-5.28031">
        <ele>107.105137</ele>
        <time>2022-04-16T10:15:39.000Z</time>
      </trkpt>
      <trkpt lat="35.89893" lon="-5.28031">
        <ele>107.105137</ele>
        <time>2022-04-16T10:15:42.000Z</time>
      </trkpt>
      <trkpt lat="35.89893" lon="-5.28031">
        <ele>107.105137</ele>
        <time>2022-04-16T10:15:45.000Z</time>
      </trkpt>
      <trkpt lat="35.89893" lon="-5.28031">
        <ele>107.105137</ele>
        <time>2022-04-16T10:15:54.000Z</time>
      </trkpt>
      <trkpt lat="35.89893" lon="-5.28031">
        <ele>107.105137</ele>
        <time>2022-04-16T10:15:59.000Z</time>
      </trkpt>
      <trkpt lat="35.89894" lon="-5.28031">
        <ele>107.139148</ele>
        <time>2022-04-16T10:16:10.000Z</time>
      </trkpt>
      <trkpt lat="35.89894" lon="-5.28031">
        <ele>107.139148</ele>
        <time>2022-04-16T10:16:14.000Z</time>
      </trkpt>
      <trkpt lat="35.89894" lon="-5.28031">
        <ele>107.145195</ele>
        <time>2022-04-16T10:16:23.000Z</time>
      </trkpt>
      <trkpt lat="35.89894" lon="-5.2803">
        <ele>107.175334</ele>
        <time>2022-04-16T10:16:25.000Z</time>
      </trkpt>
      <trkpt lat="35.89894" lon="-5.2803">
        <ele>107.175334</ele>
        <time>2022-04-16T10:16:29.000Z</time>
      </trkpt>
      <trkpt lat="35.89894" lon="-5.2803">
        <ele>107.175334</ele>
        <time>2022-04-16T10:16:33.000Z</time>
      </trkpt>
      <trkpt lat="35.89894" lon="-5.2803">
        <ele>107.175334</ele>
        <time>2022-04-16T10:17:00.000Z</time>
      </trkpt>
      <trkpt lat="35.89894" lon="-5.2803">
        <ele>107.175334</ele>
        <time>2022-04-16T10:17:09.000Z</time>
      </trkpt>
      <trkpt lat="35.89894" lon="-5.2803">
        <ele>107.175334</ele>
        <time>2022-04-16T10:17:10.000Z</time>
      </trkpt>
      <trkpt lat="35.89894" lon="-5.2803">
        <ele>107.175334</ele>
        <time>2022-04-16T10:17:14.000Z</time>
      </trkpt>
      <trkpt lat="35.89894" lon="-5.2803">
        <ele>107.175334</ele>
        <time>2022-04-16T10:17:29.000Z</time>
      </trkpt>
      <trkpt lat="35.89894" lon="-5.2803">
        <ele>107.175334</ele>
        <time>2022-04-16T10:17:33.000Z</time>
      </trkpt>
      <trkpt lat="35.89894" lon="-5.2803">
        <ele>107.175334</ele>
        <time>2022-04-16T10:17:36.000Z</time>
      </trkpt>
      <trkpt lat="35.89894" lon="-5.28029">
        <ele>107.190558</ele>
        <time>2022-04-16T10:17:38.000Z</time>
      </trkpt>
      <trkpt lat="35.89894" lon="-5.28024">
        <ele>107.381373</ele>
        <time>2022-04-16T10:17:41.000Z</time>
      </trkpt>
      <trkpt lat="35.89894" lon="-5.28024">
        <ele>107.381373</ele>
        <time>2022-04-16T10:17:43.000Z</time>
      </trkpt>
      <trkpt lat="35.89894" lon="-5.28024">
        <ele>107.381373</ele>
        <time>2022-04-16T10:17:46.000Z</time>
      </trkpt>
      <trkpt lat="35.89895" lon="-5.28022">
        <ele>107.450064</ele>
        <time>2022-04-16T10:18:07.000Z</time>
      </trkpt>
      <trkpt lat="35.89895" lon="-5.28022">
        <ele>107.450064</ele>
        <time>2022-04-16T10:18:25.000Z</time>
      </trkpt>
      <trkpt lat="35.89895" lon="-5.28022">
        <ele>107.450064</ele>
        <time>2022-04-16T10:18:31.000Z</time>
      </trkpt>
      <trkpt lat="35.89895" lon="-5.28022">
        <ele>107.450064</ele>
        <time>2022-04-16T10:18:36.000Z</time>
      </trkpt>
      <trkpt lat="35.89895" lon="-5.28022">
        <ele>107.450064</ele>
        <time>2022-04-16T10:18:41.000Z</time>
      </trkpt>
      <trkpt lat="35.89895" lon="-5.28022">
        <ele>107.450064</ele>
        <time>2022-04-16T10:18:57.000Z</time>
      </trkpt>
      <trkpt lat="35.89895" lon="-5.28022">
        <ele>107.450064</ele>
        <time>2022-04-16T10:19:10.000Z</time>
      </trkpt>
      <trkpt lat="35.89895" lon="-5.28022">
        <ele>107.450064</ele>
        <time>2022-04-16T10:19:15.000Z</time>
      </trkpt>
      <trkpt lat="35.89895" lon="-5.28022">
        <ele>107.450064</ele>
        <time>2022-04-16T10:19:20.000Z</time>
      </trkpt>
      <trkpt lat="35.89895" lon="-5.28022">
        <ele>107.450064</ele>
        <time>2022-04-16T10:19:26.000Z</time>
      </trkpt>
      <trkpt lat="35.89895" lon="-5.28022">
        <ele>107.450064</ele>
        <time>2022-04-16T10:19:35.000Z</time>
      </trkpt>
      <trkpt lat="35.89895" lon="-5.28022">
        <ele>107.450064</ele>
        <time>2022-04-16T10:19:44.000Z</time>
      </trkpt>
      <trkpt lat="35.89895" lon="-5.28023">
        <ele>107.447174</ele>
        <time>2022-04-16T10:20:47.000Z</time>
      </trkpt>
      <trkpt lat="35.89895" lon="-5.28023">
        <ele>107.446915</ele>
        <time>2022-04-16T10:20:53.000Z</time>
      </trkpt>
      <trkpt lat="35.89895" lon="-5.28023">
        <ele>107.446915</ele>
        <time>2022-04-16T10:20:55.000Z</time>
      </trkpt>
      <trkpt lat="35.89895" lon="-5.28023">
        <ele>107.446915</ele>
        <time>2022-04-16T10:20:57.000Z</time>
      </trkpt>
      <trkpt lat="35.89895" lon="-5.28023">
        <ele>107.446915</ele>
        <time>2022-04-16T10:20:58.000Z</time>
      </trkpt>
      <trkpt lat="35.89895" lon="-5.28023">
        <ele>107.446915</ele>
        <time>2022-04-16T10:21:00.000Z</time>
      </trkpt>
      <trkpt lat="35.89895" lon="-5.28023">
        <ele>107.446915</ele>
        <time>2022-04-16T10:21:06.000Z</time>
      </trkpt>
      <trkpt lat="35.89895" lon="-5.28023">
        <ele>107.446915</ele>
        <time>2022-04-16T10:21:07.000Z</time>
      </trkpt>
      <trkpt lat="35.89895" lon="-5.28023">
        <ele>107.446915</ele>
        <time>2022-04-16T10:21:30.000Z</time>
      </trkpt>
      <trkpt lat="35.89895" lon="-5.28028">
        <ele>107.435374</ele>
        <time>2022-04-16T10:21:42.000Z</time>
      </trkpt>
      <trkpt lat="35.89894" lon="-5.28029">
        <ele>107.431939</ele>
        <time>2022-04-16T10:21:43.000Z</time>
      </trkpt>
      <trkpt lat="35.89891" lon="-5.28029">
        <ele>107.422775</ele>
        <time>2022-04-16T10:21:46.000Z</time>
      </trkpt>
      <trkpt lat="35.89891" lon="-5.28029">
        <ele>107.421812</ele>
        <time>2022-04-16T10:21:47.000Z</time>
      </trkpt>
      <trkpt lat="35.89891" lon="-5.28029">
        <ele>107.421812</ele>
        <time>2022-04-16T10:21:55.000Z</time>
      </trkpt>
      <trkpt lat="35.89891" lon="-5.28029">
        <ele>107.421812</ele>
        <time>2022-04-16T10:21:56.000Z</time>
      </trkpt>
      <trkpt lat="35.89891" lon="-5.28029">
        <ele>107.421812</ele>
        <time>2022-04-16T10:22:02.000Z</time>
      </trkpt>
      <trkpt lat="35.89891" lon="-5.28029">
        <ele>107.421812</ele>
        <time>2022-04-16T10:22:07.000Z</time>
      </trkpt>
      <trkpt lat="35.89891" lon="-5.28029">
        <ele>107.421812</ele>
        <time>2022-04-16T10:22:17.000Z</time>
      </trkpt>
      <trkpt lat="35.89891" lon="-5.28029">
        <ele>107.421812</ele>
        <time>2022-04-16T10:22:27.000Z</time>
      </trkpt>
      <trkpt lat="35.89891" lon="-5.28029">
        <ele>107.421292</ele>
        <time>2022-04-16T10:22:35.000Z</time>
      </trkpt>
      <trkpt lat="35.89891" lon="-5.28029">
        <ele>107.420205</ele>
        <time>2022-04-16T10:22:36.000Z</time>
      </trkpt>
      <trkpt lat="35.8989" lon="-5.28026">
        <ele>107.413039</ele>
        <time>2022-04-16T10:22:37.000Z</time>
      </trkpt>
      <trkpt lat="35.89884" lon="-5.28018">
        <ele>107.383554</ele>
        <time>2022-04-16T10:22:41.000Z</time>
      </trkpt>
      <trkpt lat="35.89881" lon="-5.28016">
        <ele>107.374128</ele>
        <time>2022-04-16T10:22:42.000Z</time>
      </trkpt>
      <trkpt lat="35.89866" lon="-5.28012">
        <ele>107.324981</ele>
        <time>2022-04-16T10:22:48.000Z</time>
      </trkpt>
      <trkpt lat="35.89861" lon="-5.2801">
        <ele>107.307478</ele>
        <time>2022-04-16T10:22:50.000Z</time>
      </trkpt>
      <trkpt lat="35.89848" lon="-5.2801">
        <ele>107.265446</ele>
        <time>2022-04-16T10:22:55.000Z</time>
      </trkpt>
      <trkpt lat="35.89845" lon="-5.28011">
        <ele>107.25637</ele>
        <time>2022-04-16T10:22:56.000Z</time>
      </trkpt>
      <trkpt lat="35.89832" lon="-5.28016">
        <ele>107.214746</ele>
        <time>2022-04-16T10:23:00.000Z</time>
      </trkpt>
      <trkpt lat="35.89829" lon="-5.28017">
        <ele>107.203248</ele>
        <time>2022-04-16T10:23:01.000Z</time>
      </trkpt>
      <trkpt lat="35.89822" lon="-5.2802">
        <ele>107.177792</ele>
        <time>2022-04-16T10:23:03.000Z</time>
      </trkpt>
      <trkpt lat="35.89795" lon="-5.2803">
        <ele>107.088434</ele>
        <time>2022-04-16T10:23:11.000Z</time>
      </trkpt>
      <trkpt lat="35.89776" lon="-5.28033">
        <ele>107.026443</ele>
        <time>2022-04-16T10:23:18.000Z</time>
      </trkpt>
      <trkpt lat="35.89756" lon="-5.28041">
        <ele>106.961009</ele>
        <time>2022-04-16T10:23:26.000Z</time>
      </trkpt>
      <trkpt lat="35.89751" lon="-5.28049">
        <ele>106.933949</ele>
        <time>2022-04-16T10:23:30.000Z</time>
      </trkpt>
      <trkpt lat="35.8975" lon="-5.28051">
        <ele>106.927274</ele>
        <time>2022-04-16T10:23:31.000Z</time>
      </trkpt>
      <trkpt lat="35.89749" lon="-5.28052">
        <ele>106.924849</ele>
        <time>2022-04-16T10:23:32.000Z</time>
      </trkpt>
      <trkpt lat="35.89749" lon="-5.28052">
        <ele>106.924023</ele>
        <time>2022-04-16T10:23:36.000Z</time>
      </trkpt>
      <trkpt lat="35.89749" lon="-5.28052">
        <ele>106.924023</ele>
        <time>2022-04-16T10:23:38.000Z</time>
      </trkpt>
      <trkpt lat="35.89749" lon="-5.28054">
        <ele>106.920008</ele>
        <time>2022-04-16T10:23:42.000Z</time>
      </trkpt>
      <trkpt lat="35.89749" lon="-5.28056">
        <ele>106.914513</ele>
        <time>2022-04-16T10:23:43.000Z</time>
      </trkpt>
      <trkpt lat="35.89749" lon="-5.28061">
        <ele>106.900481</ele>
        <time>2022-04-16T10:23:45.000Z</time>
      </trkpt>
      <trkpt lat="35.89746" lon="-5.28068">
        <ele>106.879013</ele>
        <time>2022-04-16T10:23:49.000Z</time>
      </trkpt>
      <trkpt lat="35.89744" lon="-5.28068">
        <ele>106.875154</ele>
        <time>2022-04-16T10:23:53.000Z</time>
      </trkpt>
      <trkpt lat="35.89745" lon="-5.28064">
        <ele>106.86622</ele>
        <time>2022-04-16T10:24:02.000Z</time>
      </trkpt>
      <trkpt lat="35.89746" lon="-5.28062">
        <ele>106.861013</ele>
        <time>2022-04-16T10:24:03.000Z</time>
      </trkpt>
      <trkpt lat="35.89752" lon="-5.28053">
        <ele>106.831529</ele>
        <time>2022-04-16T10:24:09.000Z</time>
      </trkpt>
      <trkpt lat="35.8975" lon="-5.28051">
        <ele>106.824339</ele>
        <time>2022-04-16T10:24:13.000Z</time>
      </trkpt>
      <trkpt lat="35.8975" lon="-5.28051">
        <ele>106.824339</ele>
        <time>2022-04-16T10:24:25.000Z</time>
      </trkpt>
      <trkpt lat="35.8975" lon="-5.28051">
        <ele>106.824339</ele>
        <time>2022-04-16T10:24:30.000Z</time>
      </trkpt>
      <trkpt lat="35.8975" lon="-5.28051">
        <ele>106.824339</ele>
        <time>2022-04-16T10:24:34.000Z</time>
      </trkpt>
      <trkpt lat="35.8975" lon="-5.28051">
        <ele>106.824339</ele>
        <time>2022-04-16T10:24:35.000Z</time>
      </trkpt>
      <trkpt lat="35.8975" lon="-5.28051">
        <ele>106.823087</ele>
        <time>2022-04-16T10:24:40.000Z</time>
      </trkpt>
      <trkpt lat="35.89749" lon="-5.28057">
        <ele>106.808727</ele>
        <time>2022-04-16T10:24:42.000Z</time>
      </trkpt>
      <trkpt lat="35.89747" lon="-5.28063">
        <ele>106.793728</ele>
        <time>2022-04-16T10:24:44.000Z</time>
      </trkpt>
      <trkpt lat="35.89744" lon="-5.28076">
        <ele>106.759629</ele>
        <time>2022-04-16T10:24:48.000Z</time>
      </trkpt>
      <trkpt lat="35.89749" lon="-5.28092">
        <ele>106.718137</ele>
        <time>2022-04-16T10:24:53.000Z</time>
      </trkpt>
      <trkpt lat="35.89767" lon="-5.28104">
        <ele>106.65785</ele>
        <time>2022-04-16T10:24:59.000Z</time>
      </trkpt>
      <trkpt lat="35.89773" lon="-5.28109">
        <ele>106.63537</ele>
        <time>2022-04-16T10:25:01.000Z</time>
      </trkpt>
      <trkpt lat="35.89783" lon="-5.28122">
        <ele>106.591745</ele>
        <time>2022-04-16T10:25:05.000Z</time>
      </trkpt>
      <trkpt lat="35.89789" lon="-5.2813">
        <ele>106.566762</ele>
        <time>2022-04-16T10:25:07.000Z</time>
      </trkpt>
      <trkpt lat="35.89802" lon="-5.28148">
        <ele>106.506576</ele>
        <time>2022-04-16T10:25:12.000Z</time>
      </trkpt>
      <trkpt lat="35.89817" lon="-5.28166">
        <ele>106.443907</ele>
        <time>2022-04-16T10:25:17.000Z</time>
      </trkpt>
      <trkpt lat="35.8982" lon="-5.2817">
        <ele>106.431004</ele>
        <time>2022-04-16T10:25:18.000Z</time>
      </trkpt>
      <trkpt lat="35.89848" lon="-5.2819">
        <ele>106.331849</ele>
        <time>2022-04-16T10:25:26.000Z</time>
      </trkpt>
      <trkpt lat="35.89871" lon="-5.28205">
        <ele>106.072518</ele>
        <time>2022-04-16T10:25:32.000Z</time>
      </trkpt>
      <trkpt lat="35.89878" lon="-5.28212">
        <ele>105.986441</ele>
        <time>2022-04-16T10:25:34.000Z</time>
      </trkpt>
      <trkpt lat="35.89887" lon="-5.28223">
        <ele>105.859764</ele>
        <time>2022-04-16T10:25:37.000Z</time>
      </trkpt>
      <trkpt lat="35.89892" lon="-5.28231">
        <ele>105.774619</ele>
        <time>2022-04-16T10:25:39.000Z</time>
      </trkpt>
      <trkpt lat="35.89894" lon="-5.28236">
        <ele>105.730082</ele>
        <time>2022-04-16T10:25:40.000Z</time>
      </trkpt>
      <trkpt lat="35.89896" lon="-5.28241">
        <ele>105.685349</ele>
        <time>2022-04-16T10:25:41.000Z</time>
      </trkpt>
      <trkpt lat="35.89898" lon="-5.28245">
        <ele>105.641101</ele>
        <time>2022-04-16T10:25:42.000Z</time>
      </trkpt>
      <trkpt lat="35.89908" lon="-5.28268">
        <ele>105.431698</ele>
        <time>2022-04-16T10:25:47.000Z</time>
      </trkpt>
      <trkpt lat="35.89913" lon="-5.2828">
        <ele>105.324165</ele>
        <time>2022-04-16T10:25:50.000Z</time>
      </trkpt>
      <trkpt lat="35.89922" lon="-5.283">
        <ele>105.136204</ele>
        <time>2022-04-16T10:25:56.000Z</time>
      </trkpt>
      <trkpt lat="35.89927" lon="-5.28315">
        <ele>105.008731</ele>
        <time>2022-04-16T10:26:00.000Z</time>
      </trkpt>
      <trkpt lat="35.89932" lon="-5.28325">
        <ele>104.910719</ele>
        <time>2022-04-16T10:26:03.000Z</time>
      </trkpt>
      <trkpt lat="35.89936" lon="-5.28334">
        <ele>104.826958</ele>
        <time>2022-04-16T10:26:06.000Z</time>
      </trkpt>
      <trkpt lat="35.89937" lon="-5.28338">
        <ele>104.799138</ele>
        <time>2022-04-16T10:26:07.000Z</time>
      </trkpt>
      <trkpt lat="35.8994" lon="-5.28347">
        <ele>104.715299</ele>
        <time>2022-04-16T10:26:10.000Z</time>
      </trkpt>
      <trkpt lat="35.89948" lon="-5.28364">
        <ele>104.556386</ele>
        <time>2022-04-16T10:26:15.000Z</time>
      </trkpt>
      <trkpt lat="35.89952" lon="-5.28375">
        <ele>104.438779</ele>
        <time>2022-04-16T10:26:18.000Z</time>
      </trkpt>
      <trkpt lat="35.89956" lon="-5.28396">
        <ele>104.211725</ele>
        <time>2022-04-16T10:26:23.000Z</time>
      </trkpt>
      <trkpt lat="35.89957" lon="-5.284">
        <ele>104.163628</ele>
        <time>2022-04-16T10:26:24.000Z</time>
      </trkpt>
      <trkpt lat="35.89959" lon="-5.28414">
        <ele>104.020965</ele>
        <time>2022-04-16T10:26:27.000Z</time>
      </trkpt>
      <trkpt lat="35.89959" lon="-5.28427">
        <ele>103.879547</ele>
        <time>2022-04-16T10:26:30.000Z</time>
      </trkpt>
      <trkpt lat="35.89959" lon="-5.28431">
        <ele>103.841491</ele>
        <time>2022-04-16T10:26:31.000Z</time>
      </trkpt>
      <trkpt lat="35.89958" lon="-5.28479">
        <ele>103.333608</ele>
        <time>2022-04-16T10:26:41.000Z</time>
      </trkpt>
      <trkpt lat="35.89957" lon="-5.28487">
        <ele>103.241624</ele>
        <time>2022-04-16T10:26:43.000Z</time>
      </trkpt>
      <trkpt lat="35.89953" lon="-5.28505">
        <ele>103.047109</ele>
        <time>2022-04-16T10:26:48.000Z</time>
      </trkpt>
      <trkpt lat="35.89951" lon="-5.28511">
        <ele>102.977649</ele>
        <time>2022-04-16T10:26:50.000Z</time>
      </trkpt>
      <trkpt lat="35.89951" lon="-5.28515">
        <ele>102.942458</ele>
        <time>2022-04-16T10:26:51.000Z</time>
      </trkpt>
      <trkpt lat="35.89952" lon="-5.28518">
        <ele>102.911189</ele>
        <time>2022-04-16T10:26:52.000Z</time>
      </trkpt>
      <trkpt lat="35.89953" lon="-5.28525">
        <ele>102.835903</ele>
        <time>2022-04-16T10:26:56.000Z</time>
      </trkpt>
      <trkpt lat="35.89953" lon="-5.28529">
        <ele>102.792663</ele>
        <time>2022-04-16T10:27:01.000Z</time>
      </trkpt>
      <trkpt lat="35.89953" lon="-5.28527">
        <ele>102.77368</ele>
        <time>2022-04-16T10:27:06.000Z</time>
      </trkpt>
      <trkpt lat="35.89952" lon="-5.28527">
        <ele>102.765797</ele>
        <time>2022-04-16T10:27:08.000Z</time>
      </trkpt>
      <trkpt lat="35.89952" lon="-5.28527">
        <ele>102.765797</ele>
        <time>2022-04-16T10:27:10.000Z</time>
      </trkpt>
      <trkpt lat="35.89952" lon="-5.28527">
        <ele>102.764121</ele>
        <time>2022-04-16T10:27:11.000Z</time>
      </trkpt>
      <trkpt lat="35.89949" lon="-5.2853">
        <ele>102.71656</ele>
        <time>2022-04-16T10:27:13.000Z</time>
      </trkpt>
      <trkpt lat="35.89945" lon="-5.28535">
        <ele>102.639858</ele>
        <time>2022-04-16T10:27:15.000Z</time>
      </trkpt>
      <trkpt lat="35.8994" lon="-5.2854">
        <ele>102.553952</ele>
        <time>2022-04-16T10:27:17.000Z</time>
      </trkpt>
      <trkpt lat="35.89937" lon="-5.28542">
        <ele>102.505743</ele>
        <time>2022-04-16T10:27:18.000Z</time>
      </trkpt>
      <trkpt lat="35.89925" lon="-5.28548">
        <ele>102.347614</ele>
        <time>2022-04-16T10:27:21.000Z</time>
      </trkpt>
      <trkpt lat="35.89913" lon="-5.28552">
        <ele>102.17</ele>
        <time>2022-04-16T10:27:24.000Z</time>
      </trkpt>
      <trkpt lat="35.89879" lon="-5.28565">
        <ele>101.320693</ele>
        <time>2022-04-16T10:27:31.000Z</time>
      </trkpt>
      <trkpt lat="35.89871" lon="-5.28572">
        <ele>101.077517</ele>
        <time>2022-04-16T10:27:33.000Z</time>
      </trkpt>
      <trkpt lat="35.89858" lon="-5.28585">
        <ele>100.660855</ele>
        <time>2022-04-16T10:27:36.000Z</time>
      </trkpt>
      <trkpt lat="35.89854" lon="-5.2859">
        <ele>100.518159</ele>
        <time>2022-04-16T10:27:37.000Z</time>
      </trkpt>
      <trkpt lat="35.89827" lon="-5.28617">
        <ele>99.691907</ele>
        <time>2022-04-16T10:27:43.000Z</time>
      </trkpt>
      <trkpt lat="35.89812" lon="-5.28625">
        <ele>99.285774</ele>
        <time>2022-04-16T10:27:46.000Z</time>
      </trkpt>
      <trkpt lat="35.89801" lon="-5.28627">
        <ele>99.006478</ele>
        <time>2022-04-16T10:27:48.000Z</time>
      </trkpt>
      <trkpt lat="35.8979" lon="-5.28625">
        <ele>98.737073</ele>
        <time>2022-04-16T10:27:50.000Z</time>
      </trkpt>
      <trkpt lat="35.89785" lon="-5.28623">
        <ele>98.608724</ele>
        <time>2022-04-16T10:27:51.000Z</time>
      </trkpt>
      <trkpt lat="35.8978" lon="-5.2862">
        <ele>98.483563</ele>
        <time>2022-04-16T10:27:52.000Z</time>
      </trkpt>
      <trkpt lat="35.89771" lon="-5.28614">
        <ele>98.220888</ele>
        <time>2022-04-16T10:27:56.000Z</time>
      </trkpt>
      <trkpt lat="35.89768" lon="-5.28612">
        <ele>98.144169</ele>
        <time>2022-04-16T10:28:00.000Z</time>
      </trkpt>
      <trkpt lat="35.8976" lon="-5.28601">
        <ele>97.848236</ele>
        <time>2022-04-16T10:28:05.000Z</time>
      </trkpt>
      <trkpt lat="35.89758" lon="-5.28597">
        <ele>97.706762</ele>
        <time>2022-04-16T10:28:06.000Z</time>
      </trkpt>
      <trkpt lat="35.89752" lon="-5.28578">
        <ele>96.858461</ele>
        <time>2022-04-16T10:28:10.000Z</time>
      </trkpt>
      <trkpt lat="35.89749" lon="-5.28566">
        <ele>96.346033</ele>
        <time>2022-04-16T10:28:12.000Z</time>
      </trkpt>
      <trkpt lat="35.89744" lon="-5.28554">
        <ele>95.804077</ele>
        <time>2022-04-16T10:28:14.000Z</time>
      </trkpt>
      <trkpt lat="35.89741" lon="-5.28548">
        <ele>95.523649</ele>
        <time>2022-04-16T10:28:15.000Z</time>
      </trkpt>
      <trkpt lat="35.89737" lon="-5.28543">
        <ele>95.246649</ele>
        <time>2022-04-16T10:28:16.000Z</time>
      </trkpt>
      <trkpt lat="35.89729" lon="-5.28533">
        <ele>94.691732</ele>
        <time>2022-04-16T10:28:18.000Z</time>
      </trkpt>
      <trkpt lat="35.89725" lon="-5.28529">
        <ele>94.429223</ele>
        <time>2022-04-16T10:28:19.000Z</time>
      </trkpt>
      <trkpt lat="35.89721" lon="-5.28525">
        <ele>94.174417</ele>
        <time>2022-04-16T10:28:20.000Z</time>
      </trkpt>
      <trkpt lat="35.89713" lon="-5.28519">
        <ele>93.685066</ele>
        <time>2022-04-16T10:28:22.000Z</time>
      </trkpt>
      <trkpt lat="35.89704" lon="-5.28515">
        <ele>93.243155</ele>
        <time>2022-04-16T10:28:24.000Z</time>
      </trkpt>
      <trkpt lat="35.89696" lon="-5.28516">
        <ele>92.802778</ele>
        <time>2022-04-16T10:28:26.000Z</time>
      </trkpt>
      <trkpt lat="35.89688" lon="-5.2852">
        <ele>92.3769</ele>
        <time>2022-04-16T10:28:28.000Z</time>
      </trkpt>
      <trkpt lat="35.89679" lon="-5.2853">
        <ele>91.776973</ele>
        <time>2022-04-16T10:28:31.000Z</time>
      </trkpt>
      <trkpt lat="35.89676" lon="-5.28533">
        <ele>91.590404</ele>
        <time>2022-04-16T10:28:33.000Z</time>
      </trkpt>
      <trkpt lat="35.89675" lon="-5.28533">
        <ele>91.553362</ele>
        <time>2022-04-16T10:28:37.000Z</time>
      </trkpt>
      <trkpt lat="35.89673" lon="-5.28536">
        <ele>91.423857</ele>
        <time>2022-04-16T10:28:39.000Z</time>
      </trkpt>
      <trkpt lat="35.89669" lon="-5.2854">
        <ele>91.142052</ele>
        <time>2022-04-16T10:28:41.000Z</time>
      </trkpt>
      <trkpt lat="35.89663" lon="-5.28547">
        <ele>90.742969</ele>
        <time>2022-04-16T10:28:43.000Z</time>
      </trkpt>
      <trkpt lat="35.89653" lon="-5.28558">
        <ele>90.053042</ele>
        <time>2022-04-16T10:28:46.000Z</time>
      </trkpt>
      <trkpt lat="35.89649" lon="-5.28561">
        <ele>89.812538</ele>
        <time>2022-04-16T10:28:47.000Z</time>
      </trkpt>
      <trkpt lat="35.89636" lon="-5.28567">
        <ele>89.10134</ele>
        <time>2022-04-16T10:28:50.000Z</time>
      </trkpt>
      <trkpt lat="35.89631" lon="-5.28568">
        <ele>88.864683</ele>
        <time>2022-04-16T10:28:51.000Z</time>
      </trkpt>
      <trkpt lat="35.89626" lon="-5.28569">
        <ele>88.628845</ele>
        <time>2022-04-16T10:28:52.000Z</time>
      </trkpt>
      <trkpt lat="35.89616" lon="-5.28571">
        <ele>88.120824</ele>
        <time>2022-04-16T10:28:54.000Z</time>
      </trkpt>
      <trkpt lat="35.89606" lon="-5.28577">
        <ele>87.621241</ele>
        <time>2022-04-16T10:28:56.000Z</time>
      </trkpt>
      <trkpt lat="35.89602" lon="-5.28581">
        <ele>87.368686</ele>
        <time>2022-04-16T10:28:57.000Z</time>
      </trkpt>
      <trkpt lat="35.89594" lon="-5.28589">
        <ele>86.890861</ele>
        <time>2022-04-16T10:28:59.000Z</time>
      </trkpt>
      <trkpt lat="35.89581" lon="-5.28602">
        <ele>86.087884</ele>
        <time>2022-04-16T10:29:02.000Z</time>
      </trkpt>
      <trkpt lat="35.8956" lon="-5.28612">
        <ele>85.023166</ele>
        <time>2022-04-16T10:29:06.000Z</time>
      </trkpt>
      <trkpt lat="35.89554" lon="-5.28613">
        <ele>84.744989</ele>
        <time>2022-04-16T10:29:07.000Z</time>
      </trkpt>
      <trkpt lat="35.8953" lon="-5.28621">
        <ele>83.593542</ele>
        <time>2022-04-16T10:29:11.000Z</time>
      </trkpt>
      <trkpt lat="35.89525" lon="-5.28622">
        <ele>83.31153</ele>
        <time>2022-04-16T10:29:12.000Z</time>
      </trkpt>
      <trkpt lat="35.89519" lon="-5.28622">
        <ele>83.060079</ele>
        <time>2022-04-16T10:29:13.000Z</time>
      </trkpt>
      <trkpt lat="35.89515" lon="-5.2862">
        <ele>82.84453</ele>
        <time>2022-04-16T10:29:14.000Z</time>
      </trkpt>
      <trkpt lat="35.89512" lon="-5.28619">
        <ele>82.682378</ele>
        <time>2022-04-16T10:29:15.000Z</time>
      </trkpt>
      <trkpt lat="35.89509" lon="-5.28618">
        <ele>82.542202</ele>
        <time>2022-04-16T10:29:17.000Z</time>
      </trkpt>
      <trkpt lat="35.89506" lon="-5.28617">
        <ele>82.429603</ele>
        <time>2022-04-16T10:29:19.000Z</time>
      </trkpt>
      <trkpt lat="35.89502" lon="-5.2861">
        <ele>82.085849</ele>
        <time>2022-04-16T10:29:22.000Z</time>
      </trkpt>
      <trkpt lat="35.89495" lon="-5.28592">
        <ele>81.307496</ele>
        <time>2022-04-16T10:29:26.000Z</time>
      </trkpt>
      <trkpt lat="35.89493" lon="-5.28587">
        <ele>81.088278</ele>
        <time>2022-04-16T10:29:27.000Z</time>
      </trkpt>
      <trkpt lat="35.89486" lon="-5.28569">
        <ele>80.332702</ele>
        <time>2022-04-16T10:29:31.000Z</time>
      </trkpt>
      <trkpt lat="35.89484" lon="-5.28562">
        <ele>80.190293</ele>
        <time>2022-04-16T10:29:33.000Z</time>
      </trkpt>
      <trkpt lat="35.89476" lon="-5.28542">
        <ele>79.832442</ele>
        <time>2022-04-16T10:29:39.000Z</time>
      </trkpt>
      <trkpt lat="35.89474" lon="-5.2854">
        <ele>79.778423</ele>
        <time>2022-04-16T10:29:40.000Z</time>
      </trkpt>
      <trkpt lat="35.89465" lon="-5.28534">
        <ele>79.5685</ele>
        <time>2022-04-16T10:29:44.000Z</time>
      </trkpt>
      <trkpt lat="35.89456" lon="-5.28537">
        <ele>79.374603</ele>
        <time>2022-04-16T10:29:47.000Z</time>
      </trkpt>
      <trkpt lat="35.89452" lon="-5.28541">
        <ele>79.292513</ele>
        <time>2022-04-16T10:29:48.000Z</time>
      </trkpt>
      <trkpt lat="35.8943" lon="-5.28565">
        <ele>78.703842</ele>
        <time>2022-04-16T10:29:54.000Z</time>
      </trkpt>
      <trkpt lat="35.89415" lon="-5.28578">
        <ele>78.340225</ele>
        <time>2022-04-16T10:29:58.000Z</time>
      </trkpt>
      <trkpt lat="35.89406" lon="-5.28589">
        <ele>78.092269</ele>
        <time>2022-04-16T10:30:01.000Z</time>
      </trkpt>
      <trkpt lat="35.89393" lon="-5.28602">
        <ele>77.75054</ele>
        <time>2022-04-16T10:30:05.000Z</time>
      </trkpt>
      <trkpt lat="35.89374" lon="-5.28622">
        <ele>77.251288</ele>
        <time>2022-04-16T10:30:11.000Z</time>
      </trkpt>
      <trkpt lat="35.89351" lon="-5.28645">
        <ele>76.673339</ele>
        <time>2022-04-16T10:30:19.000Z</time>
      </trkpt>
      <trkpt lat="35.8933" lon="-5.28668">
        <ele>76.301283</ele>
        <time>2022-04-16T10:30:26.000Z</time>
      </trkpt>
      <trkpt lat="35.89308" lon="-5.28688">
        <ele>75.936279</ele>
        <time>2022-04-16T10:30:32.000Z</time>
      </trkpt>
      <trkpt lat="35.89274" lon="-5.28719">
        <ele>75.369168</ele>
        <time>2022-04-16T10:30:42.000Z</time>
      </trkpt>
      <trkpt lat="35.89254" lon="-5.28749">
        <ele>74.94706</ele>
        <time>2022-04-16T10:30:49.000Z</time>
      </trkpt>
      <trkpt lat="35.89251" lon="-5.28753">
        <ele>74.88874</ele>
        <time>2022-04-16T10:30:50.000Z</time>
      </trkpt>
      <trkpt lat="35.89225" lon="-5.28785">
        <ele>74.400545</ele>
        <time>2022-04-16T10:30:58.000Z</time>
      </trkpt>
      <trkpt lat="35.8922" lon="-5.28793">
        <ele>74.236372</ele>
        <time>2022-04-16T10:31:00.000Z</time>
      </trkpt>
      <trkpt lat="35.89215" lon="-5.28805">
        <ele>73.75024</ele>
        <time>2022-04-16T10:31:03.000Z</time>
      </trkpt>
      <trkpt lat="35.89214" lon="-5.28808">
        <ele>73.616395</ele>
        <time>2022-04-16T10:31:04.000Z</time>
      </trkpt>
      <trkpt lat="35.89214" lon="-5.28814">
        <ele>73.402341</ele>
        <time>2022-04-16T10:31:08.000Z</time>
      </trkpt>
      <trkpt lat="35.89214" lon="-5.28814">
        <ele>73.402341</ele>
        <time>2022-04-16T10:31:16.000Z</time>
      </trkpt>
      <trkpt lat="35.89214" lon="-5.28814">
        <ele>73.402341</ele>
        <time>2022-04-16T10:31:18.000Z</time>
      </trkpt>
      <trkpt lat="35.89214" lon="-5.28814">
        <ele>73.402341</ele>
        <time>2022-04-16T10:31:26.000Z</time>
      </trkpt>
      <trkpt lat="35.89214" lon="-5.28814">
        <ele>73.402341</ele>
        <time>2022-04-16T10:31:37.000Z</time>
      </trkpt>
      <trkpt lat="35.89214" lon="-5.28814">
        <ele>73.402341</ele>
        <time>2022-04-16T10:31:40.000Z</time>
      </trkpt>
      <trkpt lat="35.89214" lon="-5.2882">
        <ele>73.170334</ele>
        <time>2022-04-16T10:31:52.000Z</time>
      </trkpt>
      <trkpt lat="35.89214" lon="-5.28845">
        <ele>72.230855</ele>
        <time>2022-04-16T10:31:58.000Z</time>
      </trkpt>
      <trkpt lat="35.89213" lon="-5.28861">
        <ele>71.632965</ele>
        <time>2022-04-16T10:32:02.000Z</time>
      </trkpt>
      <trkpt lat="35.89211" lon="-5.2887">
        <ele>71.279923</ele>
        <time>2022-04-16T10:32:05.000Z</time>
      </trkpt>
      <trkpt lat="35.89208" lon="-5.28886">
        <ele>70.679138</ele>
        <time>2022-04-16T10:32:09.000Z</time>
      </trkpt>
      <trkpt lat="35.89207" lon="-5.28896">
        <ele>70.289818</ele>
        <time>2022-04-16T10:32:11.000Z</time>
      </trkpt>
      <trkpt lat="35.89205" lon="-5.28913">
        <ele>69.65014</ele>
        <time>2022-04-16T10:32:14.000Z</time>
      </trkpt>
      <trkpt lat="35.89207" lon="-5.2893">
        <ele>69.004386</ele>
        <time>2022-04-16T10:32:17.000Z</time>
      </trkpt>
      <trkpt lat="35.8921" lon="-5.28939">
        <ele>68.640087</ele>
        <time>2022-04-16T10:32:19.000Z</time>
      </trkpt>
      <trkpt lat="35.89218" lon="-5.28955">
        <ele>67.914164</ele>
        <time>2022-04-16T10:32:23.000Z</time>
      </trkpt>
      <trkpt lat="35.89222" lon="-5.28963">
        <ele>67.554972</ele>
        <time>2022-04-16T10:32:25.000Z</time>
      </trkpt>
      <trkpt lat="35.89225" lon="-5.28967">
        <ele>67.383416</ele>
        <time>2022-04-16T10:32:26.000Z</time>
      </trkpt>
      <trkpt lat="35.89234" lon="-5.28983">
        <ele>66.64426</ele>
        <time>2022-04-16T10:32:30.000Z</time>
      </trkpt>
      <trkpt lat="35.89237" lon="-5.28987">
        <ele>66.434928</ele>
        <time>2022-04-16T10:32:31.000Z</time>
      </trkpt>
      <trkpt lat="35.89243" lon="-5.28997">
        <ele>65.992507</ele>
        <time>2022-04-16T10:32:33.000Z</time>
      </trkpt>
      <trkpt lat="35.89253" lon="-5.29014">
        <ele>66.02469</ele>
        <time>2022-04-16T10:32:36.000Z</time>
      </trkpt>
      <trkpt lat="35.89258" lon="-5.29024">
        <ele>66.042924</ele>
        <time>2022-04-16T10:32:38.000Z</time>
      </trkpt>
      <trkpt lat="35.89262" lon="-5.29034">
        <ele>66.05951</ele>
        <time>2022-04-16T10:32:40.000Z</time>
      </trkpt>
      <trkpt lat="35.89264" lon="-5.29043">
        <ele>66.073122</ele>
        <time>2022-04-16T10:32:42.000Z</time>
      </trkpt>
      <trkpt lat="35.89266" lon="-5.29057">
        <ele>66.09583</ele>
        <time>2022-04-16T10:32:45.000Z</time>
      </trkpt>
      <trkpt lat="35.89265" lon="-5.29067">
        <ele>66.110403</ele>
        <time>2022-04-16T10:32:47.000Z</time>
      </trkpt>
      <trkpt lat="35.89264" lon="-5.29072">
        <ele>66.118191</ele>
        <time>2022-04-16T10:32:48.000Z</time>
      </trkpt>
      <trkpt lat="35.89262" lon="-5.29077">
        <ele>66.127356</ele>
        <time>2022-04-16T10:32:49.000Z</time>
      </trkpt>
      <trkpt lat="35.89258" lon="-5.29085">
        <ele>66.141334</ele>
        <time>2022-04-16T10:32:51.000Z</time>
      </trkpt>
      <trkpt lat="35.89253" lon="-5.29091">
        <ele>66.154464</ele>
        <time>2022-04-16T10:32:53.000Z</time>
      </trkpt>
      <trkpt lat="35.89244" lon="-5.29103">
        <ele>66.178401</ele>
        <time>2022-04-16T10:32:58.000Z</time>
      </trkpt>
      <trkpt lat="35.89241" lon="-5.29104">
        <ele>66.184248</ele>
        <time>2022-04-16T10:33:01.000Z</time>
      </trkpt>
      <trkpt lat="35.89238" lon="-5.29109">
        <ele>66.194178</ele>
        <time>2022-04-16T10:33:04.000Z</time>
      </trkpt>
      <trkpt lat="35.89234" lon="-5.29117">
        <ele>66.208855</ele>
        <time>2022-04-16T10:33:07.000Z</time>
      </trkpt>
      <trkpt lat="35.89228" lon="-5.29124">
        <ele>66.223635</ele>
        <time>2022-04-16T10:33:10.000Z</time>
      </trkpt>
      <trkpt lat="35.8921" lon="-5.2915">
        <ele>66.275098</ele>
        <time>2022-04-16T10:33:18.000Z</time>
      </trkpt>
      <trkpt lat="35.89194" lon="-5.29171">
        <ele>66.319655</ele>
        <time>2022-04-16T10:33:24.000Z</time>
      </trkpt>
      <trkpt lat="35.89192" lon="-5.29175">
        <ele>66.326753</ele>
        <time>2022-04-16T10:33:25.000Z</time>
      </trkpt>
      <trkpt lat="35.89179" lon="-5.29182">
        <ele>66.102569</ele>
        <time>2022-04-16T10:33:29.000Z</time>
      </trkpt>
      <trkpt lat="35.89159" lon="-5.29173">
        <ele>65.720675</ele>
        <time>2022-04-16T10:33:34.000Z</time>
      </trkpt>
      <trkpt lat="35.89136" lon="-5.29159">
        <ele>65.268332</ele>
        <time>2022-04-16T10:33:40.000Z</time>
      </trkpt>
      <trkpt lat="35.89129" lon="-5.29155">
        <ele>65.135872</ele>
        <time>2022-04-16T10:33:42.000Z</time>
      </trkpt>
      <trkpt lat="35.89125" lon="-5.29154">
        <ele>65.063126</ele>
        <time>2022-04-16T10:33:43.000Z</time>
      </trkpt>
      <trkpt lat="35.89121" lon="-5.29154">
        <ele>64.989917</ele>
        <time>2022-04-16T10:33:44.000Z</time>
      </trkpt>
      <trkpt lat="35.89104" lon="-5.29159">
        <ele>64.686979</ele>
        <time>2022-04-16T10:33:48.000Z</time>
      </trkpt>
      <trkpt lat="35.89087" lon="-5.29177">
        <ele>64.272642</ele>
        <time>2022-04-16T10:33:54.000Z</time>
      </trkpt>
      <trkpt lat="35.89084" lon="-5.2918">
        <ele>64.208847</ele>
        <time>2022-04-16T10:33:55.000Z</time>
      </trkpt>
      <trkpt lat="35.89068" lon="-5.292">
        <ele>63.797374</ele>
        <time>2022-04-16T10:34:00.000Z</time>
      </trkpt>
      <trkpt lat="35.89052" lon="-5.29222">
        <ele>63.374593</ele>
        <time>2022-04-16T10:34:04.000Z</time>
      </trkpt>
      <trkpt lat="35.89041" lon="-5.29238">
        <ele>62.99341</ele>
        <time>2022-04-16T10:34:07.000Z</time>
      </trkpt>
      <trkpt lat="35.89038" lon="-5.29243">
        <ele>62.730227</ele>
        <time>2022-04-16T10:34:08.000Z</time>
      </trkpt>
      <trkpt lat="35.8903" lon="-5.29257">
        <ele>61.962554</ele>
        <time>2022-04-16T10:34:11.000Z</time>
      </trkpt>
      <trkpt lat="35.89019" lon="-5.29277">
        <ele>60.902931</ele>
        <time>2022-04-16T10:34:15.000Z</time>
      </trkpt>
      <trkpt lat="35.89015" lon="-5.29285">
        <ele>60.53644</ele>
        <time>2022-04-16T10:34:16.000Z</time>
      </trkpt>
      <trkpt lat="35.89007" lon="-5.29301">
        <ele>59.677381</ele>
        <time>2022-04-16T10:34:19.000Z</time>
      </trkpt>
      <trkpt lat="35.89001" lon="-5.29314">
        <ele>59.036897</ele>
        <time>2022-04-16T10:34:21.000Z</time>
      </trkpt>
      <trkpt lat="35.88999" lon="-5.29321">
        <ele>58.702914</ele>
        <time>2022-04-16T10:34:22.000Z</time>
      </trkpt>
      <trkpt lat="35.88996" lon="-5.2933">
        <ele>58.290645</ele>
        <time>2022-04-16T10:34:23.000Z</time>
      </trkpt>
      <trkpt lat="35.88995" lon="-5.29345">
        <ele>57.651745</ele>
        <time>2022-04-16T10:34:25.000Z</time>
      </trkpt>
      <trkpt lat="35.88996" lon="-5.29362">
        <ele>56.930121</ele>
        <time>2022-04-16T10:34:27.000Z</time>
      </trkpt>
      <trkpt lat="35.88999" lon="-5.2938">
        <ele>56.130102</ele>
        <time>2022-04-16T10:34:29.000Z</time>
      </trkpt>
      <trkpt lat="35.89005" lon="-5.29419">
        <ele>54.399427</ele>
        <time>2022-04-16T10:34:33.000Z</time>
      </trkpt>
      <trkpt lat="35.89009" lon="-5.29445">
        <ele>53.289268</ele>
        <time>2022-04-16T10:34:36.000Z</time>
      </trkpt>
      <trkpt lat="35.89013" lon="-5.2947">
        <ele>52.373392</ele>
        <time>2022-04-16T10:34:39.000Z</time>
      </trkpt>
      <trkpt lat="35.89014" lon="-5.29477">
        <ele>52.127921</ele>
        <time>2022-04-16T10:34:40.000Z</time>
      </trkpt>
      <trkpt lat="35.89021" lon="-5.29506">
        <ele>51.030487</ele>
        <time>2022-04-16T10:34:44.000Z</time>
      </trkpt>
      <trkpt lat="35.89026" lon="-5.29523">
        <ele>50.407687</ele>
        <time>2022-04-16T10:34:46.000Z</time>
      </trkpt>
      <trkpt lat="35.89028" lon="-5.29531">
        <ele>50.097258</ele>
        <time>2022-04-16T10:34:47.000Z</time>
      </trkpt>
      <trkpt lat="35.89032" lon="-5.2954">
        <ele>49.751164</ele>
        <time>2022-04-16T10:34:48.000Z</time>
      </trkpt>
      <trkpt lat="35.89045" lon="-5.29567">
        <ele>48.614029</ele>
        <time>2022-04-16T10:34:51.000Z</time>
      </trkpt>
      <trkpt lat="35.89055" lon="-5.2959">
        <ele>47.682922</ele>
        <time>2022-04-16T10:34:54.000Z</time>
      </trkpt>
      <trkpt lat="35.89059" lon="-5.29598">
        <ele>47.346337</ele>
        <time>2022-04-16T10:34:55.000Z</time>
      </trkpt>
      <trkpt lat="35.89067" lon="-5.29616">
        <ele>46.626897</ele>
        <time>2022-04-16T10:34:57.000Z</time>
      </trkpt>
      <trkpt lat="35.89072" lon="-5.29624">
        <ele>46.280731</ele>
        <time>2022-04-16T10:34:58.000Z</time>
      </trkpt>
      <trkpt lat="35.89077" lon="-5.29631">
        <ele>45.945546</ele>
        <time>2022-04-16T10:34:59.000Z</time>
      </trkpt>
      <trkpt lat="35.89087" lon="-5.29644">
        <ele>45.66017</ele>
        <time>2022-04-16T10:35:01.000Z</time>
      </trkpt>
      <trkpt lat="35.89119" lon="-5.29679">
        <ele>46.19777</ele>
        <time>2022-04-16T10:35:07.000Z</time>
      </trkpt>
      <trkpt lat="35.89124" lon="-5.29685">
        <ele>46.279861</ele>
        <time>2022-04-16T10:35:08.000Z</time>
      </trkpt>
      <trkpt lat="35.89132" lon="-5.29703">
        <ele>46.482797</ele>
        <time>2022-04-16T10:35:11.000Z</time>
      </trkpt>
      <trkpt lat="35.89134" lon="-5.29712">
        <ele>46.58508</ele>
        <time>2022-04-16T10:35:13.000Z</time>
      </trkpt>
      <trkpt lat="35.89135" lon="-5.29716">
        <ele>46.628511</ele>
        <time>2022-04-16T10:35:15.000Z</time>
      </trkpt>
      <trkpt lat="35.89132" lon="-5.29722">
        <ele>46.695643</ele>
        <time>2022-04-16T10:35:24.000Z</time>
      </trkpt>
      <trkpt lat="35.89127" lon="-5.29726">
        <ele>46.77826</ele>
        <time>2022-04-16T10:35:26.000Z</time>
      </trkpt>
      <trkpt lat="35.8912" lon="-5.29731">
        <ele>46.879133</ele>
        <time>2022-04-16T10:35:28.000Z</time>
      </trkpt>
      <trkpt lat="35.89099" lon="-5.29751">
        <ele>47.209619</ele>
        <time>2022-04-16T10:35:34.000Z</time>
      </trkpt>
      <trkpt lat="35.89092" lon="-5.29757">
        <ele>47.313737</ele>
        <time>2022-04-16T10:35:36.000Z</time>
      </trkpt>
      <trkpt lat="35.89075" lon="-5.29777">
        <ele>47.610783</ele>
        <time>2022-04-16T10:35:43.000Z</time>
      </trkpt>
      <trkpt lat="35.89058" lon="-5.29795">
        <ele>48.041827</ele>
        <time>2022-04-16T10:35:50.000Z</time>
      </trkpt>
      <trkpt lat="35.89056" lon="-5.29797">
        <ele>48.182312</ele>
        <time>2022-04-16T10:35:51.000Z</time>
      </trkpt>
      <trkpt lat="35.89051" lon="-5.29803">
        <ele>48.480552</ele>
        <time>2022-04-16T10:35:53.000Z</time>
      </trkpt>
      <trkpt lat="35.89042" lon="-5.29815">
        <ele>49.067165</ele>
        <time>2022-04-16T10:35:57.000Z</time>
      </trkpt>
      <trkpt lat="35.89036" lon="-5.29823">
        <ele>49.473305</ele>
        <time>2022-04-16T10:36:00.000Z</time>
      </trkpt>
      <trkpt lat="35.89022" lon="-5.29841">
        <ele>50.365332</ele>
        <time>2022-04-16T10:36:06.000Z</time>
      </trkpt>
      <trkpt lat="35.89018" lon="-5.29846">
        <ele>50.646091</ele>
        <time>2022-04-16T10:36:08.000Z</time>
      </trkpt>
      <trkpt lat="35.8901" lon="-5.29857">
        <ele>51.173443</ele>
        <time>2022-04-16T10:36:12.000Z</time>
      </trkpt>
      <trkpt lat="35.89003" lon="-5.29865">
        <ele>51.575193</ele>
        <time>2022-04-16T10:36:15.000Z</time>
      </trkpt>
      <trkpt lat="35.88986" lon="-5.29889">
        <ele>52.743057</ele>
        <time>2022-04-16T10:36:24.000Z</time>
      </trkpt>
      <trkpt lat="35.88984" lon="-5.29892">
        <ele>52.861708</ele>
        <time>2022-04-16T10:36:25.000Z</time>
      </trkpt>
      <trkpt lat="35.88973" lon="-5.29907">
        <ele>53.613815</ele>
        <time>2022-04-16T10:36:31.000Z</time>
      </trkpt>
      <trkpt lat="35.8896" lon="-5.29927">
        <ele>54.549264</ele>
        <time>2022-04-16T10:36:39.000Z</time>
      </trkpt>
      <trkpt lat="35.88956" lon="-5.29931">
        <ele>54.7619</ele>
        <time>2022-04-16T10:36:41.000Z</time>
      </trkpt>
      <trkpt lat="35.88946" lon="-5.29943">
        <ele>55.403736</ele>
        <time>2022-04-16T10:36:46.000Z</time>
      </trkpt>
      <trkpt lat="35.88939" lon="-5.29949">
        <ele>55.770423</ele>
        <time>2022-04-16T10:36:49.000Z</time>
      </trkpt>
      <trkpt lat="35.88931" lon="-5.29959">
        <ele>55.988957</ele>
        <time>2022-04-16T10:36:54.000Z</time>
      </trkpt>
      <trkpt lat="35.88929" lon="-5.2996">
        <ele>56.019567</ele>
        <time>2022-04-16T10:36:55.000Z</time>
      </trkpt>
      <trkpt lat="35.88909" lon="-5.2998">
        <ele>56.349562</ele>
        <time>2022-04-16T10:37:04.000Z</time>
      </trkpt>
      <trkpt lat="35.88902" lon="-5.29988">
        <ele>56.473981</ele>
        <time>2022-04-16T10:37:08.000Z</time>
      </trkpt>
      <trkpt lat="35.88899" lon="-5.29991">
        <ele>56.522781</ele>
        <time>2022-04-16T10:37:11.000Z</time>
      </trkpt>
      <trkpt lat="35.88899" lon="-5.29991">
        <ele>56.529255</ele>
        <time>2022-04-16T10:37:14.000Z</time>
      </trkpt>
      <trkpt lat="35.88899" lon="-5.29991">
        <ele>56.529255</ele>
        <time>2022-04-16T10:37:18.000Z</time>
      </trkpt>
      <trkpt lat="35.88899" lon="-5.29991">
        <ele>56.529255</ele>
        <time>2022-04-16T10:37:20.000Z</time>
      </trkpt>
      <trkpt lat="35.88899" lon="-5.29991">
        <ele>56.529255</ele>
        <time>2022-04-16T10:37:24.000Z</time>
      </trkpt>
      <trkpt lat="35.88899" lon="-5.29991">
        <ele>56.529255</ele>
        <time>2022-04-16T10:37:43.000Z</time>
      </trkpt>
      <trkpt lat="35.88897" lon="-5.29991">
        <ele>56.557806</ele>
        <time>2022-04-16T10:37:47.000Z</time>
      </trkpt>
      <trkpt lat="35.88897" lon="-5.29991">
        <ele>56.557806</ele>
        <time>2022-04-16T10:37:48.000Z</time>
      </trkpt>
      <trkpt lat="35.88897" lon="-5.29991">
        <ele>56.557806</ele>
        <time>2022-04-16T10:37:52.000Z</time>
      </trkpt>
      <trkpt lat="35.88896" lon="-5.29992">
        <ele>56.571663</ele>
        <time>2022-04-16T10:38:03.000Z</time>
      </trkpt>
      <trkpt lat="35.88895" lon="-5.29992">
        <ele>56.580653</ele>
        <time>2022-04-16T10:38:16.000Z</time>
      </trkpt>
      <trkpt lat="35.88889" lon="-5.29996">
        <ele>56.668127</ele>
        <time>2022-04-16T10:38:19.000Z</time>
      </trkpt>
      <trkpt lat="35.88868" lon="-5.30012">
        <ele>56.985651</ele>
        <time>2022-04-16T10:38:26.000Z</time>
      </trkpt>
      <trkpt lat="35.88859" lon="-5.30019">
        <ele>57.123471</ele>
        <time>2022-04-16T10:38:29.000Z</time>
      </trkpt>
      <trkpt lat="35.88851" lon="-5.30026">
        <ele>57.247636</ele>
        <time>2022-04-16T10:38:32.000Z</time>
      </trkpt>
      <trkpt lat="35.88824" lon="-5.30049">
        <ele>57.667204</ele>
        <time>2022-04-16T10:38:41.000Z</time>
      </trkpt>
      <trkpt lat="35.88794" lon="-5.30062">
        <ele>58.08144</ele>
        <time>2022-04-16T10:38:48.000Z</time>
      </trkpt>
      <trkpt lat="35.8877" lon="-5.30067">
        <ele>58.380329</ele>
        <time>2022-04-16T10:38:53.000Z</time>
      </trkpt>
      <trkpt lat="35.88765" lon="-5.30069">
        <ele>58.44733</ele>
        <time>2022-04-16T10:38:54.000Z</time>
      </trkpt>
      <trkpt lat="35.88744" lon="-5.30079">
        <ele>58.711601</ele>
        <time>2022-04-16T10:38:58.000Z</time>
      </trkpt>
      <trkpt lat="35.8874" lon="-5.30083">
        <ele>58.77312</ele>
        <time>2022-04-16T10:38:59.000Z</time>
      </trkpt>
      <trkpt lat="35.88736" lon="-5.30087">
        <ele>58.842174</ele>
        <time>2022-04-16T10:39:00.000Z</time>
      </trkpt>
      <trkpt lat="35.88719" lon="-5.30108">
        <ele>59.13522</ele>
        <time>2022-04-16T10:39:05.000Z</time>
      </trkpt>
      <trkpt lat="35.88711" lon="-5.30119">
        <ele>59.276416</ele>
        <time>2022-04-16T10:39:08.000Z</time>
      </trkpt>
      <trkpt lat="35.88706" lon="-5.30128">
        <ele>59.37994</ele>
        <time>2022-04-16T10:39:10.000Z</time>
      </trkpt>
      <trkpt lat="35.88701" lon="-5.30142">
        <ele>59.534559</ele>
        <time>2022-04-16T10:39:15.000Z</time>
      </trkpt>
      <trkpt lat="35.887" lon="-5.30145">
        <ele>59.564286</ele>
        <time>2022-04-16T10:39:16.000Z</time>
      </trkpt>
      <trkpt lat="35.88698" lon="-5.30158">
        <ele>59.690563</ele>
        <time>2022-04-16T10:39:20.000Z</time>
      </trkpt>
      <trkpt lat="35.88698" lon="-5.30165">
        <ele>59.764055</ele>
        <time>2022-04-16T10:39:22.000Z</time>
      </trkpt>
      <trkpt lat="35.88697" lon="-5.30184">
        <ele>59.949421</ele>
        <time>2022-04-16T10:39:27.000Z</time>
      </trkpt>
      <trkpt lat="35.88696" lon="-5.30196">
        <ele>60.06033</ele>
        <time>2022-04-16T10:39:30.000Z</time>
      </trkpt>
      <trkpt lat="35.88694" lon="-5.30212">
        <ele>60.224426</ele>
        <time>2022-04-16T10:39:34.000Z</time>
      </trkpt>
      <trkpt lat="35.88688" lon="-5.30234">
        <ele>60.401921</ele>
        <time>2022-04-16T10:39:40.000Z</time>
      </trkpt>
      <trkpt lat="35.88686" lon="-5.30238">
        <ele>60.421964</ele>
        <time>2022-04-16T10:39:41.000Z</time>
      </trkpt>
      <trkpt lat="35.88683" lon="-5.30249">
        <ele>60.480973</ele>
        <time>2022-04-16T10:39:44.000Z</time>
      </trkpt>
      <trkpt lat="35.88674" lon="-5.30276">
        <ele>60.626758</ele>
        <time>2022-04-16T10:39:51.000Z</time>
      </trkpt>
      <trkpt lat="35.88667" lon="-5.30302">
        <ele>60.76131</ele>
        <time>2022-04-16T10:39:58.000Z</time>
      </trkpt>
      <trkpt lat="35.88666" lon="-5.30306">
        <ele>60.782273</ele>
        <time>2022-04-16T10:39:59.000Z</time>
      </trkpt>
      <trkpt lat="35.88655" lon="-5.30343">
        <ele>60.975196</ele>
        <time>2022-04-16T10:40:08.000Z</time>
      </trkpt>
      <trkpt lat="35.88653" lon="-5.30348">
        <ele>60.999345</ele>
        <time>2022-04-16T10:40:09.000Z</time>
      </trkpt>
      <trkpt lat="35.8864" lon="-5.30387">
        <ele>61.210468</ele>
        <time>2022-04-16T10:40:18.000Z</time>
      </trkpt>
      <trkpt lat="35.88631" lon="-5.30416">
        <ele>61.363742</ele>
        <time>2022-04-16T10:40:25.000Z</time>
      </trkpt>
      <trkpt lat="35.88628" lon="-5.30424">
        <ele>61.406341</ele>
        <time>2022-04-16T10:40:27.000Z</time>
      </trkpt>
      <trkpt lat="35.8862" lon="-5.30458">
        <ele>60.846798</ele>
        <time>2022-04-16T10:40:34.000Z</time>
      </trkpt>
      <trkpt lat="35.88612" lon="-5.30477">
        <ele>60.367556</ele>
        <time>2022-04-16T10:40:39.000Z</time>
      </trkpt>
      <trkpt lat="35.88609" lon="-5.3048">
        <ele>60.262568</ele>
        <time>2022-04-16T10:40:40.000Z</time>
      </trkpt>
      <trkpt lat="35.88588" lon="-5.30496">
        <ele>59.567236</ele>
        <time>2022-04-16T10:40:46.000Z</time>
      </trkpt>
      <trkpt lat="35.88585" lon="-5.30499">
        <ele>59.466529</ele>
        <time>2022-04-16T10:40:47.000Z</time>
      </trkpt>
      <trkpt lat="35.88579" lon="-5.3051">
        <ele>59.167844</ele>
        <time>2022-04-16T10:40:50.000Z</time>
      </trkpt>
      <trkpt lat="35.88577" lon="-5.30515">
        <ele>59.054984</ele>
        <time>2022-04-16T10:40:51.000Z</time>
      </trkpt>
      <trkpt lat="35.88572" lon="-5.30544">
        <ele>58.378953</ele>
        <time>2022-04-16T10:40:56.000Z</time>
      </trkpt>
      <trkpt lat="35.88568" lon="-5.30572">
        <ele>57.755758</ele>
        <time>2022-04-16T10:41:00.000Z</time>
      </trkpt>
      <trkpt lat="35.88564" lon="-5.3059">
        <ele>57.334058</ele>
        <time>2022-04-16T10:41:03.000Z</time>
      </trkpt>
      <trkpt lat="35.88552" lon="-5.30625">
        <ele>56.491346</ele>
        <time>2022-04-16T10:41:09.000Z</time>
      </trkpt>
      <trkpt lat="35.88544" lon="-5.30661">
        <ele>52.971132</ele>
        <time>2022-04-16T10:41:15.000Z</time>
      </trkpt>
      <trkpt lat="35.88543" lon="-5.30669">
        <ele>52.288798</ele>
        <time>2022-04-16T10:41:16.000Z</time>
      </trkpt>
      <trkpt lat="35.88542" lon="-5.30676">
        <ele>51.562967</ele>
        <time>2022-04-16T10:41:17.000Z</time>
      </trkpt>
      <trkpt lat="35.8854" lon="-5.30684">
        <ele>50.831694</ele>
        <time>2022-04-16T10:41:18.000Z</time>
      </trkpt>
      <trkpt lat="35.88537" lon="-5.307">
        <ele>49.303202</ele>
        <time>2022-04-16T10:41:20.000Z</time>
      </trkpt>
      <trkpt lat="35.88536" lon="-5.30708">
        <ele>48.514121</ele>
        <time>2022-04-16T10:41:21.000Z</time>
      </trkpt>
      <trkpt lat="35.88534" lon="-5.30725">
        <ele>46.940108</ele>
        <time>2022-04-16T10:41:23.000Z</time>
      </trkpt>
      <trkpt lat="35.88534" lon="-5.30733">
        <ele>46.129166</ele>
        <time>2022-04-16T10:41:24.000Z</time>
      </trkpt>
      <trkpt lat="35.88533" lon="-5.30751">
        <ele>44.526343</ele>
        <time>2022-04-16T10:41:26.000Z</time>
      </trkpt>
      <trkpt lat="35.88533" lon="-5.30767">
        <ele>42.987635</ele>
        <time>2022-04-16T10:41:28.000Z</time>
      </trkpt>
      <trkpt lat="35.88532" lon="-5.30775">
        <ele>42.278374</ele>
        <time>2022-04-16T10:41:29.000Z</time>
      </trkpt>
      <trkpt lat="35.88532" lon="-5.30782">
        <ele>41.573891</ele>
        <time>2022-04-16T10:41:30.000Z</time>
      </trkpt>
      <trkpt lat="35.8853" lon="-5.30798">
        <ele>40.13311</ele>
        <time>2022-04-16T10:41:32.000Z</time>
      </trkpt>
      <trkpt lat="35.8853" lon="-5.30805">
        <ele>39.405897</ele>
        <time>2022-04-16T10:41:33.000Z</time>
      </trkpt>
      <trkpt lat="35.8853" lon="-5.30814">
        <ele>38.651214</ele>
        <time>2022-04-16T10:41:34.000Z</time>
      </trkpt>
      <trkpt lat="35.88531" lon="-5.30821">
        <ele>37.920377</ele>
        <time>2022-04-16T10:41:35.000Z</time>
      </trkpt>
      <trkpt lat="35.88532" lon="-5.30829">
        <ele>37.192234</ele>
        <time>2022-04-16T10:41:36.000Z</time>
      </trkpt>
      <trkpt lat="35.88535" lon="-5.30844">
        <ele>35.750975</ele>
        <time>2022-04-16T10:41:38.000Z</time>
      </trkpt>
      <trkpt lat="35.88536" lon="-5.30852">
        <ele>35.030767</ele>
        <time>2022-04-16T10:41:39.000Z</time>
      </trkpt>
      <trkpt lat="35.88537" lon="-5.30859">
        <ele>34.323864</ele>
        <time>2022-04-16T10:41:40.000Z</time>
      </trkpt>
      <trkpt lat="35.88538" lon="-5.30874">
        <ele>32.95913</ele>
        <time>2022-04-16T10:41:42.000Z</time>
      </trkpt>
      <trkpt lat="35.88537" lon="-5.30881">
        <ele>32.270652</ele>
        <time>2022-04-16T10:41:43.000Z</time>
      </trkpt>
      <trkpt lat="35.88535" lon="-5.30896">
        <ele>30.925092</ele>
        <time>2022-04-16T10:41:45.000Z</time>
      </trkpt>
      <trkpt lat="35.88534" lon="-5.3091">
        <ele>29.579533</ele>
        <time>2022-04-16T10:41:47.000Z</time>
      </trkpt>
      <trkpt lat="35.88532" lon="-5.30926">
        <ele>28.149875</ele>
        <time>2022-04-16T10:41:49.000Z</time>
      </trkpt>
      <trkpt lat="35.88531" lon="-5.30935">
        <ele>27.252309</ele>
        <time>2022-04-16T10:41:50.000Z</time>
      </trkpt>
      <trkpt lat="35.88528" lon="-5.30951">
        <ele>25.786962</ele>
        <time>2022-04-16T10:41:52.000Z</time>
      </trkpt>
      <trkpt lat="35.88527" lon="-5.30958">
        <ele>25.076936</ele>
        <time>2022-04-16T10:41:53.000Z</time>
      </trkpt>
      <trkpt lat="35.88525" lon="-5.30974">
        <ele>23.613862</ele>
        <time>2022-04-16T10:41:55.000Z</time>
      </trkpt>
      <trkpt lat="35.88523" lon="-5.30981">
        <ele>22.886926</ele>
        <time>2022-04-16T10:41:56.000Z</time>
      </trkpt>
      <trkpt lat="35.88522" lon="-5.30989">
        <ele>22.185949</ele>
        <time>2022-04-16T10:41:57.000Z</time>
      </trkpt>
      <trkpt lat="35.88522" lon="-5.30996">
        <ele>21.482284</ele>
        <time>2022-04-16T10:41:58.000Z</time>
      </trkpt>
      <trkpt lat="35.88522" lon="-5.31014">
        <ele>19.879265</ele>
        <time>2022-04-16T10:42:00.000Z</time>
      </trkpt>
      <trkpt lat="35.88523" lon="-5.31023">
        <ele>19.029116</ele>
        <time>2022-04-16T10:42:01.000Z</time>
      </trkpt>
      <trkpt lat="35.88526" lon="-5.31032">
        <ele>18.144558</ele>
        <time>2022-04-16T10:42:02.000Z</time>
      </trkpt>
      <trkpt lat="35.8853" lon="-5.31046">
        <ele>16.706426</ele>
        <time>2022-04-16T10:42:04.000Z</time>
      </trkpt>
      <trkpt lat="35.88533" lon="-5.31054">
        <ele>15.87217</ele>
        <time>2022-04-16T10:42:05.000Z</time>
      </trkpt>
      <trkpt lat="35.88545" lon="-5.31073">
        <ele>15.242324</ele>
        <time>2022-04-16T10:42:08.000Z</time>
      </trkpt>
      <trkpt lat="35.88562" lon="-5.31093">
        <ele>15.207076</ele>
        <time>2022-04-16T10:42:12.000Z</time>
      </trkpt>
      <trkpt lat="35.88572" lon="-5.31103">
        <ele>15.188746</ele>
        <time>2022-04-16T10:42:14.000Z</time>
      </trkpt>
      <trkpt lat="35.88576" lon="-5.31107">
        <ele>15.18068</ele>
        <time>2022-04-16T10:42:15.000Z</time>
      </trkpt>
      <trkpt lat="35.88582" lon="-5.31116">
        <ele>15.166216</ele>
        <time>2022-04-16T10:42:17.000Z</time>
      </trkpt>
      <trkpt lat="35.88585" lon="-5.31119">
        <ele>15.161051</ele>
        <time>2022-04-16T10:42:18.000Z</time>
      </trkpt>
      <trkpt lat="35.88598" lon="-5.31134">
        <ele>15.134067</ele>
        <time>2022-04-16T10:42:22.000Z</time>
      </trkpt>
      <trkpt lat="35.88604" lon="-5.31141">
        <ele>15.121854</ele>
        <time>2022-04-16T10:42:24.000Z</time>
      </trkpt>
      <trkpt lat="35.88606" lon="-5.31144">
        <ele>15.116047</ele>
        <time>2022-04-16T10:42:25.000Z</time>
      </trkpt>
      <trkpt lat="35.88614" lon="-5.31155">
        <ele>15.098672</ele>
        <time>2022-04-16T10:42:28.000Z</time>
      </trkpt>
      <trkpt lat="35.8862" lon="-5.31165">
        <ele>15.083592</ele>
        <time>2022-04-16T10:42:31.000Z</time>
      </trkpt>
      <trkpt lat="35.88625" lon="-5.31168">
        <ele>15.075137</ele>
        <time>2022-04-16T10:42:33.000Z</time>
      </trkpt>
      <trkpt lat="35.88627" lon="-5.31169">
        <ele>15.072027</ele>
        <time>2022-04-16T10:42:35.000Z</time>
      </trkpt>
      <trkpt lat="35.88627" lon="-5.31169">
        <ele>15.07119</ele>
        <time>2022-04-16T10:42:40.000Z</time>
      </trkpt>
      <trkpt lat="35.88628" lon="-5.31169">
        <ele>15.070431</ele>
        <time>2022-04-16T10:42:43.000Z</time>
      </trkpt>
      <trkpt lat="35.88628" lon="-5.31169">
        <ele>15.070431</ele>
        <time>2022-04-16T10:42:47.000Z</time>
      </trkpt>
      <trkpt lat="35.88628" lon="-5.31169">
        <ele>15.070431</ele>
        <time>2022-04-16T10:43:04.000Z</time>
      </trkpt>
      <trkpt lat="35.88628" lon="-5.31169">
        <ele>15.069964</ele>
        <time>2022-04-16T10:43:12.000Z</time>
      </trkpt>
      <trkpt lat="35.8863" lon="-5.31169">
        <ele>15.066943</ele>
        <time>2022-04-16T10:43:13.000Z</time>
      </trkpt>
      <trkpt lat="35.88635" lon="-5.31168">
        <ele>15.05928</ele>
        <time>2022-04-16T10:43:15.000Z</time>
      </trkpt>
      <trkpt lat="35.88652" lon="-5.31167">
        <ele>15.034128</ele>
        <time>2022-04-16T10:43:19.000Z</time>
      </trkpt>
      <trkpt lat="35.88666" lon="-5.31178">
        <ele>15.009403</ele>
        <time>2022-04-16T10:43:23.000Z</time>
      </trkpt>
      <trkpt lat="35.88675" lon="-5.31194">
        <ele>14.845547</ele>
        <time>2022-04-16T10:43:27.000Z</time>
      </trkpt>
      <trkpt lat="35.88681" lon="-5.31207">
        <ele>14.530104</ele>
        <time>2022-04-16T10:43:30.000Z</time>
      </trkpt>
      <trkpt lat="35.88695" lon="-5.3123">
        <ele>13.926939</ele>
        <time>2022-04-16T10:43:36.000Z</time>
      </trkpt>
      <trkpt lat="35.88704" lon="-5.31253">
        <ele>13.385518</ele>
        <time>2022-04-16T10:43:41.000Z</time>
      </trkpt>
      <trkpt lat="35.88712" lon="-5.31274">
        <ele>12.901616</ele>
        <time>2022-04-16T10:43:46.000Z</time>
      </trkpt>
      <trkpt lat="35.88715" lon="-5.31291">
        <ele>12.530087</ele>
        <time>2022-04-16T10:43:50.000Z</time>
      </trkpt>
      <trkpt lat="35.88718" lon="-5.31299">
        <ele>12.348569</ele>
        <time>2022-04-16T10:43:52.000Z</time>
      </trkpt>
      <trkpt lat="35.88719" lon="-5.31306">
        <ele>12.201418</ele>
        <time>2022-04-16T10:43:54.000Z</time>
      </trkpt>
      <trkpt lat="35.88719" lon="-5.3132">
        <ele>11.892299</ele>
        <time>2022-04-16T10:43:58.000Z</time>
      </trkpt>
      <trkpt lat="35.8872" lon="-5.31329">
        <ele>11.70453</ele>
        <time>2022-04-16T10:44:01.000Z</time>
      </trkpt>
      <trkpt lat="35.8872" lon="-5.3133">
        <ele>11.689482</ele>
        <time>2022-04-16T10:44:02.000Z</time>
      </trkpt>
      <trkpt lat="35.8872" lon="-5.31331">
        <ele>11.66605</ele>
        <time>2022-04-16T10:44:10.000Z</time>
      </trkpt>
      <trkpt lat="35.88721" lon="-5.31335">
        <ele>11.568521</ele>
        <time>2022-04-16T10:44:17.000Z</time>
      </trkpt>
      <trkpt lat="35.88721" lon="-5.31336">
        <ele>11.557936</ele>
        <time>2022-04-16T10:44:26.000Z</time>
      </trkpt>
      <trkpt lat="35.88721" lon="-5.31336">
        <ele>11.546659</ele>
        <time>2022-04-16T10:44:57.000Z</time>
      </trkpt>
      <trkpt lat="35.88715" lon="-5.31338">
        <ele>11.385804</ele>
        <time>2022-04-16T10:44:59.000Z</time>
      </trkpt>
      <trkpt lat="35.8871" lon="-5.3134">
        <ele>11.259238</ele>
        <time>2022-04-16T10:45:01.000Z</time>
      </trkpt>
      <trkpt lat="35.88709" lon="-5.31347">
        <ele>11.125897</ele>
        <time>2022-04-16T10:45:03.000Z</time>
      </trkpt>
      <trkpt lat="35.88707" lon="-5.31353">
        <ele>10.981852</ele>
        <time>2022-04-16T10:45:05.000Z</time>
      </trkpt>
      <trkpt lat="35.88704" lon="-5.31365">
        <ele>10.703539</ele>
        <time>2022-04-16T10:45:10.000Z</time>
      </trkpt>
      <trkpt lat="35.88703" lon="-5.31379">
        <ele>10.398295</ele>
        <time>2022-04-16T10:45:16.000Z</time>
      </trkpt>
      <trkpt lat="35.88703" lon="-5.3138">
        <ele>10.38649</ele>
        <time>2022-04-16T10:45:21.000Z</time>
      </trkpt>
      <trkpt lat="35.88703" lon="-5.3138">
        <ele>10.38649</ele>
        <time>2022-04-16T10:45:30.000Z</time>
      </trkpt>
      <trkpt lat="35.88703" lon="-5.3138">
        <ele>10.38649</ele>
        <time>2022-04-16T10:45:33.000Z</time>
      </trkpt>
      <trkpt lat="35.88703" lon="-5.3138">
        <ele>10.38649</ele>
        <time>2022-04-16T10:45:35.000Z</time>
      </trkpt>
      <trkpt lat="35.88703" lon="-5.3138">
        <ele>10.38649</ele>
        <time>2022-04-16T10:45:39.000Z</time>
      </trkpt>
      <trkpt lat="35.88703" lon="-5.3138">
        <ele>10.379765</ele>
        <time>2022-04-16T10:45:41.000Z</time>
      </trkpt>
      <trkpt lat="35.88703" lon="-5.31382">
        <ele>10.342289</ele>
        <time>2022-04-16T10:45:42.000Z</time>
      </trkpt>
      <trkpt lat="35.88706" lon="-5.31391">
        <ele>10.264322</ele>
        <time>2022-04-16T10:45:46.000Z</time>
      </trkpt>
      <trkpt lat="35.88707" lon="-5.31399">
        <ele>10.23379</ele>
        <time>2022-04-16T10:45:53.000Z</time>
      </trkpt>
      <trkpt lat="35.88708" lon="-5.31405">
        <ele>10.210055</ele>
        <time>2022-04-16T10:45:56.000Z</time>
      </trkpt>
      <trkpt lat="35.88708" lon="-5.3141">
        <ele>10.190443</ele>
        <time>2022-04-16T10:45:58.000Z</time>
      </trkpt>
      <trkpt lat="35.88713" lon="-5.31431">
        <ele>10.106634</ele>
        <time>2022-04-16T10:46:04.000Z</time>
      </trkpt>
      <trkpt lat="35.88714" lon="-5.31434">
        <ele>10.093438</ele>
        <time>2022-04-16T10:46:05.000Z</time>
      </trkpt>
      <trkpt lat="35.88718" lon="-5.31451">
        <ele>10.026132</ele>
        <time>2022-04-16T10:46:11.000Z</time>
      </trkpt>
      <trkpt lat="35.88723" lon="-5.31468">
        <ele>9.955892</ele>
        <time>2022-04-16T10:46:18.000Z</time>
      </trkpt>
      <trkpt lat="35.88729" lon="-5.31489">
        <ele>9.873778</ele>
        <time>2022-04-16T10:46:24.000Z</time>
      </trkpt>
      <trkpt lat="35.88733" lon="-5.31513">
        <ele>9.778889</ele>
        <time>2022-04-16T10:46:31.000Z</time>
      </trkpt>
      <trkpt lat="35.88737" lon="-5.31537">
        <ele>9.683252</ele>
        <time>2022-04-16T10:46:39.000Z</time>
      </trkpt>
      <trkpt lat="35.88741" lon="-5.31557">
        <ele>9.602684</ele>
        <time>2022-04-16T10:46:47.000Z</time>
      </trkpt>
      <trkpt lat="35.88741" lon="-5.31562">
        <ele>9.584606</ele>
        <time>2022-04-16T10:46:52.000Z</time>
      </trkpt>
      <trkpt lat="35.88742" lon="-5.31568">
        <ele>9.563222</ele>
        <time>2022-04-16T10:46:57.000Z</time>
      </trkpt>
      <trkpt lat="35.88742" lon="-5.31574">
        <ele>9.537854</ele>
        <time>2022-04-16T10:47:00.000Z</time>
      </trkpt>
      <trkpt lat="35.88742" lon="-5.31576">
        <ele>9.530185</ele>
        <time>2022-04-16T10:47:01.000Z</time>
      </trkpt>
      <trkpt lat="35.88743" lon="-5.31579">
        <ele>9.519061</ele>
        <time>2022-04-16T10:47:03.000Z</time>
      </trkpt>
      <trkpt lat="35.88743" lon="-5.31584">
        <ele>9.499088</ele>
        <time>2022-04-16T10:47:05.000Z</time>
      </trkpt>
      <trkpt lat="35.88745" lon="-5.31598">
        <ele>9.444085</ele>
        <time>2022-04-16T10:47:11.000Z</time>
      </trkpt>
      <trkpt lat="35.88746" lon="-5.31614">
        <ele>9.481689</ele>
        <time>2022-04-16T10:47:18.000Z</time>
      </trkpt>
      <trkpt lat="35.88748" lon="-5.31636">
        <ele>9.542672</ele>
        <time>2022-04-16T10:47:25.000Z</time>
      </trkpt>
      <trkpt lat="35.88748" lon="-5.31641">
        <ele>9.55419</ele>
        <time>2022-04-16T10:47:27.000Z</time>
      </trkpt>
      <trkpt lat="35.88748" lon="-5.31643">
        <ele>9.562257</ele>
        <time>2022-04-16T10:47:29.000Z</time>
      </trkpt>
      <trkpt lat="35.88748" lon="-5.31645">
        <ele>9.565565</ele>
        <time>2022-04-16T10:47:30.000Z</time>
      </trkpt>
      <trkpt lat="35.88748" lon="-5.31649">
        <ele>9.576282</ele>
        <time>2022-04-16T10:47:35.000Z</time>
      </trkpt>
      <trkpt lat="35.88747" lon="-5.31652">
        <ele>9.58711</ele>
        <time>2022-04-16T10:47:38.000Z</time>
      </trkpt>
      <trkpt lat="35.88747" lon="-5.3166">
        <ele>9.606858</ele>
        <time>2022-04-16T10:47:41.000Z</time>
      </trkpt>
      <trkpt lat="35.88748" lon="-5.31678">
        <ele>9.657647</ele>
        <time>2022-04-16T10:47:46.000Z</time>
      </trkpt>
      <trkpt lat="35.88748" lon="-5.31687">
        <ele>9.680959</ele>
        <time>2022-04-16T10:47:48.000Z</time>
      </trkpt>
      <trkpt lat="35.88748" lon="-5.31694">
        <ele>9.702352</ele>
        <time>2022-04-16T10:47:50.000Z</time>
      </trkpt>
      <trkpt lat="35.88748" lon="-5.31712">
        <ele>9.749266</ele>
        <time>2022-04-16T10:47:54.000Z</time>
      </trkpt>
      <trkpt lat="35.88748" lon="-5.3172">
        <ele>9.773675</ele>
        <time>2022-04-16T10:47:57.000Z</time>
      </trkpt>
      <trkpt lat="35.88748" lon="-5.31725">
        <ele>9.787383</ele>
        <time>2022-04-16T10:47:59.000Z</time>
      </trkpt>
      <trkpt lat="35.88748" lon="-5.31742">
        <ele>9.833759</ele>
        <time>2022-04-16T10:48:05.000Z</time>
      </trkpt>
      <trkpt lat="35.88747" lon="-5.31764">
        <ele>9.894168</ele>
        <time>2022-04-16T10:48:11.000Z</time>
      </trkpt>
      <trkpt lat="35.88747" lon="-5.31768">
        <ele>9.90569</ele>
        <time>2022-04-16T10:48:12.000Z</time>
      </trkpt>
      <trkpt lat="35.88746" lon="-5.31799">
        <ele>9.988593</ele>
        <time>2022-04-16T10:48:19.000Z</time>
      </trkpt>
      <trkpt lat="35.88744" lon="-5.3183">
        <ele>10.065675</ele>
        <time>2022-04-16T10:48:27.000Z</time>
      </trkpt>
      <trkpt lat="35.88743" lon="-5.3186">
        <ele>10.118147</ele>
        <time>2022-04-16T10:48:36.000Z</time>
      </trkpt>
      <trkpt lat="35.88743" lon="-5.31863">
        <ele>10.123392</ele>
        <time>2022-04-16T10:48:37.000Z</time>
      </trkpt>
      <trkpt lat="35.88742" lon="-5.31883">
        <ele>10.158652</ele>
        <time>2022-04-16T10:48:43.000Z</time>
      </trkpt>
      <trkpt lat="35.88741" lon="-5.31893">
        <ele>10.176035</ele>
        <time>2022-04-16T10:48:46.000Z</time>
      </trkpt>
      <trkpt lat="35.8874" lon="-5.31902">
        <ele>10.192088</ele>
        <time>2022-04-16T10:48:49.000Z</time>
      </trkpt>
      <trkpt lat="35.88739" lon="-5.31909">
        <ele>10.204141</ele>
        <time>2022-04-16T10:48:51.000Z</time>
      </trkpt>
      <trkpt lat="35.88738" lon="-5.31928">
        <ele>10.236982</ele>
        <time>2022-04-16T10:48:57.000Z</time>
      </trkpt>
      <trkpt lat="35.88734" lon="-5.31953">
        <ele>10.282112</ele>
        <time>2022-04-16T10:49:05.000Z</time>
      </trkpt>
      <trkpt lat="35.88728" lon="-5.31976">
        <ele>10.323052</ele>
        <time>2022-04-16T10:49:11.000Z</time>
      </trkpt>
      <trkpt lat="35.88726" lon="-5.3198">
        <ele>10.330484</ele>
        <time>2022-04-16T10:49:12.000Z</time>
      </trkpt>
      <trkpt lat="35.88711" lon="-5.32011">
        <ele>10.39533</ele>
        <time>2022-04-16T10:49:21.000Z</time>
      </trkpt>
      <trkpt lat="35.88694" lon="-5.32038">
        <ele>10.427155</ele>
        <time>2022-04-16T10:49:30.000Z</time>
      </trkpt>
      <trkpt lat="35.88678" lon="-5.32065">
        <ele>10.397011</ele>
        <time>2022-04-16T10:49:39.000Z</time>
      </trkpt>
      <trkpt lat="35.88664" lon="-5.32089">
        <ele>10.370289</ele>
        <time>2022-04-16T10:49:47.000Z</time>
      </trkpt>
      <trkpt lat="35.8865" lon="-5.32114">
        <ele>10.343348</ele>
        <time>2022-04-16T10:49:54.000Z</time>
      </trkpt>
      <trkpt lat="35.88632" lon="-5.32148">
        <ele>10.307127</ele>
        <time>2022-04-16T10:50:03.000Z</time>
      </trkpt>
      <trkpt lat="35.88616" lon="-5.32171">
        <ele>10.280324</ele>
        <time>2022-04-16T10:50:10.000Z</time>
      </trkpt>
      <trkpt lat="35.88603" lon="-5.32183">
        <ele>10.262876</ele>
        <time>2022-04-16T10:50:14.000Z</time>
      </trkpt>
      <trkpt lat="35.88594" lon="-5.32192">
        <ele>10.249657</ele>
        <time>2022-04-16T10:50:17.000Z</time>
      </trkpt>
      <trkpt lat="35.88567" lon="-5.32216">
        <ele>10.227541</ele>
        <time>2022-04-16T10:50:25.000Z</time>
      </trkpt>
      <trkpt lat="35.88561" lon="-5.32222">
        <ele>10.223855</ele>
        <time>2022-04-16T10:50:27.000Z</time>
      </trkpt>
      <trkpt lat="35.88541" lon="-5.32241">
        <ele>10.21201</ele>
        <time>2022-04-16T10:50:33.000Z</time>
      </trkpt>
      <trkpt lat="35.88534" lon="-5.32247">
        <ele>10.207886</ele>
        <time>2022-04-16T10:50:35.000Z</time>
      </trkpt>
      <trkpt lat="35.88523" lon="-5.32259">
        <ele>10.200881</ele>
        <time>2022-04-16T10:50:40.000Z</time>
      </trkpt>
      <trkpt lat="35.88521" lon="-5.3226">
        <ele>10.200139</ele>
        <time>2022-04-16T10:50:41.000Z</time>
      </trkpt>
      <trkpt lat="35.88507" lon="-5.32272">
        <ele>10.191802</ele>
        <time>2022-04-16T10:50:47.000Z</time>
      </trkpt>
      <trkpt lat="35.88483" lon="-5.32293">
        <ele>10.178088</ele>
        <time>2022-04-16T10:50:55.000Z</time>
      </trkpt>
      <trkpt lat="35.8848" lon="-5.32295">
        <ele>10.176401</ele>
        <time>2022-04-16T10:50:56.000Z</time>
      </trkpt>
      <trkpt lat="35.88468" lon="-5.32306">
        <ele>10.169551</ele>
        <time>2022-04-16T10:51:00.000Z</time>
      </trkpt>
      <trkpt lat="35.88457" lon="-5.32316">
        <ele>10.163027</ele>
        <time>2022-04-16T10:51:04.000Z</time>
      </trkpt>
      <trkpt lat="35.88451" lon="-5.3232">
        <ele>10.159708</ele>
        <time>2022-04-16T10:51:06.000Z</time>
      </trkpt>
      <trkpt lat="35.88438" lon="-5.32333">
        <ele>10.126902</ele>
        <time>2022-04-16T10:51:11.000Z</time>
      </trkpt>
      <trkpt lat="35.88421" lon="-5.32348">
        <ele>9.916543</ele>
        <time>2022-04-16T10:51:17.000Z</time>
      </trkpt>
      <trkpt lat="35.88413" lon="-5.32357">
        <ele>9.807704</ele>
        <time>2022-04-16T10:51:20.000Z</time>
      </trkpt>
      <trkpt lat="35.88391" lon="-5.32376">
        <ele>9.552737</ele>
        <time>2022-04-16T10:51:27.000Z</time>
      </trkpt>
      <trkpt lat="35.88365" lon="-5.32402">
        <ele>9.217819</ele>
        <time>2022-04-16T10:51:36.000Z</time>
      </trkpt>
      <trkpt lat="35.88342" lon="-5.32423">
        <ele>8.937809</ele>
        <time>2022-04-16T10:51:44.000Z</time>
      </trkpt>
      <trkpt lat="35.88321" lon="-5.32441">
        <ele>8.688774</ele>
        <time>2022-04-16T10:51:51.000Z</time>
      </trkpt>
      <trkpt lat="35.88302" lon="-5.32453">
        <ele>8.473208</ele>
        <time>2022-04-16T10:51:57.000Z</time>
      </trkpt>
      <trkpt lat="35.88298" lon="-5.32455">
        <ele>8.428923</ele>
        <time>2022-04-16T10:51:58.000Z</time>
      </trkpt>
      <trkpt lat="35.88294" lon="-5.32458">
        <ele>8.385273</ele>
        <time>2022-04-16T10:51:59.000Z</time>
      </trkpt>
      <trkpt lat="35.88285" lon="-5.32462">
        <ele>8.257297</ele>
        <time>2022-04-16T10:52:01.000Z</time>
      </trkpt>
      <trkpt lat="35.88265" lon="-5.32473">
        <ele>7.937078</ele>
        <time>2022-04-16T10:52:06.000Z</time>
      </trkpt>
      <trkpt lat="35.88261" lon="-5.32474">
        <ele>7.877584</ele>
        <time>2022-04-16T10:52:07.000Z</time>
      </trkpt>
      <trkpt lat="35.8823" lon="-5.3249">
        <ele>7.400966</ele>
        <time>2022-04-16T10:52:14.000Z</time>
      </trkpt>
      <trkpt lat="35.88221" lon="-5.32494">
        <ele>7.268385</ele>
        <time>2022-04-16T10:52:16.000Z</time>
      </trkpt>
      <trkpt lat="35.88206" lon="-5.32501">
        <ele>7.044878</ele>
        <time>2022-04-16T10:52:20.000Z</time>
      </trkpt>
      <trkpt lat="35.88185" lon="-5.32517">
        <ele>6.683727</ele>
        <time>2022-04-16T10:52:27.000Z</time>
      </trkpt>
      <trkpt lat="35.88154" lon="-5.32544">
        <ele>6.141905</ele>
        <time>2022-04-16T10:52:37.000Z</time>
      </trkpt>
      <trkpt lat="35.88132" lon="-5.32567">
        <ele>5.828296</ele>
        <time>2022-04-16T10:52:44.000Z</time>
      </trkpt>
      <trkpt lat="35.88126" lon="-5.32575">
        <ele>5.84675</ele>
        <time>2022-04-16T10:52:46.000Z</time>
      </trkpt>
      <trkpt lat="35.88121" lon="-5.32583">
        <ele>5.86438</ele>
        <time>2022-04-16T10:52:48.000Z</time>
      </trkpt>
      <trkpt lat="35.88118" lon="-5.32587">
        <ele>5.872907</ele>
        <time>2022-04-16T10:52:49.000Z</time>
      </trkpt>
      <trkpt lat="35.8811" lon="-5.32598">
        <ele>5.900434</ele>
        <time>2022-04-16T10:52:52.000Z</time>
      </trkpt>
      <trkpt lat="35.88087" lon="-5.32627">
        <ele>5.972192</ele>
        <time>2022-04-16T10:53:00.000Z</time>
      </trkpt>
      <trkpt lat="35.88071" lon="-5.32649">
        <ele>6.02354</ele>
        <time>2022-04-16T10:53:06.000Z</time>
      </trkpt>
      <trkpt lat="35.88048" lon="-5.32679">
        <ele>6.096662</ele>
        <time>2022-04-16T10:53:14.000Z</time>
      </trkpt>
      <trkpt lat="35.88028" lon="-5.32705">
        <ele>6.158684</ele>
        <time>2022-04-16T10:53:21.000Z</time>
      </trkpt>
      <trkpt lat="35.8801" lon="-5.3273">
        <ele>6.23453</ele>
        <time>2022-04-16T10:53:28.000Z</time>
      </trkpt>
      <trkpt lat="35.87993" lon="-5.32747">
        <ele>6.336382</ele>
        <time>2022-04-16T10:53:33.000Z</time>
      </trkpt>
      <trkpt lat="35.87986" lon="-5.32752">
        <ele>6.376241</ele>
        <time>2022-04-16T10:53:35.000Z</time>
      </trkpt>
      <trkpt lat="35.87958" lon="-5.32768">
        <ele>6.525538</ele>
        <time>2022-04-16T10:53:43.000Z</time>
      </trkpt>
      <trkpt lat="35.87944" lon="-5.32775">
        <ele>6.59738</ele>
        <time>2022-04-16T10:53:48.000Z</time>
      </trkpt>
      <trkpt lat="35.8793" lon="-5.32782">
        <ele>6.670513</ele>
        <time>2022-04-16T10:53:53.000Z</time>
      </trkpt>
      <trkpt lat="35.87927" lon="-5.32784">
        <ele>6.685169</ele>
        <time>2022-04-16T10:53:54.000Z</time>
      </trkpt>
      <trkpt lat="35.87902" lon="-5.32803">
        <ele>6.827977</ele>
        <time>2022-04-16T10:54:03.000Z</time>
      </trkpt>
      <trkpt lat="35.87886" lon="-5.32824">
        <ele>6.941165</ele>
        <time>2022-04-16T10:54:10.000Z</time>
      </trkpt>
      <trkpt lat="35.87884" lon="-5.32827">
        <ele>6.955981</ele>
        <time>2022-04-16T10:54:11.000Z</time>
      </trkpt>
      <trkpt lat="35.87873" lon="-5.32849">
        <ele>7.057549</ele>
        <time>2022-04-16T10:54:17.000Z</time>
      </trkpt>
      <trkpt lat="35.87867" lon="-5.32882">
        <ele>7.269533</ele>
        <time>2022-04-16T10:54:25.000Z</time>
      </trkpt>
      <trkpt lat="35.8787" lon="-5.32916">
        <ele>7.491369</ele>
        <time>2022-04-16T10:54:34.000Z</time>
      </trkpt>
      <trkpt lat="35.87878" lon="-5.32948">
        <ele>7.707583</ele>
        <time>2022-04-16T10:54:41.000Z</time>
      </trkpt>
      <trkpt lat="35.87889" lon="-5.32987">
        <ele>7.97929</ele>
        <time>2022-04-16T10:54:49.000Z</time>
      </trkpt>
      <trkpt lat="35.87899" lon="-5.33023">
        <ele>8.222988</ele>
        <time>2022-04-16T10:54:56.000Z</time>
      </trkpt>
      <trkpt lat="35.87901" lon="-5.33026">
        <ele>8.248889</ele>
        <time>2022-04-16T10:54:57.000Z</time>
      </trkpt>
      <trkpt lat="35.87904" lon="-5.33036">
        <ele>8.313213</ele>
        <time>2022-04-16T10:54:59.000Z</time>
      </trkpt>
      <trkpt lat="35.87909" lon="-5.33053">
        <ele>8.434027</ele>
        <time>2022-04-16T10:55:03.000Z</time>
      </trkpt>
      <trkpt lat="35.87911" lon="-5.3306">
        <ele>8.481872</ele>
        <time>2022-04-16T10:55:05.000Z</time>
      </trkpt>
      <trkpt lat="35.87919" lon="-5.33083">
        <ele>8.768758</ele>
        <time>2022-04-16T10:55:11.000Z</time>
      </trkpt>
      <trkpt lat="35.87928" lon="-5.33113">
        <ele>9.168421</ele>
        <time>2022-04-16T10:55:19.000Z</time>
      </trkpt>
      <trkpt lat="35.8793" lon="-5.33122">
        <ele>9.299216</ele>
        <time>2022-04-16T10:55:22.000Z</time>
      </trkpt>
      <trkpt lat="35.87934" lon="-5.33139">
        <ele>9.511494</ele>
        <time>2022-04-16T10:55:27.000Z</time>
      </trkpt>
      <trkpt lat="35.87944" lon="-5.33172">
        <ele>9.961638</ele>
        <time>2022-04-16T10:55:36.000Z</time>
      </trkpt>
      <trkpt lat="35.87952" lon="-5.33198">
        <ele>10.311785</ele>
        <time>2022-04-16T10:55:42.000Z</time>
      </trkpt>
      <trkpt lat="35.87955" lon="-5.33208">
        <ele>10.441885</ele>
        <time>2022-04-16T10:55:44.000Z</time>
      </trkpt>
      <trkpt lat="35.87964" lon="-5.33236">
        <ele>10.828028</ele>
        <time>2022-04-16T10:55:51.000Z</time>
      </trkpt>
      <trkpt lat="35.87968" lon="-5.33253">
        <ele>11.044516</ele>
        <time>2022-04-16T10:55:57.000Z</time>
      </trkpt>
      <trkpt lat="35.87978" lon="-5.33279">
        <ele>11.228887</ele>
        <time>2022-04-16T10:56:04.000Z</time>
      </trkpt>
      <trkpt lat="35.87988" lon="-5.33313">
        <ele>10.903135</ele>
        <time>2022-04-16T10:56:12.000Z</time>
      </trkpt>
      <trkpt lat="35.87995" lon="-5.33336">
        <ele>10.680472</ele>
        <time>2022-04-16T10:56:18.000Z</time>
      </trkpt>
      <trkpt lat="35.88" lon="-5.33362">
        <ele>10.438553</ele>
        <time>2022-04-16T10:56:25.000Z</time>
      </trkpt>
      <trkpt lat="35.88001" lon="-5.33372">
        <ele>10.338529</ele>
        <time>2022-04-16T10:56:29.000Z</time>
      </trkpt>
      <trkpt lat="35.88002" lon="-5.33378">
        <ele>10.287984</ele>
        <time>2022-04-16T10:56:31.000Z</time>
      </trkpt>
      <trkpt lat="35.88002" lon="-5.33381">
        <ele>10.261443</ele>
        <time>2022-04-16T10:56:32.000Z</time>
      </trkpt>
      <trkpt lat="35.88004" lon="-5.33393">
        <ele>10.151672</ele>
        <time>2022-04-16T10:56:38.000Z</time>
      </trkpt>
      <trkpt lat="35.88003" lon="-5.33395">
        <ele>10.130104</ele>
        <time>2022-04-16T10:56:45.000Z</time>
      </trkpt>
      <trkpt lat="35.88003" lon="-5.33395">
        <ele>10.130104</ele>
        <time>2022-04-16T10:56:49.000Z</time>
      </trkpt>
      <trkpt lat="35.88003" lon="-5.33395">
        <ele>10.130104</ele>
        <time>2022-04-16T10:56:57.000Z</time>
      </trkpt>
      <trkpt lat="35.88003" lon="-5.33395">
        <ele>10.130104</ele>
        <time>2022-04-16T10:57:20.000Z</time>
      </trkpt>
      <trkpt lat="35.88003" lon="-5.33395">
        <ele>10.130104</ele>
        <time>2022-04-16T10:57:38.000Z</time>
      </trkpt>
      <trkpt lat="35.88003" lon="-5.33395">
        <ele>10.130104</ele>
        <time>2022-04-16T10:57:42.000Z</time>
      </trkpt>
      <trkpt lat="35.88003" lon="-5.33407">
        <ele>10.024785</ele>
        <time>2022-04-16T10:57:50.000Z</time>
      </trkpt>
      <trkpt lat="35.88002" lon="-5.33423">
        <ele>9.879371</ele>
        <time>2022-04-16T10:57:53.000Z</time>
      </trkpt>
      <trkpt lat="35.88002" lon="-5.33435">
        <ele>9.766706</ele>
        <time>2022-04-16T10:57:55.000Z</time>
      </trkpt>
      <trkpt lat="35.88001" lon="-5.33446">
        <ele>9.662991</ele>
        <time>2022-04-16T10:57:57.000Z</time>
      </trkpt>
      <trkpt lat="35.88001" lon="-5.33468">
        <ele>9.467796</ele>
        <time>2022-04-16T10:58:02.000Z</time>
      </trkpt>
      <trkpt lat="35.88" lon="-5.33488">
        <ele>9.287712</ele>
        <time>2022-04-16T10:58:07.000Z</time>
      </trkpt>
      <trkpt lat="35.87997" lon="-5.33506">
        <ele>9.315565</ele>
        <time>2022-04-16T10:58:11.000Z</time>
      </trkpt>
      <trkpt lat="35.8799" lon="-5.3353">
        <ele>9.354465</ele>
        <time>2022-04-16T10:58:18.000Z</time>
      </trkpt>
      <trkpt lat="35.87989" lon="-5.33533">
        <ele>9.360773</ele>
        <time>2022-04-16T10:58:19.000Z</time>
      </trkpt>
      <trkpt lat="35.8798" lon="-5.33554">
        <ele>9.397445</ele>
        <time>2022-04-16T10:58:25.000Z</time>
      </trkpt>
      <trkpt lat="35.87978" lon="-5.33557">
        <ele>9.402009</ele>
        <time>2022-04-16T10:58:27.000Z</time>
      </trkpt>
      <trkpt lat="35.87978" lon="-5.33557">
        <ele>9.402507</ele>
        <time>2022-04-16T10:58:28.000Z</time>
      </trkpt>
      <trkpt lat="35.87977" lon="-5.33561">
        <ele>9.408561</ele>
        <time>2022-04-16T10:58:31.000Z</time>
      </trkpt>
      <trkpt lat="35.87975" lon="-5.33566">
        <ele>9.417662</ele>
        <time>2022-04-16T10:58:35.000Z</time>
      </trkpt>
      <trkpt lat="35.87972" lon="-5.3357">
        <ele>9.425426</ele>
        <time>2022-04-16T10:58:40.000Z</time>
      </trkpt>
      <trkpt lat="35.87972" lon="-5.3357">
        <ele>9.42567</ele>
        <time>2022-04-16T10:58:41.000Z</time>
      </trkpt>
      <trkpt lat="35.87972" lon="-5.3357">
        <ele>9.42567</ele>
        <time>2022-04-16T10:58:47.000Z</time>
      </trkpt>
      <trkpt lat="35.87972" lon="-5.33569">
        <ele>9.427206</ele>
        <time>2022-04-16T10:58:57.000Z</time>
      </trkpt>
      <trkpt lat="35.87972" lon="-5.33567">
        <ele>9.430739</ele>
        <time>2022-04-16T10:59:14.000Z</time>
      </trkpt>
      <trkpt lat="35.87972" lon="-5.33566">
        <ele>9.4311</ele>
        <time>2022-04-16T10:59:20.000Z</time>
      </trkpt>
      <trkpt lat="35.87974" lon="-5.33561">
        <ele>9.43984</ele>
        <time>2022-04-16T10:59:24.000Z</time>
      </trkpt>
      <trkpt lat="35.87974" lon="-5.33561">
        <ele>9.43984</ele>
        <time>2022-04-16T10:59:30.000Z</time>
      </trkpt>
      <trkpt lat="35.87974" lon="-5.33561">
        <ele>9.439994</ele>
        <time>2022-04-16T10:59:32.000Z</time>
      </trkpt>
      <trkpt lat="35.87973" lon="-5.33566">
        <ele>9.447825</ele>
        <time>2022-04-16T10:59:36.000Z</time>
      </trkpt>
      <trkpt lat="35.87972" lon="-5.33568">
        <ele>9.451251</ele>
        <time>2022-04-16T10:59:42.000Z</time>
      </trkpt>
      <trkpt lat="35.87972" lon="-5.33568">
        <ele>9.451251</ele>
        <time>2022-04-16T10:59:44.000Z</time>
      </trkpt>
      <trkpt lat="35.87971" lon="-5.33569">
        <ele>9.453531</ele>
        <time>2022-04-16T11:00:36.000Z</time>
      </trkpt>
      <trkpt lat="35.87971" lon="-5.33568">
        <ele>9.454323</ele>
        <time>2022-04-16T11:00:52.000Z</time>
      </trkpt>
      <trkpt lat="35.87971" lon="-5.33568">
        <ele>9.454323</ele>
        <time>2022-04-16T11:00:55.000Z</time>
      </trkpt>
      <trkpt lat="35.87971" lon="-5.33568">
        <ele>9.454323</ele>
        <time>2022-04-16T11:01:01.000Z</time>
      </trkpt>
      <trkpt lat="35.8797" lon="-5.33567">
        <ele>9.455905</ele>
        <time>2022-04-16T11:01:22.000Z</time>
      </trkpt>
      <trkpt lat="35.8797" lon="-5.33567">
        <ele>9.456058</ele>
        <time>2022-04-16T11:01:30.000Z</time>
      </trkpt>
      <trkpt lat="35.8797" lon="-5.33567">
        <ele>9.456832</ele>
        <time>2022-04-16T11:02:14.000Z</time>
      </trkpt>
      <trkpt lat="35.87972" lon="-5.33562">
        <ele>9.465858</ele>
        <time>2022-04-16T11:02:18.000Z</time>
      </trkpt>
      <trkpt lat="35.87975" lon="-5.33558">
        <ele>9.4729</ele>
        <time>2022-04-16T11:02:21.000Z</time>
      </trkpt>
      <trkpt lat="35.87975" lon="-5.33554">
        <ele>9.4793</ele>
        <time>2022-04-16T11:02:24.000Z</time>
      </trkpt>
      <trkpt lat="35.87975" lon="-5.33554">
        <ele>9.480091</ele>
        <time>2022-04-16T11:02:30.000Z</time>
      </trkpt>
      <trkpt lat="35.8798" lon="-5.33546">
        <ele>9.494096</ele>
        <time>2022-04-16T11:02:35.000Z</time>
      </trkpt>
      <trkpt lat="35.87988" lon="-5.33527">
        <ele>9.528</ele>
        <time>2022-04-16T11:02:41.000Z</time>
      </trkpt>
      <trkpt lat="35.87989" lon="-5.33523">
        <ele>9.533766</ele>
        <time>2022-04-16T11:02:42.000Z</time>
      </trkpt>
      <trkpt lat="35.87997" lon="-5.33488">
        <ele>9.589881</ele>
        <time>2022-04-16T11:02:51.000Z</time>
      </trkpt>
      <trkpt lat="35.87998" lon="-5.33472">
        <ele>9.613819</ele>
        <time>2022-04-16T11:02:54.000Z</time>
      </trkpt>
      <trkpt lat="35.87999" lon="-5.33457">
        <ele>9.702681</ele>
        <time>2022-04-16T11:02:57.000Z</time>
      </trkpt>
      <trkpt lat="35.87999" lon="-5.33443">
        <ele>9.876151</ele>
        <time>2022-04-16T11:03:00.000Z</time>
      </trkpt>
      <trkpt lat="35.87998" lon="-5.33423">
        <ele>10.129351</ele>
        <time>2022-04-16T11:03:05.000Z</time>
      </trkpt>
      <trkpt lat="35.87998" lon="-5.33412">
        <ele>10.270285</ele>
        <time>2022-04-16T11:03:08.000Z</time>
      </trkpt>
      <trkpt lat="35.87999" lon="-5.3339">
        <ele>10.53879</ele>
        <time>2022-04-16T11:03:14.000Z</time>
      </trkpt>
      <trkpt lat="35.87999" lon="-5.33378">
        <ele>10.68511</ele>
        <time>2022-04-16T11:03:18.000Z</time>
      </trkpt>
      <trkpt lat="35.87998" lon="-5.33376">
        <ele>10.714165</ele>
        <time>2022-04-16T11:03:19.000Z</time>
      </trkpt>
      <trkpt lat="35.87997" lon="-5.33375">
        <ele>10.73054</ele>
        <time>2022-04-16T11:03:20.000Z</time>
      </trkpt>
      <trkpt lat="35.87997" lon="-5.33375">
        <ele>10.736822</ele>
        <time>2022-04-16T11:03:22.000Z</time>
      </trkpt>
      <trkpt lat="35.87998" lon="-5.33379">
        <ele>10.779367</ele>
        <time>2022-04-16T11:03:24.000Z</time>
      </trkpt>
      <trkpt lat="35.87999" lon="-5.33384">
        <ele>10.850079</ele>
        <time>2022-04-16T11:03:26.000Z</time>
      </trkpt>
      <trkpt lat="35.87999" lon="-5.33387">
        <ele>10.886281</ele>
        <time>2022-04-16T11:03:28.000Z</time>
      </trkpt>
      <trkpt lat="35.87995" lon="-5.33386">
        <ele>10.953635</ele>
        <time>2022-04-16T11:03:30.000Z</time>
      </trkpt>
      <trkpt lat="35.87984" lon="-5.33381">
        <ele>11.126831</ele>
        <time>2022-04-16T11:03:34.000Z</time>
      </trkpt>
      <trkpt lat="35.8798" lon="-5.33379">
        <ele>11.1978</ele>
        <time>2022-04-16T11:03:36.000Z</time>
      </trkpt>
      <trkpt lat="35.87979" lon="-5.33379">
        <ele>11.215141</ele>
        <time>2022-04-16T11:03:39.000Z</time>
      </trkpt>
      <trkpt lat="35.87979" lon="-5.33379">
        <ele>11.215141</ele>
        <time>2022-04-16T11:03:40.000Z</time>
      </trkpt>
      <trkpt lat="35.87978" lon="-5.33379">
        <ele>11.221298</ele>
        <time>2022-04-16T11:03:48.000Z</time>
      </trkpt>
      <trkpt lat="35.87979" lon="-5.33379">
        <ele>11.232358</ele>
        <time>2022-04-16T11:03:53.000Z</time>
      </trkpt>
      <trkpt lat="35.87979" lon="-5.33379">
        <ele>11.233605</ele>
        <time>2022-04-16T11:04:08.000Z</time>
      </trkpt>
      <trkpt lat="35.87979" lon="-5.33379">
        <ele>11.233605</ele>
        <time>2022-04-16T11:04:12.000Z</time>
      </trkpt>
      <trkpt lat="35.87979" lon="-5.33379">
        <ele>11.233605</ele>
        <time>2022-04-16T11:04:22.000Z</time>
      </trkpt>
      <trkpt lat="35.87978" lon="-5.33379">
        <ele>11.254969</ele>
        <time>2022-04-16T11:04:39.000Z</time>
      </trkpt>
      <trkpt lat="35.87978" lon="-5.3338">
        <ele>11.262729</ele>
        <time>2022-04-16T11:04:54.000Z</time>
      </trkpt>
      <trkpt lat="35.87978" lon="-5.3338">
        <ele>11.264268</ele>
        <time>2022-04-16T11:05:07.000Z</time>
      </trkpt>
      <trkpt lat="35.87979" lon="-5.3338">
        <ele>11.284434</ele>
        <time>2022-04-16T11:05:11.000Z</time>
      </trkpt>
      <trkpt lat="35.87991" lon="-5.33385">
        <ele>11.48311</ele>
        <time>2022-04-16T11:05:16.000Z</time>
      </trkpt>
      <trkpt lat="35.88001" lon="-5.33387">
        <ele>11.625612</ele>
        <time>2022-04-16T11:05:20.000Z</time>
      </trkpt>
      <trkpt lat="35.88001" lon="-5.33386">
        <ele>11.63775</ele>
        <time>2022-04-16T11:05:21.000Z</time>
      </trkpt>
      <trkpt lat="35.88001" lon="-5.33372">
        <ele>11.812466</ele>
        <time>2022-04-16T11:05:25.000Z</time>
      </trkpt>
      <trkpt lat="35.88001" lon="-5.33367">
        <ele>11.880096</ele>
        <time>2022-04-16T11:05:26.000Z</time>
      </trkpt>
      <trkpt lat="35.87996" lon="-5.33345">
        <ele>12.16429</ele>
        <time>2022-04-16T11:05:30.000Z</time>
      </trkpt>
      <trkpt lat="35.87989" lon="-5.33317">
        <ele>12.347808</ele>
        <time>2022-04-16T11:05:35.000Z</time>
      </trkpt>
      <trkpt lat="35.87983" lon="-5.33296">
        <ele>12.246353</ele>
        <time>2022-04-16T11:05:39.000Z</time>
      </trkpt>
      <trkpt lat="35.87971" lon="-5.33259">
        <ele>12.061369</ele>
        <time>2022-04-16T11:05:47.000Z</time>
      </trkpt>
      <trkpt lat="35.87965" lon="-5.33237">
        <ele>11.949364</ele>
        <time>2022-04-16T11:05:53.000Z</time>
      </trkpt>
      <trkpt lat="35.87958" lon="-5.33215">
        <ele>11.8422</ele>
        <time>2022-04-16T11:05:59.000Z</time>
      </trkpt>
      <trkpt lat="35.87957" lon="-5.33211">
        <ele>11.823226</ele>
        <time>2022-04-16T11:06:00.000Z</time>
      </trkpt>
      <trkpt lat="35.87952" lon="-5.33196">
        <ele>11.743879</ele>
        <time>2022-04-16T11:06:04.000Z</time>
      </trkpt>
      <trkpt lat="35.87945" lon="-5.33175">
        <ele>11.638882</ele>
        <time>2022-04-16T11:06:09.000Z</time>
      </trkpt>
      <trkpt lat="35.87942" lon="-5.33162">
        <ele>11.579569</ele>
        <time>2022-04-16T11:06:12.000Z</time>
      </trkpt>
      <trkpt lat="35.87939" lon="-5.33155">
        <ele>11.540067</ele>
        <time>2022-04-16T11:06:14.000Z</time>
      </trkpt>
      <trkpt lat="35.87938" lon="-5.33151">
        <ele>11.520877</ele>
        <time>2022-04-16T11:06:15.000Z</time>
      </trkpt>
      <trkpt lat="35.87932" lon="-5.33136">
        <ele>11.4456</ele>
        <time>2022-04-16T11:06:19.000Z</time>
      </trkpt>
      <trkpt lat="35.8793" lon="-5.33129">
        <ele>11.411508</ele>
        <time>2022-04-16T11:06:21.000Z</time>
      </trkpt>
      <trkpt lat="35.87922" lon="-5.33103">
        <ele>11.144692</ele>
        <time>2022-04-16T11:06:27.000Z</time>
      </trkpt>
      <trkpt lat="35.87919" lon="-5.33094">
        <ele>11.027006</ele>
        <time>2022-04-16T11:06:29.000Z</time>
      </trkpt>
      <trkpt lat="35.87913" lon="-5.3307">
        <ele>10.725656</ele>
        <time>2022-04-16T11:06:34.000Z</time>
      </trkpt>
      <trkpt lat="35.8791" lon="-5.33061">
        <ele>10.609626</ele>
        <time>2022-04-16T11:06:36.000Z</time>
      </trkpt>
      <trkpt lat="35.87909" lon="-5.33058">
        <ele>10.562821</ele>
        <time>2022-04-16T11:06:37.000Z</time>
      </trkpt>
      <trkpt lat="35.87905" lon="-5.33048">
        <ele>10.440664</ele>
        <time>2022-04-16T11:06:40.000Z</time>
      </trkpt>
      <trkpt lat="35.87903" lon="-5.33037">
        <ele>10.295486</ele>
        <time>2022-04-16T11:06:43.000Z</time>
      </trkpt>
      <trkpt lat="35.87897" lon="-5.33017">
        <ele>10.047289</ele>
        <time>2022-04-16T11:06:47.000Z</time>
      </trkpt>
      <trkpt lat="35.87892" lon="-5.33001">
        <ele>9.83662</ele>
        <time>2022-04-16T11:06:50.000Z</time>
      </trkpt>
      <trkpt lat="35.8789" lon="-5.32989">
        <ele>9.690228</ele>
        <time>2022-04-16T11:06:52.000Z</time>
      </trkpt>
      <trkpt lat="35.87887" lon="-5.32979">
        <ele>9.55398</ele>
        <time>2022-04-16T11:06:54.000Z</time>
      </trkpt>
      <trkpt lat="35.87882" lon="-5.32964">
        <ele>9.355077</ele>
        <time>2022-04-16T11:06:57.000Z</time>
      </trkpt>
      <trkpt lat="35.87872" lon="-5.32933">
        <ele>8.957227</ele>
        <time>2022-04-16T11:07:04.000Z</time>
      </trkpt>
      <trkpt lat="35.87867" lon="-5.32905">
        <ele>8.667883</ele>
        <time>2022-04-16T11:07:11.000Z</time>
      </trkpt>
      <trkpt lat="35.87866" lon="-5.32876">
        <ele>8.603102</ele>
        <time>2022-04-16T11:07:18.000Z</time>
      </trkpt>
      <trkpt lat="35.87873" lon="-5.32843">
        <ele>8.530269</ele>
        <time>2022-04-16T11:07:25.000Z</time>
      </trkpt>
      <trkpt lat="35.87874" lon="-5.32839">
        <ele>8.51924</ele>
        <time>2022-04-16T11:07:26.000Z</time>
      </trkpt>
      <trkpt lat="35.87882" lon="-5.32822">
        <ele>8.476938</ele>
        <time>2022-04-16T11:07:30.000Z</time>
      </trkpt>
      <trkpt lat="35.87887" lon="-5.32814">
        <ele>8.45479</ele>
        <time>2022-04-16T11:07:32.000Z</time>
      </trkpt>
      <trkpt lat="35.87899" lon="-5.328">
        <ele>8.409107</ele>
        <time>2022-04-16T11:07:36.000Z</time>
      </trkpt>
      <trkpt lat="35.87906" lon="-5.32794">
        <ele>8.386126</ele>
        <time>2022-04-16T11:07:38.000Z</time>
      </trkpt>
      <trkpt lat="35.87914" lon="-5.32788">
        <ele>8.360436</ele>
        <time>2022-04-16T11:07:40.000Z</time>
      </trkpt>
      <trkpt lat="35.87929" lon="-5.32779">
        <ele>8.315391</ele>
        <time>2022-04-16T11:07:44.000Z</time>
      </trkpt>
      <trkpt lat="35.87954" lon="-5.32765">
        <ele>8.240217</ele>
        <time>2022-04-16T11:07:50.000Z</time>
      </trkpt>
      <trkpt lat="35.87974" lon="-5.32755">
        <ele>8.193575</ele>
        <time>2022-04-16T11:07:55.000Z</time>
      </trkpt>
      <trkpt lat="35.87985" lon="-5.32748">
        <ele>8.199835</ele>
        <time>2022-04-16T11:07:58.000Z</time>
      </trkpt>
      <trkpt lat="35.88012" lon="-5.32726">
        <ele>8.216654</ele>
        <time>2022-04-16T11:08:05.000Z</time>
      </trkpt>
      <trkpt lat="35.8802" lon="-5.32718">
        <ele>8.222158</ele>
        <time>2022-04-16T11:08:07.000Z</time>
      </trkpt>
      <trkpt lat="35.88026" lon="-5.3271">
        <ele>8.22664</ele>
        <time>2022-04-16T11:08:09.000Z</time>
      </trkpt>
      <trkpt lat="35.8804" lon="-5.32692">
        <ele>8.237201</ele>
        <time>2022-04-16T11:08:13.000Z</time>
      </trkpt>
      <trkpt lat="35.88043" lon="-5.32688">
        <ele>8.239781</ele>
        <time>2022-04-16T11:08:14.000Z</time>
      </trkpt>
      <trkpt lat="35.88063" lon="-5.32662">
        <ele>8.254801</ele>
        <time>2022-04-16T11:08:20.000Z</time>
      </trkpt>
      <trkpt lat="35.88082" lon="-5.32637">
        <ele>8.269221</ele>
        <time>2022-04-16T11:08:26.000Z</time>
      </trkpt>
      <trkpt lat="35.88085" lon="-5.32632">
        <ele>8.271655</ele>
        <time>2022-04-16T11:08:27.000Z</time>
      </trkpt>
      <trkpt lat="35.8809" lon="-5.32625">
        <ele>8.275903</ele>
        <time>2022-04-16T11:08:29.000Z</time>
      </trkpt>
      <trkpt lat="35.88113" lon="-5.32594">
        <ele>8.420464</ele>
        <time>2022-04-16T11:08:36.000Z</time>
      </trkpt>
      <trkpt lat="35.88117" lon="-5.32589">
        <ele>8.471042</ele>
        <time>2022-04-16T11:08:37.000Z</time>
      </trkpt>
      <trkpt lat="35.8813" lon="-5.32573">
        <ele>8.638759</ele>
        <time>2022-04-16T11:08:41.000Z</time>
      </trkpt>
      <trkpt lat="35.8814" lon="-5.3256">
        <ele>8.77071</ele>
        <time>2022-04-16T11:08:44.000Z</time>
      </trkpt>
      <trkpt lat="35.88165" lon="-5.32534">
        <ele>9.058274</ele>
        <time>2022-04-16T11:08:51.000Z</time>
      </trkpt>
      <trkpt lat="35.88168" lon="-5.32531">
        <ele>9.095684</ele>
        <time>2022-04-16T11:08:52.000Z</time>
      </trkpt>
      <trkpt lat="35.88174" lon="-5.32524">
        <ele>9.169817</ele>
        <time>2022-04-16T11:08:54.000Z</time>
      </trkpt>
      <trkpt lat="35.88185" lon="-5.32516">
        <ele>9.282502</ele>
        <time>2022-04-16T11:08:57.000Z</time>
      </trkpt>
      <trkpt lat="35.88188" lon="-5.32513">
        <ele>9.3182</ele>
        <time>2022-04-16T11:08:58.000Z</time>
      </trkpt>
      <trkpt lat="35.88202" lon="-5.32504">
        <ele>9.457927</ele>
        <time>2022-04-16T11:09:02.000Z</time>
      </trkpt>
      <trkpt lat="35.8821" lon="-5.32499">
        <ele>9.530874</ele>
        <time>2022-04-16T11:09:04.000Z</time>
      </trkpt>
      <trkpt lat="35.88221" lon="-5.32494">
        <ele>9.637505</ele>
        <time>2022-04-16T11:09:07.000Z</time>
      </trkpt>
      <trkpt lat="35.88228" lon="-5.32488">
        <ele>9.718681</ele>
        <time>2022-04-16T11:09:09.000Z</time>
      </trkpt>
      <trkpt lat="35.88235" lon="-5.32483">
        <ele>9.789038</ele>
        <time>2022-04-16T11:09:13.000Z</time>
      </trkpt>
      <trkpt lat="35.88238" lon="-5.32483">
        <ele>9.809994</ele>
        <time>2022-04-16T11:09:22.000Z</time>
      </trkpt>
      <trkpt lat="35.88238" lon="-5.32483">
        <ele>9.809994</ele>
        <time>2022-04-16T11:09:47.000Z</time>
      </trkpt>
      <trkpt lat="35.88238" lon="-5.32483">
        <ele>9.811918</ele>
        <time>2022-04-16T11:09:58.000Z</time>
      </trkpt>
      <trkpt lat="35.88245" lon="-5.32479">
        <ele>9.883117</ele>
        <time>2022-04-16T11:10:01.000Z</time>
      </trkpt>
      <trkpt lat="35.88263" lon="-5.32468">
        <ele>10.277395</ele>
        <time>2022-04-16T11:10:08.000Z</time>
      </trkpt>
      <trkpt lat="35.88266" lon="-5.32467">
        <ele>10.333685</ele>
        <time>2022-04-16T11:10:09.000Z</time>
      </trkpt>
      <trkpt lat="35.88279" lon="-5.32461">
        <ele>10.613235</ele>
        <time>2022-04-16T11:10:14.000Z</time>
      </trkpt>
      <trkpt lat="35.88291" lon="-5.32455">
        <ele>10.889738</ele>
        <time>2022-04-16T11:10:19.000Z</time>
      </trkpt>
      <trkpt lat="35.88295" lon="-5.32453">
        <ele>10.961447</ele>
        <time>2022-04-16T11:10:20.000Z</time>
      </trkpt>
      <trkpt lat="35.88315" lon="-5.32443">
        <ele>11.410935</ele>
        <time>2022-04-16T11:10:27.000Z</time>
      </trkpt>
      <trkpt lat="35.8832" lon="-5.32439">
        <ele>11.536062</ele>
        <time>2022-04-16T11:10:29.000Z</time>
      </trkpt>
      <trkpt lat="35.88333" lon="-5.32428">
        <ele>11.84408</ele>
        <time>2022-04-16T11:10:34.000Z</time>
      </trkpt>
      <trkpt lat="35.88338" lon="-5.32423">
        <ele>11.973005</ele>
        <time>2022-04-16T11:10:36.000Z</time>
      </trkpt>
      <trkpt lat="35.88358" lon="-5.32407">
        <ele>12.466699</ele>
        <time>2022-04-16T11:10:43.000Z</time>
      </trkpt>
      <trkpt lat="35.8837" lon="-5.32395">
        <ele>12.780602</ele>
        <time>2022-04-16T11:10:47.000Z</time>
      </trkpt>
      <trkpt lat="35.88381" lon="-5.32385">
        <ele>13.060413</ele>
        <time>2022-04-16T11:10:50.000Z</time>
      </trkpt>
      <trkpt lat="35.88398" lon="-5.32369">
        <ele>13.483792</ele>
        <time>2022-04-16T11:10:55.000Z</time>
      </trkpt>
      <trkpt lat="35.88406" lon="-5.32362">
        <ele>13.530541</ele>
        <time>2022-04-16T11:10:57.000Z</time>
      </trkpt>
      <trkpt lat="35.88416" lon="-5.32353">
        <ele>13.520348</ele>
        <time>2022-04-16T11:11:00.000Z</time>
      </trkpt>
      <trkpt lat="35.88442" lon="-5.32329">
        <ele>13.494303</ele>
        <time>2022-04-16T11:11:07.000Z</time>
      </trkpt>
      <trkpt lat="35.88446" lon="-5.32324">
        <ele>13.489758</ele>
        <time>2022-04-16T11:11:08.000Z</time>
      </trkpt>
      <trkpt lat="35.88461" lon="-5.3231">
        <ele>13.475027</ele>
        <time>2022-04-16T11:11:12.000Z</time>
      </trkpt>
      <trkpt lat="35.88491" lon="-5.32283">
        <ele>13.44502</ele>
        <time>2022-04-16T11:11:20.000Z</time>
      </trkpt>
      <trkpt lat="35.88494" lon="-5.3228">
        <ele>13.441692</ele>
        <time>2022-04-16T11:11:22.000Z</time>
      </trkpt>
      <trkpt lat="35.88494" lon="-5.32279">
        <ele>13.441209</ele>
        <time>2022-04-16T11:11:23.000Z</time>
      </trkpt>
      <trkpt lat="35.88494" lon="-5.32279">
        <ele>13.440956</ele>
        <time>2022-04-16T11:11:30.000Z</time>
      </trkpt>
      <trkpt lat="35.88494" lon="-5.32279">
        <ele>13.440956</ele>
        <time>2022-04-16T11:11:41.000Z</time>
      </trkpt>
      <trkpt lat="35.88494" lon="-5.32279">
        <ele>13.440956</ele>
        <time>2022-04-16T11:11:46.000Z</time>
      </trkpt>
      <trkpt lat="35.88494" lon="-5.32279">
        <ele>13.440956</ele>
        <time>2022-04-16T11:11:48.000Z</time>
      </trkpt>
      <trkpt lat="35.88493" lon="-5.32282">
        <ele>13.438692</ele>
        <time>2022-04-16T11:12:08.000Z</time>
      </trkpt>
      <trkpt lat="35.88493" lon="-5.32282">
        <ele>13.438187</ele>
        <time>2022-04-16T11:12:15.000Z</time>
      </trkpt>
      <trkpt lat="35.88492" lon="-5.3228">
        <ele>13.436553</ele>
        <time>2022-04-16T11:12:20.000Z</time>
      </trkpt>
      <trkpt lat="35.88492" lon="-5.32281">
        <ele>13.436163</ele>
        <time>2022-04-16T11:12:30.000Z</time>
      </trkpt>
      <trkpt lat="35.88492" lon="-5.32281">
        <ele>13.435922</ele>
        <time>2022-04-16T11:12:35.000Z</time>
      </trkpt>
      <trkpt lat="35.88492" lon="-5.32281">
        <ele>13.435922</ele>
        <time>2022-04-16T11:12:39.000Z</time>
      </trkpt>
      <trkpt lat="35.88492" lon="-5.32281">
        <ele>13.435922</ele>
        <time>2022-04-16T11:12:41.000Z</time>
      </trkpt>
      <trkpt lat="35.88492" lon="-5.32281">
        <ele>13.435922</ele>
        <time>2022-04-16T11:12:57.000Z</time>
      </trkpt>
      <trkpt lat="35.88492" lon="-5.32281">
        <ele>13.435673</ele>
        <time>2022-04-16T11:13:00.000Z</time>
      </trkpt>
      <trkpt lat="35.88499" lon="-5.32275">
        <ele>13.42908</ele>
        <time>2022-04-16T11:13:03.000Z</time>
      </trkpt>
      <trkpt lat="35.88503" lon="-5.32273">
        <ele>13.426107</ele>
        <time>2022-04-16T11:13:04.000Z</time>
      </trkpt>
      <trkpt lat="35.8852" lon="-5.32258">
        <ele>13.408922</ele>
        <time>2022-04-16T11:13:10.000Z</time>
      </trkpt>
      <trkpt lat="35.88542" lon="-5.32236">
        <ele>13.403237</ele>
        <time>2022-04-16T11:13:17.000Z</time>
      </trkpt>
      <trkpt lat="35.88575" lon="-5.32206">
        <ele>13.46476</ele>
        <time>2022-04-16T11:13:26.000Z</time>
      </trkpt>
      <trkpt lat="35.88608" lon="-5.32177">
        <ele>13.526304</ele>
        <time>2022-04-16T11:13:35.000Z</time>
      </trkpt>
      <trkpt lat="35.88614" lon="-5.3217">
        <ele>13.539228</ele>
        <time>2022-04-16T11:13:37.000Z</time>
      </trkpt>
      <trkpt lat="35.88623" lon="-5.32159">
        <ele>13.558644</ele>
        <time>2022-04-16T11:13:40.000Z</time>
      </trkpt>
      <trkpt lat="35.88626" lon="-5.32155">
        <ele>13.565082</ele>
        <time>2022-04-16T11:13:41.000Z</time>
      </trkpt>
      <trkpt lat="35.88646" lon="-5.32123">
        <ele>13.615058</ele>
        <time>2022-04-16T11:13:49.000Z</time>
      </trkpt>
      <trkpt lat="35.88648" lon="-5.32119">
        <ele>13.62116</ele>
        <time>2022-04-16T11:13:50.000Z</time>
      </trkpt>
      <trkpt lat="35.88654" lon="-5.32107">
        <ele>13.638821</ele>
        <time>2022-04-16T11:13:53.000Z</time>
      </trkpt>
      <trkpt lat="35.88659" lon="-5.32097">
        <ele>13.653362</ele>
        <time>2022-04-16T11:13:56.000Z</time>
      </trkpt>
      <trkpt lat="35.88672" lon="-5.32073">
        <ele>13.671027</ele>
        <time>2022-04-16T11:14:04.000Z</time>
      </trkpt>
      <trkpt lat="35.88689" lon="-5.32043">
        <ele>13.680446</ele>
        <time>2022-04-16T11:14:12.000Z</time>
      </trkpt>
      <trkpt lat="35.88704" lon="-5.32016">
        <ele>13.688658</ele>
        <time>2022-04-16T11:14:19.000Z</time>
      </trkpt>
      <trkpt lat="35.88719" lon="-5.31993">
        <ele>13.696131</ele>
        <time>2022-04-16T11:14:26.000Z</time>
      </trkpt>
      <trkpt lat="35.88727" lon="-5.31977">
        <ele>13.700935</ele>
        <time>2022-04-16T11:14:31.000Z</time>
      </trkpt>
      <trkpt lat="35.88735" lon="-5.31958">
        <ele>13.706307</ele>
        <time>2022-04-16T11:14:37.000Z</time>
      </trkpt>
      <trkpt lat="35.88737" lon="-5.31952">
        <ele>13.707953</ele>
        <time>2022-04-16T11:14:39.000Z</time>
      </trkpt>
      <trkpt lat="35.88741" lon="-5.3194">
        <ele>13.71114</ele>
        <time>2022-04-16T11:14:45.000Z</time>
      </trkpt>
      <trkpt lat="35.88742" lon="-5.31937">
        <ele>13.71213</ele>
        <time>2022-04-16T11:14:48.000Z</time>
      </trkpt>
      <trkpt lat="35.88742" lon="-5.31936">
        <ele>13.712416</ele>
        <time>2022-04-16T11:14:49.000Z</time>
      </trkpt>
      <trkpt lat="35.88742" lon="-5.31929">
        <ele>13.71413</ele>
        <time>2022-04-16T11:14:52.000Z</time>
      </trkpt>
      <trkpt lat="35.88742" lon="-5.31907">
        <ele>13.719737</ele>
        <time>2022-04-16T11:14:58.000Z</time>
      </trkpt>
      <trkpt lat="35.88744" lon="-5.31879">
        <ele>13.699895</ele>
        <time>2022-04-16T11:15:04.000Z</time>
      </trkpt>
      <trkpt lat="35.88746" lon="-5.31834">
        <ele>13.63701</ele>
        <time>2022-04-16T11:15:14.000Z</time>
      </trkpt>
      <trkpt lat="35.88746" lon="-5.3183">
        <ele>13.631581</ele>
        <time>2022-04-16T11:15:15.000Z</time>
      </trkpt>
      <trkpt lat="35.88746" lon="-5.31802">
        <ele>13.593508</ele>
        <time>2022-04-16T11:15:22.000Z</time>
      </trkpt>
      <trkpt lat="35.88746" lon="-5.31775">
        <ele>13.555711</ele>
        <time>2022-04-16T11:15:30.000Z</time>
      </trkpt>
      <trkpt lat="35.88748" lon="-5.31755">
        <ele>13.527235</ele>
        <time>2022-04-16T11:15:36.000Z</time>
      </trkpt>
      <trkpt lat="35.8875" lon="-5.31736">
        <ele>13.500833</ele>
        <time>2022-04-16T11:15:41.000Z</time>
      </trkpt>
      <trkpt lat="35.88747" lon="-5.3172">
        <ele>13.47846</ele>
        <time>2022-04-16T11:15:47.000Z</time>
      </trkpt>
      <trkpt lat="35.88747" lon="-5.31716">
        <ele>13.472808</ele>
        <time>2022-04-16T11:15:52.000Z</time>
      </trkpt>
      <trkpt lat="35.88747" lon="-5.31716">
        <ele>13.472808</ele>
        <time>2022-04-16T11:16:00.000Z</time>
      </trkpt>
      <trkpt lat="35.88747" lon="-5.31716">
        <ele>13.472808</ele>
        <time>2022-04-16T11:16:03.000Z</time>
      </trkpt>
      <trkpt lat="35.88749" lon="-5.31716">
        <ele>13.469721</ele>
        <time>2022-04-16T11:16:16.000Z</time>
      </trkpt>
      <trkpt lat="35.88751" lon="-5.31716">
        <ele>13.466117</ele>
        <time>2022-04-16T11:16:17.000Z</time>
      </trkpt>
      <trkpt lat="35.88757" lon="-5.31714">
        <ele>13.45629</ele>
        <time>2022-04-16T11:16:21.000Z</time>
      </trkpt>
      <trkpt lat="35.88758" lon="-5.31713">
        <ele>13.453795</ele>
        <time>2022-04-16T11:16:22.000Z</time>
      </trkpt>
      <trkpt lat="35.88759" lon="-5.31712">
        <ele>13.451304</ele>
        <time>2022-04-16T11:16:23.000Z</time>
      </trkpt>
      <trkpt lat="35.88766" lon="-5.31713">
        <ele>13.438594</ele>
        <time>2022-04-16T11:16:27.000Z</time>
      </trkpt>
      <trkpt lat="35.88774" lon="-5.31715">
        <ele>13.424675</ele>
        <time>2022-04-16T11:16:31.000Z</time>
      </trkpt>
      <trkpt lat="35.88775" lon="-5.31716">
        <ele>13.421891</ele>
        <time>2022-04-16T11:16:32.000Z</time>
      </trkpt>
      <trkpt lat="35.8878" lon="-5.31717">
        <ele>13.414811</ele>
        <time>2022-04-16T11:16:34.000Z</time>
      </trkpt>
      <trkpt lat="35.88789" lon="-5.31718">
        <ele>13.277765</ele>
        <time>2022-04-16T11:16:38.000Z</time>
      </trkpt>
      <trkpt lat="35.88798" lon="-5.3172">
        <ele>13.136418</ele>
        <time>2022-04-16T11:16:42.000Z</time>
      </trkpt>
      <trkpt lat="35.88802" lon="-5.31719">
        <ele>13.067523</ele>
        <time>2022-04-16T11:16:44.000Z</time>
      </trkpt>
      <trkpt lat="35.88813" lon="-5.31721">
        <ele>12.904532</ele>
        <time>2022-04-16T11:16:48.000Z</time>
      </trkpt>
      <trkpt lat="35.88819" lon="-5.31721">
        <ele>12.808436</ele>
        <time>2022-04-16T11:16:51.000Z</time>
      </trkpt>
      <trkpt lat="35.88827" lon="-5.31721">
        <ele>12.69543</ele>
        <time>2022-04-16T11:16:56.000Z</time>
      </trkpt>
      <trkpt lat="35.88831" lon="-5.31722">
        <ele>12.634931</ele>
        <time>2022-04-16T11:16:59.000Z</time>
      </trkpt>
      <trkpt lat="35.88834" lon="-5.31721">
        <ele>12.579541</ele>
        <time>2022-04-16T11:17:01.000Z</time>
      </trkpt>
      <trkpt lat="35.88845" lon="-5.31721">
        <ele>12.420785</ele>
        <time>2022-04-16T11:17:06.000Z</time>
      </trkpt>
      <trkpt lat="35.88849" lon="-5.31719">
        <ele>12.355919</ele>
        <time>2022-04-16T11:17:08.000Z</time>
      </trkpt>
      <trkpt lat="35.88856" lon="-5.3172">
        <ele>12.237414</ele>
        <time>2022-04-16T11:17:11.000Z</time>
      </trkpt>
      <trkpt lat="35.88864" lon="-5.31721">
        <ele>12.116895</ele>
        <time>2022-04-16T11:17:14.000Z</time>
      </trkpt>
      <trkpt lat="35.88872" lon="-5.3172">
        <ele>12.005247</ele>
        <time>2022-04-16T11:17:17.000Z</time>
      </trkpt>
      <trkpt lat="35.88877" lon="-5.31719">
        <ele>11.917869</ele>
        <time>2022-04-16T11:17:19.000Z</time>
      </trkpt>
      <trkpt lat="35.88888" lon="-5.31717">
        <ele>11.757902</ele>
        <time>2022-04-16T11:17:22.000Z</time>
      </trkpt>
      <trkpt lat="35.88898" lon="-5.31714">
        <ele>11.592073</ele>
        <time>2022-04-16T11:17:26.000Z</time>
      </trkpt>
      <trkpt lat="35.88909" lon="-5.31711">
        <ele>11.420641</ele>
        <time>2022-04-16T11:17:30.000Z</time>
      </trkpt>
      <trkpt lat="35.88911" lon="-5.31713">
        <ele>11.390005</ele>
        <time>2022-04-16T11:17:31.000Z</time>
      </trkpt>
      <trkpt lat="35.88913" lon="-5.31716">
        <ele>11.341879</ele>
        <time>2022-04-16T11:17:32.000Z</time>
      </trkpt>
      <trkpt lat="35.88916" lon="-5.31726">
        <ele>11.211352</ele>
        <time>2022-04-16T11:17:35.000Z</time>
      </trkpt>
      <trkpt lat="35.88921" lon="-5.31748">
        <ele>10.9287</ele>
        <time>2022-04-16T11:17:41.000Z</time>
      </trkpt>
      <trkpt lat="35.88928" lon="-5.31771">
        <ele>10.662202</ele>
        <time>2022-04-16T11:17:47.000Z</time>
      </trkpt>
      <trkpt lat="35.88933" lon="-5.3179">
        <ele>10.620743</ele>
        <time>2022-04-16T11:17:52.000Z</time>
      </trkpt>
      <trkpt lat="35.88939" lon="-5.31799">
        <ele>10.59641</ele>
        <time>2022-04-16T11:17:55.000Z</time>
      </trkpt>
      <trkpt lat="35.88941" lon="-5.318">
        <ele>10.589648</ele>
        <time>2022-04-16T11:17:56.000Z</time>
      </trkpt>
      <trkpt lat="35.88958" lon="-5.31805">
        <ele>10.545179</ele>
        <time>2022-04-16T11:18:02.000Z</time>
      </trkpt>
      <trkpt lat="35.88968" lon="-5.3181">
        <ele>10.516277</ele>
        <time>2022-04-16T11:18:05.000Z</time>
      </trkpt>
      <trkpt lat="35.88976" lon="-5.31817">
        <ele>10.490054</ele>
        <time>2022-04-16T11:18:09.000Z</time>
      </trkpt>
      <trkpt lat="35.88982" lon="-5.31822">
        <ele>10.471436</ele>
        <time>2022-04-16T11:18:14.000Z</time>
      </trkpt>
      <trkpt lat="35.88982" lon="-5.31826">
        <ele>10.462279</ele>
        <time>2022-04-16T11:18:16.000Z</time>
      </trkpt>
      <trkpt lat="35.88983" lon="-5.31845">
        <ele>10.423265</ele>
        <time>2022-04-16T11:18:21.000Z</time>
      </trkpt>
      <trkpt lat="35.88985" lon="-5.31848">
        <ele>10.415613</ele>
        <time>2022-04-16T11:18:22.000Z</time>
      </trkpt>
      <trkpt lat="35.88992" lon="-5.31871">
        <ele>10.363833</ele>
        <time>2022-04-16T11:18:28.000Z</time>
      </trkpt>
      <trkpt lat="35.88996" lon="-5.31896">
        <ele>10.310096</ele>
        <time>2022-04-16T11:18:36.000Z</time>
      </trkpt>
      <trkpt lat="35.88997" lon="-5.31898">
        <ele>10.304705</ele>
        <time>2022-04-16T11:18:37.000Z</time>
      </trkpt>
      <trkpt lat="35.88997" lon="-5.31903">
        <ele>10.293903</ele>
        <time>2022-04-16T11:18:40.000Z</time>
      </trkpt>
      <trkpt lat="35.88997" lon="-5.31905">
        <ele>10.291141</ele>
        <time>2022-04-16T11:18:41.000Z</time>
      </trkpt>
      <trkpt lat="35.88997" lon="-5.31911">
        <ele>10.277802</ele>
        <time>2022-04-16T11:18:45.000Z</time>
      </trkpt>
      <trkpt lat="35.88996" lon="-5.31916">
        <ele>10.267317</ele>
        <time>2022-04-16T11:18:47.000Z</time>
      </trkpt>
      <trkpt lat="35.88996" lon="-5.31918">
        <ele>10.261811</ele>
        <time>2022-04-16T11:18:48.000Z</time>
      </trkpt>
      <trkpt lat="35.88995" lon="-5.31924">
        <ele>10.250504</ele>
        <time>2022-04-16T11:18:50.000Z</time>
      </trkpt>
      <trkpt lat="35.88993" lon="-5.31927">
        <ele>10.240597</ele>
        <time>2022-04-16T11:18:52.000Z</time>
      </trkpt>
      <trkpt lat="35.88992" lon="-5.31929">
        <ele>10.235804</ele>
        <time>2022-04-16T11:18:54.000Z</time>
      </trkpt>
      <trkpt lat="35.88991" lon="-5.3193">
        <ele>10.234234</ele>
        <time>2022-04-16T11:19:00.000Z</time>
      </trkpt>
      <trkpt lat="35.88991" lon="-5.31933">
        <ele>10.228786</ele>
        <time>2022-04-16T11:19:02.000Z</time>
      </trkpt>
      <trkpt lat="35.8899" lon="-5.3194">
        <ele>10.213235</ele>
        <time>2022-04-16T11:19:06.000Z</time>
      </trkpt>
      <trkpt lat="35.88987" lon="-5.31949">
        <ele>10.195629</ele>
        <time>2022-04-16T11:19:13.000Z</time>
      </trkpt>
      <trkpt lat="35.88986" lon="-5.3195">
        <ele>10.193698</ele>
        <time>2022-04-16T11:19:14.000Z</time>
      </trkpt>
      <trkpt lat="35.88985" lon="-5.31951">
        <ele>10.190607</ele>
        <time>2022-04-16T11:19:16.000Z</time>
      </trkpt>
      <trkpt lat="35.88984" lon="-5.31955">
        <ele>10.184643</ele>
        <time>2022-04-16T11:19:19.000Z</time>
      </trkpt>
      <trkpt lat="35.8898" lon="-5.31964">
        <ele>10.170199</ele>
        <time>2022-04-16T11:19:26.000Z</time>
      </trkpt>
      <trkpt lat="35.8898" lon="-5.31965">
        <ele>10.16737</ele>
        <time>2022-04-16T11:19:27.000Z</time>
      </trkpt>
      <trkpt lat="35.88985" lon="-5.3197">
        <ele>10.155778</ele>
        <time>2022-04-16T11:19:31.000Z</time>
      </trkpt>
      <trkpt lat="35.88988" lon="-5.31973">
        <ele>10.149258</ele>
        <time>2022-04-16T11:19:34.000Z</time>
      </trkpt>
      <trkpt lat="35.88988" lon="-5.31973">
        <ele>10.148349</ele>
        <time>2022-04-16T11:19:36.000Z</time>
      </trkpt>
      <trkpt lat="35.88988" lon="-5.31973">
        <ele>10.147453</ele>
        <time>2022-04-16T11:19:42.000Z</time>
      </trkpt>
      <trkpt lat="35.88988" lon="-5.31973">
        <ele>10.147453</ele>
        <time>2022-04-16T11:19:48.000Z</time>
      </trkpt>
      <trkpt lat="35.88988" lon="-5.31973">
        <ele>10.147453</ele>
        <time>2022-04-16T11:19:53.000Z</time>
      </trkpt>
      <trkpt lat="35.88988" lon="-5.31973">
        <ele>10.147453</ele>
        <time>2022-04-16T11:19:54.000Z</time>
      </trkpt>
      <trkpt lat="35.88988" lon="-5.31973">
        <ele>10.147453</ele>
        <time>2022-04-16T11:20:01.000Z</time>
      </trkpt>
      <trkpt lat="35.88988" lon="-5.31972">
        <ele>10.146701</ele>
        <time>2022-04-16T11:20:03.000Z</time>
      </trkpt>
      <trkpt lat="35.88991" lon="-5.31965">
        <ele>10.135042</ele>
        <time>2022-04-16T11:20:06.000Z</time>
      </trkpt>
      <trkpt lat="35.88995" lon="-5.31962">
        <ele>10.127008</ele>
        <time>2022-04-16T11:20:08.000Z</time>
      </trkpt>
      <trkpt lat="35.88999" lon="-5.31963">
        <ele>10.119616</ele>
        <time>2022-04-16T11:20:10.000Z</time>
      </trkpt>
      <trkpt lat="35.88997" lon="-5.31975">
        <ele>10.10096</ele>
        <time>2022-04-16T11:20:14.000Z</time>
      </trkpt>
      <trkpt lat="35.88994" lon="-5.31987">
        <ele>10.083443</ele>
        <time>2022-04-16T11:20:18.000Z</time>
      </trkpt>
      <trkpt lat="35.88992" lon="-5.31989">
        <ele>10.079</ele>
        <time>2022-04-16T11:20:19.000Z</time>
      </trkpt>
      <trkpt lat="35.88985" lon="-5.31999">
        <ele>10.058641</ele>
        <time>2022-04-16T11:20:25.000Z</time>
      </trkpt>
      <trkpt lat="35.88982" lon="-5.32004">
        <ele>10.050454</ele>
        <time>2022-04-16T11:20:27.000Z</time>
      </trkpt>
      <trkpt lat="35.88974" lon="-5.32011">
        <ele>10.032595</ele>
        <time>2022-04-16T11:20:30.000Z</time>
      </trkpt>
      <trkpt lat="35.88967" lon="-5.3203">
        <ele>10.002624</ele>
        <time>2022-04-16T11:20:35.000Z</time>
      </trkpt>
      <trkpt lat="35.88968" lon="-5.32033">
        <ele>9.99707</ele>
        <time>2022-04-16T11:20:36.000Z</time>
      </trkpt>
      <trkpt lat="35.88972" lon="-5.32039">
        <ele>9.986734</ele>
        <time>2022-04-16T11:20:38.000Z</time>
      </trkpt>
      <trkpt lat="35.88973" lon="-5.32041">
        <ele>9.981617</ele>
        <time>2022-04-16T11:20:39.000Z</time>
      </trkpt>
      <trkpt lat="35.88979" lon="-5.32047">
        <ele>9.968876</ele>
        <time>2022-04-16T11:20:41.000Z</time>
      </trkpt>
      <trkpt lat="35.88991" lon="-5.32055">
        <ele>9.94432</ele>
        <time>2022-04-16T11:20:45.000Z</time>
      </trkpt>
      <trkpt lat="35.89003" lon="-5.32067">
        <ele>9.915905</ele>
        <time>2022-04-16T11:20:51.000Z</time>
      </trkpt>
      <trkpt lat="35.89014" lon="-5.32075">
        <ele>9.893251</ele>
        <time>2022-04-16T11:20:55.000Z</time>
      </trkpt>
      <trkpt lat="35.89019" lon="-5.32081">
        <ele>9.880672</ele>
        <time>2022-04-16T11:20:57.000Z</time>
      </trkpt>
      <trkpt lat="35.89036" lon="-5.32098">
        <ele>9.732753</ele>
        <time>2022-04-16T11:21:03.000Z</time>
      </trkpt>
      <trkpt lat="35.89039" lon="-5.32102">
        <ele>9.699286</ele>
        <time>2022-04-16T11:21:04.000Z</time>
      </trkpt>
      <trkpt lat="35.89053" lon="-5.32117">
        <ele>9.563147</ele>
        <time>2022-04-16T11:21:08.000Z</time>
      </trkpt>
      <trkpt lat="35.89056" lon="-5.32121">
        <ele>9.529341</ele>
        <time>2022-04-16T11:21:09.000Z</time>
      </trkpt>
      <trkpt lat="35.89063" lon="-5.32128">
        <ele>9.4664</ele>
        <time>2022-04-16T11:21:11.000Z</time>
      </trkpt>
      <trkpt lat="35.89072" lon="-5.32141">
        <ele>9.363397</ele>
        <time>2022-04-16T11:21:14.000Z</time>
      </trkpt>
      <trkpt lat="35.89077" lon="-5.32144">
        <ele>9.325709</ele>
        <time>2022-04-16T11:21:15.000Z</time>
      </trkpt>
      <trkpt lat="35.89086" lon="-5.3215">
        <ele>9.249509</ele>
        <time>2022-04-16T11:21:17.000Z</time>
      </trkpt>
      <trkpt lat="35.89094" lon="-5.32158">
        <ele>9.176796</ele>
        <time>2022-04-16T11:21:19.000Z</time>
      </trkpt>
      <trkpt lat="35.89097" lon="-5.32167">
        <ele>9.115417</ele>
        <time>2022-04-16T11:21:21.000Z</time>
      </trkpt>
      <trkpt lat="35.89112" lon="-5.32189">
        <ele>8.948222</ele>
        <time>2022-04-16T11:21:25.000Z</time>
      </trkpt>
      <trkpt lat="35.89116" lon="-5.32193">
        <ele>8.913659</ele>
        <time>2022-04-16T11:21:26.000Z</time>
      </trkpt>
      <trkpt lat="35.8912" lon="-5.32199">
        <ele>8.864496</ele>
        <time>2022-04-16T11:21:27.000Z</time>
      </trkpt>
      <trkpt lat="35.89128" lon="-5.32209">
        <ele>8.782557</ele>
        <time>2022-04-16T11:21:29.000Z</time>
      </trkpt>
      <trkpt lat="35.89132" lon="-5.32213">
        <ele>8.742916</ele>
        <time>2022-04-16T11:21:30.000Z</time>
      </trkpt>
      <trkpt lat="35.89136" lon="-5.32217">
        <ele>8.70476</ele>
        <time>2022-04-16T11:21:31.000Z</time>
      </trkpt>
      <trkpt lat="35.89165" lon="-5.32257">
        <ele>8.575814</ele>
        <time>2022-04-16T11:21:39.000Z</time>
      </trkpt>
      <trkpt lat="35.89179" lon="-5.32276">
        <ele>8.584929</ele>
        <time>2022-04-16T11:21:43.000Z</time>
      </trkpt>
      <trkpt lat="35.89184" lon="-5.32286">
        <ele>8.589235</ele>
        <time>2022-04-16T11:21:45.000Z</time>
      </trkpt>
      <trkpt lat="35.89186" lon="-5.32289">
        <ele>8.590692</ele>
        <time>2022-04-16T11:21:46.000Z</time>
      </trkpt>
      <trkpt lat="35.8919" lon="-5.32293">
        <ele>8.592876</ele>
        <time>2022-04-16T11:21:47.000Z</time>
      </trkpt>
      <trkpt lat="35.89199" lon="-5.32304">
        <ele>8.598477</ele>
        <time>2022-04-16T11:21:50.000Z</time>
      </trkpt>
      <trkpt lat="35.89202" lon="-5.32308">
        <ele>8.600379</ele>
        <time>2022-04-16T11:21:51.000Z</time>
      </trkpt>
      <trkpt lat="35.89208" lon="-5.32316">
        <ele>8.604355</ele>
        <time>2022-04-16T11:21:53.000Z</time>
      </trkpt>
      <trkpt lat="35.89211" lon="-5.3232">
        <ele>8.606404</ele>
        <time>2022-04-16T11:21:54.000Z</time>
      </trkpt>
      <trkpt lat="35.89214" lon="-5.32324">
        <ele>8.608532</ele>
        <time>2022-04-16T11:21:55.000Z</time>
      </trkpt>
      <trkpt lat="35.8922" lon="-5.32332">
        <ele>8.61229</ele>
        <time>2022-04-16T11:21:57.000Z</time>
      </trkpt>
      <trkpt lat="35.89232" lon="-5.3235">
        <ele>8.620822</ele>
        <time>2022-04-16T11:22:01.000Z</time>
      </trkpt>
      <trkpt lat="35.89235" lon="-5.32354">
        <ele>8.622864</ele>
        <time>2022-04-16T11:22:02.000Z</time>
      </trkpt>
      <trkpt lat="35.89248" lon="-5.32371">
        <ele>8.631129</ele>
        <time>2022-04-16T11:22:06.000Z</time>
      </trkpt>
      <trkpt lat="35.89251" lon="-5.32376">
        <ele>8.633395</ele>
        <time>2022-04-16T11:22:07.000Z</time>
      </trkpt>
      <trkpt lat="35.89265" lon="-5.32394">
        <ele>8.642087</ele>
        <time>2022-04-16T11:22:11.000Z</time>
      </trkpt>
      <trkpt lat="35.89275" lon="-5.32407">
        <ele>8.656356</ele>
        <time>2022-04-16T11:22:14.000Z</time>
      </trkpt>
      <trkpt lat="35.89302" lon="-5.32444">
        <ele>8.712143</ele>
        <time>2022-04-16T11:22:22.000Z</time>
      </trkpt>
      <trkpt lat="35.89306" lon="-5.32449">
        <ele>8.719231</ele>
        <time>2022-04-16T11:22:23.000Z</time>
      </trkpt>
      <trkpt lat="35.89314" lon="-5.32464">
        <ele>8.739701</ele>
        <time>2022-04-16T11:22:26.000Z</time>
      </trkpt>
      <trkpt lat="35.8932" lon="-5.32473">
        <ele>8.753291</ele>
        <time>2022-04-16T11:22:28.000Z</time>
      </trkpt>
      <trkpt lat="35.89331" lon="-5.32487">
        <ele>8.77438</ele>
        <time>2022-04-16T11:22:31.000Z</time>
      </trkpt>
      <trkpt lat="35.89334" lon="-5.32492">
        <ele>8.781491</ele>
        <time>2022-04-16T11:22:32.000Z</time>
      </trkpt>
      <trkpt lat="35.89351" lon="-5.32514">
        <ele>8.815156</ele>
        <time>2022-04-16T11:22:37.000Z</time>
      </trkpt>
      <trkpt lat="35.89354" lon="-5.32518">
        <ele>8.821485</ele>
        <time>2022-04-16T11:22:38.000Z</time>
      </trkpt>
      <trkpt lat="35.89358" lon="-5.32521">
        <ele>8.827573</ele>
        <time>2022-04-16T11:22:39.000Z</time>
      </trkpt>
      <trkpt lat="35.89361" lon="-5.32525">
        <ele>8.833722</ele>
        <time>2022-04-16T11:22:40.000Z</time>
      </trkpt>
      <trkpt lat="35.89368" lon="-5.32528">
        <ele>8.84394</ele>
        <time>2022-04-16T11:22:43.000Z</time>
      </trkpt>
      <trkpt lat="35.89368" lon="-5.32529">
        <ele>8.844767</ele>
        <time>2022-04-16T11:22:48.000Z</time>
      </trkpt>
      <trkpt lat="35.89367" lon="-5.3253">
        <ele>8.846432</ele>
        <time>2022-04-16T11:22:50.000Z</time>
      </trkpt>
      <trkpt lat="35.89366" lon="-5.3253">
        <ele>8.848811</ele>
        <time>2022-04-16T11:22:52.000Z</time>
      </trkpt>
      <trkpt lat="35.89363" lon="-5.32527">
        <ele>8.853375</ele>
        <time>2022-04-16T11:22:54.000Z</time>
      </trkpt>
      <trkpt lat="35.8935" lon="-5.32515">
        <ele>8.875763</ele>
        <time>2022-04-16T11:22:59.000Z</time>
      </trkpt>
      <trkpt lat="35.89332" lon="-5.32491">
        <ele>8.91125</ele>
        <time>2022-04-16T11:23:06.000Z</time>
      </trkpt>
      <trkpt lat="35.8933" lon="-5.32488">
        <ele>8.916099</ele>
        <time>2022-04-16T11:23:07.000Z</time>
      </trkpt>
      <trkpt lat="35.89304" lon="-5.32452">
        <ele>8.966061</ele>
        <time>2022-04-16T11:23:16.000Z</time>
      </trkpt>
      <trkpt lat="35.89282" lon="-5.32422">
        <ele>9.008384</ele>
        <time>2022-04-16T11:23:23.000Z</time>
      </trkpt>
      <trkpt lat="35.89279" lon="-5.32419">
        <ele>9.01399</ele>
        <time>2022-04-16T11:23:24.000Z</time>
      </trkpt>
      <trkpt lat="35.89261" lon="-5.32394">
        <ele>9.049394</ele>
        <time>2022-04-16T11:23:30.000Z</time>
      </trkpt>
      <trkpt lat="35.89259" lon="-5.3239">
        <ele>9.05406</ele>
        <time>2022-04-16T11:23:31.000Z</time>
      </trkpt>
      <trkpt lat="35.89252" lon="-5.32381">
        <ele>9.067083</ele>
        <time>2022-04-16T11:23:33.000Z</time>
      </trkpt>
      <trkpt lat="35.89237" lon="-5.32361">
        <ele>9.095598</ele>
        <time>2022-04-16T11:23:38.000Z</time>
      </trkpt>
      <trkpt lat="35.89217" lon="-5.32337">
        <ele>9.124391</ele>
        <time>2022-04-16T11:23:44.000Z</time>
      </trkpt>
      <trkpt lat="35.89214" lon="-5.32333">
        <ele>9.122523</ele>
        <time>2022-04-16T11:23:45.000Z</time>
      </trkpt>
      <trkpt lat="35.89197" lon="-5.3231">
        <ele>9.113002</ele>
        <time>2022-04-16T11:23:50.000Z</time>
      </trkpt>
      <trkpt lat="35.89184" lon="-5.32291">
        <ele>9.105252</ele>
        <time>2022-04-16T11:23:54.000Z</time>
      </trkpt>
      <trkpt lat="35.89168" lon="-5.32271">
        <ele>9.096235</ele>
        <time>2022-04-16T11:23:59.000Z</time>
      </trkpt>
      <trkpt lat="35.89143" lon="-5.32233">
        <ele>9.080691</ele>
        <time>2022-04-16T11:24:08.000Z</time>
      </trkpt>
      <trkpt lat="35.89136" lon="-5.32225">
        <ele>9.077232</ele>
        <time>2022-04-16T11:24:10.000Z</time>
      </trkpt>
      <trkpt lat="35.89125" lon="-5.32208">
        <ele>9.070313</ele>
        <time>2022-04-16T11:24:14.000Z</time>
      </trkpt>
      <trkpt lat="35.8912" lon="-5.32201">
        <ele>9.067303</ele>
        <time>2022-04-16T11:24:16.000Z</time>
      </trkpt>
      <trkpt lat="35.89113" lon="-5.32193">
        <ele>9.063833</ele>
        <time>2022-04-16T11:24:18.000Z</time>
      </trkpt>
      <trkpt lat="35.89107" lon="-5.32186">
        <ele>9.060507</ele>
        <time>2022-04-16T11:24:20.000Z</time>
      </trkpt>
      <trkpt lat="35.89102" lon="-5.32178">
        <ele>9.057354</ele>
        <time>2022-04-16T11:24:22.000Z</time>
      </trkpt>
      <trkpt lat="35.89079" lon="-5.32148">
        <ele>9.393516</ele>
        <time>2022-04-16T11:24:30.000Z</time>
      </trkpt>
      <trkpt lat="35.89072" lon="-5.32142">
        <ele>9.49057</ele>
        <time>2022-04-16T11:24:32.000Z</time>
      </trkpt>
      <trkpt lat="35.89068" lon="-5.32139">
        <ele>9.537481</ele>
        <time>2022-04-16T11:24:33.000Z</time>
      </trkpt>
      <trkpt lat="35.89062" lon="-5.32132">
        <ele>9.627575</ele>
        <time>2022-04-16T11:24:35.000Z</time>
      </trkpt>
      <trkpt lat="35.89056" lon="-5.32125">
        <ele>9.717064</ele>
        <time>2022-04-16T11:24:37.000Z</time>
      </trkpt>
      <trkpt lat="35.89049" lon="-5.32118">
        <ele>9.815991</ele>
        <time>2022-04-16T11:24:39.000Z</time>
      </trkpt>
      <trkpt lat="35.89039" lon="-5.32106">
        <ele>9.97435</ele>
        <time>2022-04-16T11:24:42.000Z</time>
      </trkpt>
      <trkpt lat="35.89019" lon="-5.32082">
        <ele>10.272877</ele>
        <time>2022-04-16T11:24:49.000Z</time>
      </trkpt>
      <trkpt lat="35.8901" lon="-5.32073">
        <ele>10.400433</ele>
        <time>2022-04-16T11:24:53.000Z</time>
      </trkpt>
      <trkpt lat="35.89002" lon="-5.32065">
        <ele>10.5072</ele>
        <time>2022-04-16T11:24:56.000Z</time>
      </trkpt>
      <trkpt lat="35.88993" lon="-5.32056">
        <ele>10.632754</ele>
        <time>2022-04-16T11:25:00.000Z</time>
      </trkpt>
      <trkpt lat="35.88983" lon="-5.3205">
        <ele>10.757053</ele>
        <time>2022-04-16T11:25:04.000Z</time>
      </trkpt>
      <trkpt lat="35.88964" lon="-5.32036">
        <ele>11.000011</ele>
        <time>2022-04-16T11:25:11.000Z</time>
      </trkpt>
      <trkpt lat="35.88962" lon="-5.32033">
        <ele>11.01786</ele>
        <time>2022-04-16T11:25:12.000Z</time>
      </trkpt>
      <trkpt lat="35.8896" lon="-5.32025">
        <ele>11.011867</ele>
        <time>2022-04-16T11:25:14.000Z</time>
      </trkpt>
      <trkpt lat="35.8896" lon="-5.32021">
        <ele>11.008785</ele>
        <time>2022-04-16T11:25:15.000Z</time>
      </trkpt>
      <trkpt lat="35.88964" lon="-5.32014">
        <ele>11.002547</ele>
        <time>2022-04-16T11:25:17.000Z</time>
      </trkpt>
      <trkpt lat="35.88969" lon="-5.32007">
        <ele>10.99572</ele>
        <time>2022-04-16T11:25:19.000Z</time>
      </trkpt>
      <trkpt lat="35.88984" lon="-5.31987">
        <ele>10.976398</ele>
        <time>2022-04-16T11:25:25.000Z</time>
      </trkpt>
      <trkpt lat="35.88992" lon="-5.31977">
        <ele>10.966056</ele>
        <time>2022-04-16T11:25:30.000Z</time>
      </trkpt>
      <trkpt lat="35.88993" lon="-5.31973">
        <ele>10.963395</ele>
        <time>2022-04-16T11:25:32.000Z</time>
      </trkpt>
      <trkpt lat="35.88995" lon="-5.31966">
        <ele>10.958096</ele>
        <time>2022-04-16T11:25:35.000Z</time>
      </trkpt>
      <trkpt lat="35.88995" lon="-5.31963">
        <ele>10.955944</ele>
        <time>2022-04-16T11:25:36.000Z</time>
      </trkpt>
      <trkpt lat="35.88997" lon="-5.31949">
        <ele>10.945671</ele>
        <time>2022-04-16T11:25:43.000Z</time>
      </trkpt>
      <trkpt lat="35.89001" lon="-5.31935">
        <ele>10.934835</ele>
        <time>2022-04-16T11:25:49.000Z</time>
      </trkpt>
      <trkpt lat="35.89002" lon="-5.31928">
        <ele>10.929952</ele>
        <time>2022-04-16T11:25:52.000Z</time>
      </trkpt>
      <trkpt lat="35.89003" lon="-5.31921">
        <ele>10.924402</ele>
        <time>2022-04-16T11:25:55.000Z</time>
      </trkpt>
      <trkpt lat="35.89003" lon="-5.31919">
        <ele>10.923033</ele>
        <time>2022-04-16T11:25:56.000Z</time>
      </trkpt>
      <trkpt lat="35.89004" lon="-5.31914">
        <ele>10.919768</ele>
        <time>2022-04-16T11:26:01.000Z</time>
      </trkpt>
      <trkpt lat="35.89007" lon="-5.31912">
        <ele>10.917096</ele>
        <time>2022-04-16T11:26:05.000Z</time>
      </trkpt>
      <trkpt lat="35.89008" lon="-5.31908">
        <ele>10.913953</ele>
        <time>2022-04-16T11:26:07.000Z</time>
      </trkpt>
      <trkpt lat="35.89009" lon="-5.31887">
        <ele>10.898999</ele>
        <time>2022-04-16T11:26:14.000Z</time>
      </trkpt>
      <trkpt lat="35.89008" lon="-5.31882">
        <ele>10.895343</ele>
        <time>2022-04-16T11:26:16.000Z</time>
      </trkpt>
      <trkpt lat="35.89008" lon="-5.31873">
        <ele>10.888509</ele>
        <time>2022-04-16T11:26:19.000Z</time>
      </trkpt>
      <trkpt lat="35.89011" lon="-5.31844">
        <ele>10.867632</ele>
        <time>2022-04-16T11:26:27.000Z</time>
      </trkpt>
      <trkpt lat="35.89013" lon="-5.3183">
        <ele>10.862269</ele>
        <time>2022-04-16T11:26:31.000Z</time>
      </trkpt>
      <trkpt lat="35.89014" lon="-5.31823">
        <ele>10.867871</ele>
        <time>2022-04-16T11:26:33.000Z</time>
      </trkpt>
      <trkpt lat="35.89016" lon="-5.31819">
        <ele>10.872117</ele>
        <time>2022-04-16T11:26:35.000Z</time>
      </trkpt>
      <trkpt lat="35.89019" lon="-5.31815">
        <ele>10.876335</ele>
        <time>2022-04-16T11:26:37.000Z</time>
      </trkpt>
      <trkpt lat="35.8902" lon="-5.31814">
        <ele>10.878008</ele>
        <time>2022-04-16T11:26:39.000Z</time>
      </trkpt>
      <trkpt lat="35.89021" lon="-5.31813">
        <ele>10.878483</ele>
        <time>2022-04-16T11:26:40.000Z</time>
      </trkpt>
      <trkpt lat="35.89021" lon="-5.31813">
        <ele>10.878483</ele>
        <time>2022-04-16T11:26:42.000Z</time>
      </trkpt>
      <trkpt lat="35.89021" lon="-5.31813">
        <ele>10.878749</ele>
        <time>2022-04-16T11:26:46.000Z</time>
      </trkpt>
      <trkpt lat="35.89024" lon="-5.31804">
        <ele>10.886917</ele>
        <time>2022-04-16T11:26:52.000Z</time>
      </trkpt>
      <trkpt lat="35.89026" lon="-5.31794">
        <ele>10.895591</ele>
        <time>2022-04-16T11:26:59.000Z</time>
      </trkpt>
      <trkpt lat="35.89031" lon="-5.31782">
        <ele>10.90667</ele>
        <time>2022-04-16T11:27:05.000Z</time>
      </trkpt>
      <trkpt lat="35.89032" lon="-5.31781">
        <ele>10.908271</ele>
        <time>2022-04-16T11:27:06.000Z</time>
      </trkpt>
      <trkpt lat="35.89033" lon="-5.31779">
        <ele>10.909486</ele>
        <time>2022-04-16T11:27:07.000Z</time>
      </trkpt>
      <trkpt lat="35.89034" lon="-5.31778">
        <ele>10.911272</ele>
        <time>2022-04-16T11:27:09.000Z</time>
      </trkpt>
      <trkpt lat="35.89036" lon="-5.31775">
        <ele>10.9137</ele>
        <time>2022-04-16T11:27:12.000Z</time>
      </trkpt>
      <trkpt lat="35.89035" lon="-5.31772">
        <ele>10.916215</ele>
        <time>2022-04-16T11:27:14.000Z</time>
      </trkpt>
      <trkpt lat="35.89034" lon="-5.31771">
        <ele>10.917636</ele>
        <time>2022-04-16T11:27:15.000Z</time>
      </trkpt>
      <trkpt lat="35.89032" lon="-5.31767">
        <ele>10.921529</ele>
        <time>2022-04-16T11:27:17.000Z</time>
      </trkpt>
      <trkpt lat="35.89027" lon="-5.31761">
        <ele>10.928183</ele>
        <time>2022-04-16T11:27:21.000Z</time>
      </trkpt>
      <trkpt lat="35.89024" lon="-5.31763">
        <ele>10.931564</ele>
        <time>2022-04-16T11:27:25.000Z</time>
      </trkpt>
      <trkpt lat="35.89023" lon="-5.31765">
        <ele>10.93367</ele>
        <time>2022-04-16T11:27:27.000Z</time>
      </trkpt>
      <trkpt lat="35.89019" lon="-5.3177">
        <ele>10.939992</ele>
        <time>2022-04-16T11:27:30.000Z</time>
      </trkpt>
      <trkpt lat="35.89017" lon="-5.31772">
        <ele>10.94237</ele>
        <time>2022-04-16T11:27:31.000Z</time>
      </trkpt>
      <trkpt lat="35.8901" lon="-5.31777">
        <ele>10.950536</ele>
        <time>2022-04-16T11:27:37.000Z</time>
      </trkpt>
      <trkpt lat="35.89001" lon="-5.31771">
        <ele>10.959956</ele>
        <time>2022-04-16T11:27:43.000Z</time>
      </trkpt>
      <trkpt lat="35.89" lon="-5.31771">
        <ele>10.961197</ele>
        <time>2022-04-16T11:27:44.000Z</time>
      </trkpt>
      <trkpt lat="35.88996" lon="-5.31775">
        <ele>10.966263</ele>
        <time>2022-04-16T11:27:47.000Z</time>
      </trkpt>
      <trkpt lat="35.8899" lon="-5.31782">
        <ele>10.974952</ele>
        <time>2022-04-16T11:27:52.000Z</time>
      </trkpt>
      <trkpt lat="35.8899" lon="-5.31784">
        <ele>10.976444</ele>
        <time>2022-04-16T11:27:53.000Z</time>
      </trkpt>
      <trkpt lat="35.88992" lon="-5.31788">
        <ele>10.980373</ele>
        <time>2022-04-16T11:27:55.000Z</time>
      </trkpt>
      <trkpt lat="35.88992" lon="-5.31793">
        <ele>10.98454</ele>
        <time>2022-04-16T11:27:57.000Z</time>
      </trkpt>
      <trkpt lat="35.88989" lon="-5.31798">
        <ele>10.989997</ele>
        <time>2022-04-16T11:27:59.000Z</time>
      </trkpt>
      <trkpt lat="35.88974" lon="-5.31802">
        <ele>11.005534</ele>
        <time>2022-04-16T11:28:04.000Z</time>
      </trkpt>
      <trkpt lat="35.88964" lon="-5.31799">
        <ele>11.016754</ele>
        <time>2022-04-16T11:28:07.000Z</time>
      </trkpt>
      <trkpt lat="35.88953" lon="-5.31794">
        <ele>11.028534</ele>
        <time>2022-04-16T11:28:10.000Z</time>
      </trkpt>
      <trkpt lat="35.8894" lon="-5.31783">
        <ele>11.027473</ele>
        <time>2022-04-16T11:28:14.000Z</time>
      </trkpt>
      <trkpt lat="35.88933" lon="-5.31773">
        <ele>10.959705</ele>
        <time>2022-04-16T11:28:17.000Z</time>
      </trkpt>
      <trkpt lat="35.88929" lon="-5.3176">
        <ele>10.889003</ele>
        <time>2022-04-16T11:28:20.000Z</time>
      </trkpt>
      <trkpt lat="35.88926" lon="-5.31749">
        <ele>10.827161</ele>
        <time>2022-04-16T11:28:23.000Z</time>
      </trkpt>
      <trkpt lat="35.88925" lon="-5.31733">
        <ele>10.743987</ele>
        <time>2022-04-16T11:28:27.000Z</time>
      </trkpt>
      <trkpt lat="35.88923" lon="-5.31722">
        <ele>10.68529</ele>
        <time>2022-04-16T11:28:30.000Z</time>
      </trkpt>
      <trkpt lat="35.88921" lon="-5.3171">
        <ele>10.624951</ele>
        <time>2022-04-16T11:28:35.000Z</time>
      </trkpt>
      <trkpt lat="35.88921" lon="-5.31704">
        <ele>10.592566</ele>
        <time>2022-04-16T11:28:38.000Z</time>
      </trkpt>
      <trkpt lat="35.88921" lon="-5.31694">
        <ele>10.542741</ele>
        <time>2022-04-16T11:28:41.000Z</time>
      </trkpt>
      <trkpt lat="35.88919" lon="-5.31683">
        <ele>10.482546</ele>
        <time>2022-04-16T11:28:44.000Z</time>
      </trkpt>
      <trkpt lat="35.88916" lon="-5.31674">
        <ele>10.433202</ele>
        <time>2022-04-16T11:28:46.000Z</time>
      </trkpt>
      <trkpt lat="35.88914" lon="-5.31666">
        <ele>10.391049</ele>
        <time>2022-04-16T11:28:48.000Z</time>
      </trkpt>
      <trkpt lat="35.88912" lon="-5.31648">
        <ele>10.298254</ele>
        <time>2022-04-16T11:28:52.000Z</time>
      </trkpt>
      <trkpt lat="35.88908" lon="-5.31622">
        <ele>10.16367</ele>
        <time>2022-04-16T11:28:59.000Z</time>
      </trkpt>
      <trkpt lat="35.88907" lon="-5.31619">
        <ele>10.147447</ele>
        <time>2022-04-16T11:29:00.000Z</time>
      </trkpt>
      <trkpt lat="35.88903" lon="-5.31602">
        <ele>10.054116</ele>
        <time>2022-04-16T11:29:05.000Z</time>
      </trkpt>
      <trkpt lat="35.88898" lon="-5.31577">
        <ele>9.922689</ele>
        <time>2022-04-16T11:29:10.000Z</time>
      </trkpt>
      <trkpt lat="35.88893" lon="-5.31561">
        <ele>9.942024</ele>
        <time>2022-04-16T11:29:13.000Z</time>
      </trkpt>
      <trkpt lat="35.88891" lon="-5.31549">
        <ele>9.977775</ele>
        <time>2022-04-16T11:29:15.000Z</time>
      </trkpt>
      <trkpt lat="35.8889" lon="-5.31544">
        <ele>9.995148</ele>
        <time>2022-04-16T11:29:16.000Z</time>
      </trkpt>
      <trkpt lat="35.88884" lon="-5.31515">
        <ele>10.086515</ele>
        <time>2022-04-16T11:29:21.000Z</time>
      </trkpt>
      <trkpt lat="35.88883" lon="-5.31508">
        <ele>10.10571</ele>
        <time>2022-04-16T11:29:22.000Z</time>
      </trkpt>
      <trkpt lat="35.88876" lon="-5.31477">
        <ele>10.202968</ele>
        <time>2022-04-16T11:29:27.000Z</time>
      </trkpt>
      <trkpt lat="35.88876" lon="-5.31473">
        <ele>10.217447</ele>
        <time>2022-04-16T11:29:28.000Z</time>
      </trkpt>
      <trkpt lat="35.88872" lon="-5.31461">
        <ele>10.256229</ele>
        <time>2022-04-16T11:29:30.000Z</time>
      </trkpt>
      <trkpt lat="35.88865" lon="-5.31428">
        <ele>10.359935</ele>
        <time>2022-04-16T11:29:37.000Z</time>
      </trkpt>
      <trkpt lat="35.88862" lon="-5.31421">
        <ele>10.383803</ele>
        <time>2022-04-16T11:29:40.000Z</time>
      </trkpt>
      <trkpt lat="35.88861" lon="-5.3142">
        <ele>10.388302</ele>
        <time>2022-04-16T11:29:41.000Z</time>
      </trkpt>
      <trkpt lat="35.8886" lon="-5.31418">
        <ele>10.395416</ele>
        <time>2022-04-16T11:29:47.000Z</time>
      </trkpt>
      <trkpt lat="35.88859" lon="-5.31416">
        <ele>10.402037</ele>
        <time>2022-04-16T11:29:48.000Z</time>
      </trkpt>
      <trkpt lat="35.88857" lon="-5.31413">
        <ele>10.413222</ele>
        <time>2022-04-16T11:29:50.000Z</time>
      </trkpt>
      <trkpt lat="35.88855" lon="-5.31412">
        <ele>10.423616</ele>
        <time>2022-04-16T11:29:51.000Z</time>
      </trkpt>
      <trkpt lat="35.88853" lon="-5.31409">
        <ele>10.43309</ele>
        <time>2022-04-16T11:29:53.000Z</time>
      </trkpt>
      <trkpt lat="35.88853" lon="-5.31409">
        <ele>10.43309</ele>
        <time>2022-04-16T11:29:54.000Z</time>
      </trkpt>
      <trkpt lat="35.88852" lon="-5.31408">
        <ele>10.436674</ele>
        <time>2022-04-16T11:29:59.000Z</time>
      </trkpt>
      <trkpt lat="35.88853" lon="-5.31407">
        <ele>10.441254</ele>
        <time>2022-04-16T11:30:00.000Z</time>
      </trkpt>
      <trkpt lat="35.88853" lon="-5.31405">
        <ele>10.447228</ele>
        <time>2022-04-16T11:30:01.000Z</time>
      </trkpt>
      <trkpt lat="35.88851" lon="-5.31396">
        <ele>10.475253</ele>
        <time>2022-04-16T11:30:06.000Z</time>
      </trkpt>
      <trkpt lat="35.8885" lon="-5.31395">
        <ele>10.48064</ele>
        <time>2022-04-16T11:30:07.000Z</time>
      </trkpt>
      <trkpt lat="35.8885" lon="-5.31391">
        <ele>10.49161</ele>
        <time>2022-04-16T11:30:09.000Z</time>
      </trkpt>
      <trkpt lat="35.8885" lon="-5.3139">
        <ele>10.493436</ele>
        <time>2022-04-16T11:30:11.000Z</time>
      </trkpt>
      <trkpt lat="35.88848" lon="-5.31387">
        <ele>10.505666</ele>
        <time>2022-04-16T11:30:14.000Z</time>
      </trkpt>
      <trkpt lat="35.88847" lon="-5.31385">
        <ele>10.513878</ele>
        <time>2022-04-16T11:30:15.000Z</time>
      </trkpt>
      <trkpt lat="35.88846" lon="-5.31382">
        <ele>10.523087</ele>
        <time>2022-04-16T11:30:16.000Z</time>
      </trkpt>
      <trkpt lat="35.88844" lon="-5.31372">
        <ele>10.552789</ele>
        <time>2022-04-16T11:30:19.000Z</time>
      </trkpt>
      <trkpt lat="35.88841" lon="-5.31367">
        <ele>10.573271</ele>
        <time>2022-04-16T11:30:21.000Z</time>
      </trkpt>
      <trkpt lat="35.8884" lon="-5.31364">
        <ele>10.614427</ele>
        <time>2022-04-16T11:30:22.000Z</time>
      </trkpt>
      <trkpt lat="35.88835" lon="-5.31359">
        <ele>10.833226</ele>
        <time>2022-04-16T11:30:25.000Z</time>
      </trkpt>
      <trkpt lat="35.88834" lon="-5.31357">
        <ele>10.903916</ele>
        <time>2022-04-16T11:30:26.000Z</time>
      </trkpt>
      <trkpt lat="35.88833" lon="-5.31355">
        <ele>10.974055</ele>
        <time>2022-04-16T11:30:27.000Z</time>
      </trkpt>
      <trkpt lat="35.88833" lon="-5.31353">
        <ele>11.027628</ele>
        <time>2022-04-16T11:30:28.000Z</time>
      </trkpt>
      <trkpt lat="35.8883" lon="-5.3135">
        <ele>11.160889</ele>
        <time>2022-04-16T11:30:31.000Z</time>
      </trkpt>
      <trkpt lat="35.88826" lon="-5.3135">
        <ele>11.277216</ele>
        <time>2022-04-16T11:30:38.000Z</time>
      </trkpt>
      <trkpt lat="35.88826" lon="-5.31349">
        <ele>11.297785</ele>
        <time>2022-04-16T11:30:47.000Z</time>
      </trkpt>
      <trkpt lat="35.88825" lon="-5.31348">
        <ele>11.351817</ele>
        <time>2022-04-16T11:30:51.000Z</time>
      </trkpt>
      <trkpt lat="35.88824" lon="-5.31343">
        <ele>11.472307</ele>
        <time>2022-04-16T11:30:53.000Z</time>
      </trkpt>
      <trkpt lat="35.88825" lon="-5.3133">
        <ele>11.850624</ele>
        <time>2022-04-16T11:30:57.000Z</time>
      </trkpt>
      <trkpt lat="35.88825" lon="-5.31309">
        <ele>12.412372</ele>
        <time>2022-04-16T11:31:02.000Z</time>
      </trkpt>
      <trkpt lat="35.88822" lon="-5.3129">
        <ele>12.952528</ele>
        <time>2022-04-16T11:31:07.000Z</time>
      </trkpt>
      <trkpt lat="35.88821" lon="-5.31286">
        <ele>13.064849</ele>
        <time>2022-04-16T11:31:08.000Z</time>
      </trkpt>
      <trkpt lat="35.88815" lon="-5.31274">
        <ele>13.44913</ele>
        <time>2022-04-16T11:31:13.000Z</time>
      </trkpt>
      <trkpt lat="35.88813" lon="-5.31264">
        <ele>13.731922</ele>
        <time>2022-04-16T11:31:18.000Z</time>
      </trkpt>
      <trkpt lat="35.88811" lon="-5.3126">
        <ele>13.846747</ele>
        <time>2022-04-16T11:31:20.000Z</time>
      </trkpt>
      <trkpt lat="35.88809" lon="-5.31249">
        <ele>14.161703</ele>
        <time>2022-04-16T11:31:25.000Z</time>
      </trkpt>
      <trkpt lat="35.88809" lon="-5.31248">
        <ele>14.204667</ele>
        <time>2022-04-16T11:31:26.000Z</time>
      </trkpt>
      <trkpt lat="35.88808" lon="-5.31246">
        <ele>14.260287</ele>
        <time>2022-04-16T11:31:27.000Z</time>
      </trkpt>
      <trkpt lat="35.88806" lon="-5.31239">
        <ele>14.463481</ele>
        <time>2022-04-16T11:31:30.000Z</time>
      </trkpt>
      <trkpt lat="35.88805" lon="-5.31234">
        <ele>14.615898</ele>
        <time>2022-04-16T11:31:32.000Z</time>
      </trkpt>
      <trkpt lat="35.88798" lon="-5.31229">
        <ele>14.889264</ele>
        <time>2022-04-16T11:31:35.000Z</time>
      </trkpt>
      <trkpt lat="35.88795" lon="-5.31227">
        <ele>14.983272</ele>
        <time>2022-04-16T11:31:36.000Z</time>
      </trkpt>
      <trkpt lat="35.88792" lon="-5.31218">
        <ele>15.26996</ele>
        <time>2022-04-16T11:31:40.000Z</time>
      </trkpt>
      <trkpt lat="35.88789" lon="-5.3121">
        <ele>15.512597</ele>
        <time>2022-04-16T11:31:43.000Z</time>
      </trkpt>
      <trkpt lat="35.8879" lon="-5.31206">
        <ele>15.622569</ele>
        <time>2022-04-16T11:31:44.000Z</time>
      </trkpt>
      <trkpt lat="35.88789" lon="-5.31191">
        <ele>16.03062</ele>
        <time>2022-04-16T11:31:49.000Z</time>
      </trkpt>
      <trkpt lat="35.88786" lon="-5.31176">
        <ele>16.463599</ele>
        <time>2022-04-16T11:31:54.000Z</time>
      </trkpt>
      <trkpt lat="35.88786" lon="-5.31172">
        <ele>16.551676</ele>
        <time>2022-04-16T11:31:55.000Z</time>
      </trkpt>
      <trkpt lat="35.88787" lon="-5.31164">
        <ele>16.745301</ele>
        <time>2022-04-16T11:31:58.000Z</time>
      </trkpt>
      <trkpt lat="35.88782" lon="-5.31158">
        <ele>16.882271</ele>
        <time>2022-04-16T11:32:01.000Z</time>
      </trkpt>
      <trkpt lat="35.88781" lon="-5.31155">
        <ele>16.949182</ele>
        <time>2022-04-16T11:32:02.000Z</time>
      </trkpt>
      <trkpt lat="35.88777" lon="-5.31143">
        <ele>17.153824</ele>
        <time>2022-04-16T11:32:06.000Z</time>
      </trkpt>
      <trkpt lat="35.88774" lon="-5.31132">
        <ele>17.367411</ele>
        <time>2022-04-16T11:32:11.000Z</time>
      </trkpt>
      <trkpt lat="35.88772" lon="-5.31127">
        <ele>17.460357</ele>
        <time>2022-04-16T11:32:13.000Z</time>
      </trkpt>
      <trkpt lat="35.88772" lon="-5.31122">
        <ele>17.536113</ele>
        <time>2022-04-16T11:32:15.000Z</time>
      </trkpt>
      <trkpt lat="35.88768" lon="-5.31114">
        <ele>17.703846</ele>
        <time>2022-04-16T11:32:19.000Z</time>
      </trkpt>
      <trkpt lat="35.88764" lon="-5.31112">
        <ele>17.789622</ele>
        <time>2022-04-16T11:32:21.000Z</time>
      </trkpt>
      <trkpt lat="35.88761" lon="-5.31116">
        <ele>17.878793</ele>
        <time>2022-04-16T11:32:23.000Z</time>
      </trkpt>
      <trkpt lat="35.88757" lon="-5.31121">
        <ele>18.000515</ele>
        <time>2022-04-16T11:32:26.000Z</time>
      </trkpt>
      <trkpt lat="35.88756" lon="-5.3112">
        <ele>18.022117</ele>
        <time>2022-04-16T11:32:27.000Z</time>
      </trkpt>
      <trkpt lat="35.88755" lon="-5.3112">
        <ele>18.043236</ele>
        <time>2022-04-16T11:32:28.000Z</time>
      </trkpt>
      <trkpt lat="35.88748" lon="-5.31121">
        <ele>18.185105</ele>
        <time>2022-04-16T11:32:32.000Z</time>
      </trkpt>
      <trkpt lat="35.88739" lon="-5.31123">
        <ele>18.38094</ele>
        <time>2022-04-16T11:32:37.000Z</time>
      </trkpt>
      <trkpt lat="35.88735" lon="-5.31125">
        <ele>18.474868</ele>
        <time>2022-04-16T11:32:40.000Z</time>
      </trkpt>
      <trkpt lat="35.88734" lon="-5.31126">
        <ele>18.504179</ele>
        <time>2022-04-16T11:32:41.000Z</time>
      </trkpt>
      <trkpt lat="35.88734" lon="-5.31126">
        <ele>18.51138</ele>
        <time>2022-04-16T11:32:48.000Z</time>
      </trkpt>
      <trkpt lat="35.88734" lon="-5.31126">
        <ele>18.51138</ele>
        <time>2022-04-16T11:32:55.000Z</time>
      </trkpt>
      <trkpt lat="35.88734" lon="-5.31126">
        <ele>18.51138</ele>
        <time>2022-04-16T11:32:56.000Z</time>
      </trkpt>
      <trkpt lat="35.88734" lon="-5.31126">
        <ele>18.513492</ele>
        <time>2022-04-16T11:33:05.000Z</time>
      </trkpt>
      <trkpt lat="35.88734" lon="-5.31126">
        <ele>18.513492</ele>
        <time>2022-04-16T11:33:08.000Z</time>
      </trkpt>
      <trkpt lat="35.88732" lon="-5.31126">
        <ele>18.539742</ele>
        <time>2022-04-16T11:33:17.000Z</time>
      </trkpt>
      <trkpt lat="35.88732" lon="-5.31126">
        <ele>18.539742</ele>
        <time>2022-04-16T11:33:43.000Z</time>
      </trkpt>
      <trkpt lat="35.88732" lon="-5.31126">
        <ele>18.539742</ele>
        <time>2022-04-16T11:33:46.000Z</time>
      </trkpt>
      <trkpt lat="35.88732" lon="-5.31126">
        <ele>18.539742</ele>
        <time>2022-04-16T11:33:49.000Z</time>
      </trkpt>
      <trkpt lat="35.8879" lon="-5.31164">
        <ele>19.913972</ele>
        <time>2022-04-16T12:30:41.000Z</time>
      </trkpt>
      <trkpt lat="35.888" lon="-5.31159">
        <ele>20.148347</ele>
        <time>2022-04-16T12:30:43.000Z</time>
      </trkpt>
      <trkpt lat="35.88799" lon="-5.31156">
        <ele>20.196601</ele>
        <time>2022-04-16T12:30:46.000Z</time>
      </trkpt>
      <trkpt lat="35.88799" lon="-5.31158">
        <ele>20.217242</ele>
        <time>2022-04-16T12:30:48.000Z</time>
      </trkpt>
      <trkpt lat="35.88799" lon="-5.31159">
        <ele>20.247408</ele>
        <time>2022-04-16T12:30:49.000Z</time>
      </trkpt>
      <trkpt lat="35.88799" lon="-5.31161">
        <ele>20.277026</ele>
        <time>2022-04-16T12:30:55.000Z</time>
      </trkpt>
      <trkpt lat="35.88798" lon="-5.31161">
        <ele>20.29611</ele>
        <time>2022-04-16T12:30:56.000Z</time>
      </trkpt>
      <trkpt lat="35.88795" lon="-5.31161">
        <ele>20.36178</ele>
        <time>2022-04-16T12:31:02.000Z</time>
      </trkpt>
      <trkpt lat="35.88794" lon="-5.31162">
        <ele>20.402234</ele>
        <time>2022-04-16T12:31:11.000Z</time>
      </trkpt>
      <trkpt lat="35.88794" lon="-5.31163">
        <ele>20.417883</ele>
        <time>2022-04-16T12:31:13.000Z</time>
      </trkpt>
      <trkpt lat="35.88797" lon="-5.31161">
        <ele>20.473944</ele>
        <time>2022-04-16T12:31:17.000Z</time>
      </trkpt>
      <trkpt lat="35.88797" lon="-5.31161">
        <ele>20.473944</ele>
        <time>2022-04-16T12:31:18.000Z</time>
      </trkpt>
      <trkpt lat="35.88797" lon="-5.31161">
        <ele>20.47938</ele>
        <time>2022-04-16T12:31:24.000Z</time>
      </trkpt>
      <trkpt lat="35.88799" lon="-5.31168">
        <ele>20.649767</ele>
        <time>2022-04-16T12:31:26.000Z</time>
      </trkpt>
      <trkpt lat="35.88803" lon="-5.31183">
        <ele>21.041784</ele>
        <time>2022-04-16T12:31:31.000Z</time>
      </trkpt>
      <trkpt lat="35.88805" lon="-5.31186">
        <ele>21.141275</ele>
        <time>2022-04-16T12:31:32.000Z</time>
      </trkpt>
      <trkpt lat="35.88811" lon="-5.31197">
        <ele>21.444392</ele>
        <time>2022-04-16T12:31:37.000Z</time>
      </trkpt>
      <trkpt lat="35.88808" lon="-5.31198">
        <ele>21.524494</ele>
        <time>2022-04-16T12:31:40.000Z</time>
      </trkpt>
      <trkpt lat="35.88803" lon="-5.312">
        <ele>21.676597</ele>
        <time>2022-04-16T12:31:45.000Z</time>
      </trkpt>
      <trkpt lat="35.88802" lon="-5.312">
        <ele>21.707045</ele>
        <time>2022-04-16T12:31:47.000Z</time>
      </trkpt>
      <trkpt lat="35.88803" lon="-5.31201">
        <ele>21.747696</ele>
        <time>2022-04-16T12:31:53.000Z</time>
      </trkpt>
      <trkpt lat="35.88803" lon="-5.31201">
        <ele>21.763648</ele>
        <time>2022-04-16T12:32:00.000Z</time>
      </trkpt>
      <trkpt lat="35.88802" lon="-5.31201">
        <ele>21.815299</ele>
        <time>2022-04-16T12:32:02.000Z</time>
      </trkpt>
      <trkpt lat="35.88801" lon="-5.31202">
        <ele>21.845059</ele>
        <time>2022-04-16T12:32:03.000Z</time>
      </trkpt>
      <trkpt lat="35.88801" lon="-5.31203">
        <ele>21.876963</ele>
        <time>2022-04-16T12:32:05.000Z</time>
      </trkpt>
      <trkpt lat="35.88802" lon="-5.31204">
        <ele>21.92345</ele>
        <time>2022-04-16T12:32:06.000Z</time>
      </trkpt>
      <trkpt lat="35.88804" lon="-5.31205">
        <ele>21.983355</ele>
        <time>2022-04-16T12:32:07.000Z</time>
      </trkpt>
      <trkpt lat="35.88806" lon="-5.31209">
        <ele>22.091584</ele>
        <time>2022-04-16T12:32:10.000Z</time>
      </trkpt>
      <trkpt lat="35.88806" lon="-5.3121">
        <ele>22.111486</ele>
        <time>2022-04-16T12:32:12.000Z</time>
      </trkpt>
      <trkpt lat="35.88807" lon="-5.31212">
        <ele>22.184526</ele>
        <time>2022-04-16T12:32:15.000Z</time>
      </trkpt>
      <trkpt lat="35.88808" lon="-5.31211">
        <ele>22.218716</ele>
        <time>2022-04-16T12:32:17.000Z</time>
      </trkpt>
      <trkpt lat="35.88809" lon="-5.31209">
        <ele>22.279313</ele>
        <time>2022-04-16T12:32:19.000Z</time>
      </trkpt>
      <trkpt lat="35.88807" lon="-5.31204">
        <ele>22.400141</ele>
        <time>2022-04-16T12:32:21.000Z</time>
      </trkpt>
      <trkpt lat="35.88817" lon="-5.31218">
        <ele>22.853191</ele>
        <time>2022-04-16T12:32:52.000Z</time>
      </trkpt>
      <trkpt lat="35.88812" lon="-5.31217">
        <ele>22.993112</ele>
        <time>2022-04-16T12:32:55.000Z</time>
      </trkpt>
      <trkpt lat="35.8881" lon="-5.31214">
        <ele>23.082914</ele>
        <time>2022-04-16T12:32:57.000Z</time>
      </trkpt>
      <trkpt lat="35.88811" lon="-5.31215">
        <ele>23.115407</ele>
        <time>2022-04-16T12:32:59.000Z</time>
      </trkpt>
      <trkpt lat="35.88801" lon="-5.31212">
        <ele>23.435485</ele>
        <time>2022-04-16T12:33:04.000Z</time>
      </trkpt>
      <trkpt lat="35.888" lon="-5.31211">
        <ele>23.460725</ele>
        <time>2022-04-16T12:33:05.000Z</time>
      </trkpt>
      <trkpt lat="35.88802" lon="-5.31211">
        <ele>23.497473</ele>
        <time>2022-04-16T12:33:08.000Z</time>
      </trkpt>
      <trkpt lat="35.88804" lon="-5.31212">
        <ele>23.581201</ele>
        <time>2022-04-16T12:33:09.000Z</time>
      </trkpt>
      <trkpt lat="35.88801" lon="-5.31211">
        <ele>23.697302</ele>
        <time>2022-04-16T12:33:15.000Z</time>
      </trkpt>
      <trkpt lat="35.88801" lon="-5.3121">
        <ele>23.719637</ele>
        <time>2022-04-16T12:33:17.000Z</time>
      </trkpt>
      <trkpt lat="35.88801" lon="-5.31209">
        <ele>23.752171</ele>
        <time>2022-04-16T12:33:25.000Z</time>
      </trkpt>
      <trkpt lat="35.88801" lon="-5.31209">
        <ele>23.752171</ele>
        <time>2022-04-16T12:33:30.000Z</time>
      </trkpt>
      <trkpt lat="35.88801" lon="-5.31209">
        <ele>23.758241</ele>
        <time>2022-04-16T12:33:33.000Z</time>
      </trkpt>
      <trkpt lat="35.888" lon="-5.31209">
        <ele>23.767346</ele>
        <time>2022-04-16T12:33:39.000Z</time>
      </trkpt>
      <trkpt lat="35.88794" lon="-5.312">
        <ele>24.049073</ele>
        <time>2022-04-16T12:33:44.000Z</time>
      </trkpt>
      <trkpt lat="35.88788" lon="-5.31187">
        <ele>24.409668</ele>
        <time>2022-04-16T12:33:48.000Z</time>
      </trkpt>
      <trkpt lat="35.88785" lon="-5.31178">
        <ele>24.654883</ele>
        <time>2022-04-16T12:33:50.000Z</time>
      </trkpt>
      <trkpt lat="35.8878" lon="-5.31162">
        <ele>25.074247</ele>
        <time>2022-04-16T12:33:55.000Z</time>
      </trkpt>
      <trkpt lat="35.88778" lon="-5.3116">
        <ele>25.166027</ele>
        <time>2022-04-16T12:33:56.000Z</time>
      </trkpt>
      <trkpt lat="35.88772" lon="-5.31143">
        <ele>25.617692</ele>
        <time>2022-04-16T12:34:01.000Z</time>
      </trkpt>
      <trkpt lat="35.8877" lon="-5.31137">
        <ele>25.762443</ele>
        <time>2022-04-16T12:34:03.000Z</time>
      </trkpt>
      <trkpt lat="35.88765" lon="-5.31124">
        <ele>26.165548</ele>
        <time>2022-04-16T12:34:08.000Z</time>
      </trkpt>
      <trkpt lat="35.88764" lon="-5.31122">
        <ele>26.23793</ele>
        <time>2022-04-16T12:34:09.000Z</time>
      </trkpt>
      <trkpt lat="35.88764" lon="-5.31118">
        <ele>26.385358</ele>
        <time>2022-04-16T12:34:11.000Z</time>
      </trkpt>
      <trkpt lat="35.88764" lon="-5.31116">
        <ele>26.436624</ele>
        <time>2022-04-16T12:34:12.000Z</time>
      </trkpt>
      <trkpt lat="35.88762" lon="-5.31114">
        <ele>26.531525</ele>
        <time>2022-04-16T12:34:14.000Z</time>
      </trkpt>
      <trkpt lat="35.88761" lon="-5.31111">
        <ele>26.621116</ele>
        <time>2022-04-16T12:34:15.000Z</time>
      </trkpt>
      <trkpt lat="35.88761" lon="-5.31109">
        <ele>26.700281</ele>
        <time>2022-04-16T12:34:16.000Z</time>
      </trkpt>
      <trkpt lat="35.88759" lon="-5.31101">
        <ele>26.953915</ele>
        <time>2022-04-16T12:34:18.000Z</time>
      </trkpt>
      <trkpt lat="35.88754" lon="-5.31089">
        <ele>27.404649</ele>
        <time>2022-04-16T12:34:23.000Z</time>
      </trkpt>
      <trkpt lat="35.88753" lon="-5.31086">
        <ele>27.508283</ele>
        <time>2022-04-16T12:34:24.000Z</time>
      </trkpt>
      <trkpt lat="35.88752" lon="-5.31084">
        <ele>27.583364</ele>
        <time>2022-04-16T12:34:25.000Z</time>
      </trkpt>
      <trkpt lat="35.88748" lon="-5.31074">
        <ele>27.951738</ele>
        <time>2022-04-16T12:34:28.000Z</time>
      </trkpt>
      <trkpt lat="35.88747" lon="-5.31071">
        <ele>28.043581</ele>
        <time>2022-04-16T12:34:29.000Z</time>
      </trkpt>
      <trkpt lat="35.88744" lon="-5.31058">
        <ele>28.483586</ele>
        <time>2022-04-16T12:34:34.000Z</time>
      </trkpt>
      <trkpt lat="35.88744" lon="-5.31055">
        <ele>28.563549</ele>
        <time>2022-04-16T12:34:35.000Z</time>
      </trkpt>
      <trkpt lat="35.88739" lon="-5.31047">
        <ele>28.879244</ele>
        <time>2022-04-16T12:34:38.000Z</time>
      </trkpt>
      <trkpt lat="35.88739" lon="-5.3104">
        <ele>29.122836</ele>
        <time>2022-04-16T12:34:41.000Z</time>
      </trkpt>
      <trkpt lat="35.88738" lon="-5.31033">
        <ele>29.327924</ele>
        <time>2022-04-16T12:34:44.000Z</time>
      </trkpt>
      <trkpt lat="35.88737" lon="-5.31028">
        <ele>29.500153</ele>
        <time>2022-04-16T12:34:46.000Z</time>
      </trkpt>
      <trkpt lat="35.88736" lon="-5.31021">
        <ele>29.742051</ele>
        <time>2022-04-16T12:34:49.000Z</time>
      </trkpt>
      <trkpt lat="35.88736" lon="-5.31018">
        <ele>29.825205</ele>
        <time>2022-04-16T12:34:50.000Z</time>
      </trkpt>
      <trkpt lat="35.88736" lon="-5.31016">
        <ele>29.877022</ele>
        <time>2022-04-16T12:34:51.000Z</time>
      </trkpt>
      <trkpt lat="35.88737" lon="-5.31013">
        <ele>29.989941</ele>
        <time>2022-04-16T12:34:53.000Z</time>
      </trkpt>
      <trkpt lat="35.88736" lon="-5.3101">
        <ele>30.094871</ele>
        <time>2022-04-16T12:34:54.000Z</time>
      </trkpt>
      <trkpt lat="35.88735" lon="-5.31001">
        <ele>30.378231</ele>
        <time>2022-04-16T12:34:57.000Z</time>
      </trkpt>
      <trkpt lat="35.88735" lon="-5.30996">
        <ele>30.542346</ele>
        <time>2022-04-16T12:34:59.000Z</time>
      </trkpt>
      <trkpt lat="35.88734" lon="-5.30993">
        <ele>30.651322</ele>
        <time>2022-04-16T12:35:02.000Z</time>
      </trkpt>
      <trkpt lat="35.88734" lon="-5.30991">
        <ele>30.694431</ele>
        <time>2022-04-16T12:35:04.000Z</time>
      </trkpt>
      <trkpt lat="35.88734" lon="-5.30987">
        <ele>30.832309</ele>
        <time>2022-04-16T12:35:06.000Z</time>
      </trkpt>
      <trkpt lat="35.88733" lon="-5.30985">
        <ele>30.922406</ele>
        <time>2022-04-16T12:35:08.000Z</time>
      </trkpt>
      <trkpt lat="35.88732" lon="-5.30983">
        <ele>30.986191</ele>
        <time>2022-04-16T12:35:09.000Z</time>
      </trkpt>
      <trkpt lat="35.88732" lon="-5.30981">
        <ele>31.050011</ele>
        <time>2022-04-16T12:35:10.000Z</time>
      </trkpt>
      <trkpt lat="35.88732" lon="-5.30979">
        <ele>31.107514</ele>
        <time>2022-04-16T12:35:11.000Z</time>
      </trkpt>
      <trkpt lat="35.88732" lon="-5.30962">
        <ele>31.667257</ele>
        <time>2022-04-16T12:35:17.000Z</time>
      </trkpt>
      <trkpt lat="35.88732" lon="-5.3096">
        <ele>31.724761</ele>
        <time>2022-04-16T12:35:18.000Z</time>
      </trkpt>
      <trkpt lat="35.88731" lon="-5.30959">
        <ele>31.790734</ele>
        <time>2022-04-16T12:35:22.000Z</time>
      </trkpt>
      <trkpt lat="35.88734" lon="-5.30951">
        <ele>32.055004</ele>
        <time>2022-04-16T12:35:29.000Z</time>
      </trkpt>
      <trkpt lat="35.88734" lon="-5.30951">
        <ele>32.086895</ele>
        <time>2022-04-16T12:35:33.000Z</time>
      </trkpt>
      <trkpt lat="35.88732" lon="-5.30948">
        <ele>32.196135</ele>
        <time>2022-04-16T12:35:35.000Z</time>
      </trkpt>
      <trkpt lat="35.88731" lon="-5.30949">
        <ele>32.24648</ele>
        <time>2022-04-16T12:35:36.000Z</time>
      </trkpt>
      <trkpt lat="35.88731" lon="-5.30947">
        <ele>32.300789</ele>
        <time>2022-04-16T12:35:39.000Z</time>
      </trkpt>
      <trkpt lat="35.88734" lon="-5.30947">
        <ele>32.407446</ele>
        <time>2022-04-16T12:35:42.000Z</time>
      </trkpt>
      <trkpt lat="35.88729" lon="-5.30944">
        <ele>32.602069</ele>
        <time>2022-04-16T12:35:49.000Z</time>
      </trkpt>
      <trkpt lat="35.88732" lon="-5.30948">
        <ele>32.771182</ele>
        <time>2022-04-16T12:35:55.000Z</time>
      </trkpt>
      <trkpt lat="35.88735" lon="-5.30949">
        <ele>32.872266</ele>
        <time>2022-04-16T12:35:57.000Z</time>
      </trkpt>
      <trkpt lat="35.88739" lon="-5.30952">
        <ele>33.048086</ele>
        <time>2022-04-16T12:36:00.000Z</time>
      </trkpt>
      <trkpt lat="35.8874" lon="-5.30953">
        <ele>33.063157</ele>
        <time>2022-04-16T12:36:01.000Z</time>
      </trkpt>
      <trkpt lat="35.88742" lon="-5.30955">
        <ele>33.0951</ele>
        <time>2022-04-16T12:36:03.000Z</time>
      </trkpt>
      <trkpt lat="35.88747" lon="-5.30955">
        <ele>33.145456</ele>
        <time>2022-04-16T12:36:06.000Z</time>
      </trkpt>
      <trkpt lat="35.88748" lon="-5.30957">
        <ele>33.174994</ele>
        <time>2022-04-16T12:36:07.000Z</time>
      </trkpt>
      <trkpt lat="35.88755" lon="-5.30962">
        <ele>33.260326</ele>
        <time>2022-04-16T12:36:09.000Z</time>
      </trkpt>
      <trkpt lat="35.88759" lon="-5.30963">
        <ele>33.312087</ele>
        <time>2022-04-16T12:36:12.000Z</time>
      </trkpt>
      <trkpt lat="35.88761" lon="-5.30964">
        <ele>33.333358</ele>
        <time>2022-04-16T12:36:13.000Z</time>
      </trkpt>
      <trkpt lat="35.88768" lon="-5.30966">
        <ele>33.417308</ele>
        <time>2022-04-16T12:36:17.000Z</time>
      </trkpt>
      <trkpt lat="35.88771" lon="-5.30968">
        <ele>33.463303</ele>
        <time>2022-04-16T12:36:19.000Z</time>
      </trkpt>
      <trkpt lat="35.88781" lon="-5.3097">
        <ele>33.58116</ele>
        <time>2022-04-16T12:36:25.000Z</time>
      </trkpt>
      <trkpt lat="35.88785" lon="-5.30966">
        <ele>33.639132</ele>
        <time>2022-04-16T12:36:27.000Z</time>
      </trkpt>
      <trkpt lat="35.88794" lon="-5.30961">
        <ele>33.749398</ele>
        <time>2022-04-16T12:36:34.000Z</time>
      </trkpt>
      <trkpt lat="35.88799" lon="-5.30958">
        <ele>33.816712</ele>
        <time>2022-04-16T12:36:38.000Z</time>
      </trkpt>
      <trkpt lat="35.888" lon="-5.30957">
        <ele>33.828575</ele>
        <time>2022-04-16T12:36:39.000Z</time>
      </trkpt>
      <trkpt lat="35.88797" lon="-5.30957">
        <ele>33.859954</ele>
        <time>2022-04-16T12:36:43.000Z</time>
      </trkpt>
      <trkpt lat="35.88796" lon="-5.30955">
        <ele>33.880794</ele>
        <time>2022-04-16T12:36:44.000Z</time>
      </trkpt>
      <trkpt lat="35.88798" lon="-5.30954">
        <ele>33.904983</ele>
        <time>2022-04-16T12:36:47.000Z</time>
      </trkpt>
      <trkpt lat="35.88799" lon="-5.30954">
        <ele>33.921405</ele>
        <time>2022-04-16T12:36:48.000Z</time>
      </trkpt>
      <trkpt lat="35.88805" lon="-5.30958">
        <ele>34.000234</ele>
        <time>2022-04-16T12:36:53.000Z</time>
      </trkpt>
      <trkpt lat="35.88807" lon="-5.3096">
        <ele>34.026775</ele>
        <time>2022-04-16T12:36:55.000Z</time>
      </trkpt>
      <trkpt lat="35.88808" lon="-5.3096">
        <ele>34.040204</ele>
        <time>2022-04-16T12:36:56.000Z</time>
      </trkpt>
      <trkpt lat="35.88808" lon="-5.3096">
        <ele>34.047294</ele>
        <time>2022-04-16T12:36:57.000Z</time>
      </trkpt>
      <trkpt lat="35.88809" lon="-5.30958">
        <ele>34.069318</ele>
        <time>2022-04-16T12:36:59.000Z</time>
      </trkpt>
      <trkpt lat="35.8881" lon="-5.30958">
        <ele>34.07525</ele>
        <time>2022-04-16T12:37:00.000Z</time>
      </trkpt>
      <trkpt lat="35.88809" lon="-5.30958">
        <ele>34.08176</ele>
        <time>2022-04-16T12:37:02.000Z</time>
      </trkpt>
      <trkpt lat="35.88808" lon="-5.30959">
        <ele>34.099955</ele>
        <time>2022-04-16T12:37:04.000Z</time>
      </trkpt>
      <trkpt lat="35.88806" lon="-5.3096">
        <ele>34.124575</ele>
        <time>2022-04-16T12:37:06.000Z</time>
      </trkpt>
      <trkpt lat="35.88805" lon="-5.30959">
        <ele>34.127653</ele>
        <time>2022-04-16T12:37:09.000Z</time>
      </trkpt>
      <trkpt lat="35.88805" lon="-5.3096">
        <ele>34.138855</ele>
        <time>2022-04-16T12:37:10.000Z</time>
      </trkpt>
      <trkpt lat="35.88803" lon="-5.3096">
        <ele>34.162353</ele>
        <time>2022-04-16T12:37:12.000Z</time>
      </trkpt>
      <trkpt lat="35.88799" lon="-5.3096">
        <ele>34.203384</ele>
        <time>2022-04-16T12:37:15.000Z</time>
      </trkpt>
      <trkpt lat="35.88798" lon="-5.3096">
        <ele>34.216813</ele>
        <time>2022-04-16T12:37:16.000Z</time>
      </trkpt>
      <trkpt lat="35.88797" lon="-5.30959">
        <ele>34.229801</ele>
        <time>2022-04-16T12:37:17.000Z</time>
      </trkpt>
      <trkpt lat="35.88798" lon="-5.3096">
        <ele>34.237968</ele>
        <time>2022-04-16T12:37:19.000Z</time>
      </trkpt>
      <trkpt lat="35.88799" lon="-5.30959">
        <ele>34.257847</ele>
        <time>2022-04-16T12:37:24.000Z</time>
      </trkpt>
      <trkpt lat="35.88797" lon="-5.30954">
        <ele>34.313591</ele>
        <time>2022-04-16T12:37:28.000Z</time>
      </trkpt>
      <trkpt lat="35.88796" lon="-5.30953">
        <ele>34.32898</ele>
        <time>2022-04-16T12:37:29.000Z</time>
      </trkpt>
      <trkpt lat="35.88795" lon="-5.30952">
        <ele>34.342409</ele>
        <time>2022-04-16T12:37:30.000Z</time>
      </trkpt>
      <trkpt lat="35.88793" lon="-5.30952">
        <ele>34.367001</ele>
        <time>2022-04-16T12:37:32.000Z</time>
      </trkpt>
      <trkpt lat="35.88792" lon="-5.30952">
        <ele>34.382254</ele>
        <time>2022-04-16T12:37:33.000Z</time>
      </trkpt>
      <trkpt lat="35.88787" lon="-5.30952">
        <ele>34.435029</ele>
        <time>2022-04-16T12:37:36.000Z</time>
      </trkpt>
      <trkpt lat="35.88785" lon="-5.30952">
        <ele>34.460862</ele>
        <time>2022-04-16T12:37:38.000Z</time>
      </trkpt>
      <trkpt lat="35.88782" lon="-5.30952">
        <ele>34.490276</ele>
        <time>2022-04-16T12:37:40.000Z</time>
      </trkpt>
      <trkpt lat="35.88779" lon="-5.30953">
        <ele>34.533699</ele>
        <time>2022-04-16T12:37:44.000Z</time>
      </trkpt>
      <trkpt lat="35.88777" lon="-5.30953">
        <ele>34.552164</ele>
        <time>2022-04-16T12:37:46.000Z</time>
      </trkpt>
      <trkpt lat="35.88774" lon="-5.30953">
        <ele>34.587309</ele>
        <time>2022-04-16T12:37:48.000Z</time>
      </trkpt>
      <trkpt lat="35.88772" lon="-5.30953">
        <ele>34.612354</ele>
        <time>2022-04-16T12:37:50.000Z</time>
      </trkpt>
      <trkpt lat="35.8877" lon="-5.30953">
        <ele>34.641631</ele>
        <time>2022-04-16T12:37:52.000Z</time>
      </trkpt>
      <trkpt lat="35.88766" lon="-5.30952">
        <ele>34.686494</ele>
        <time>2022-04-16T12:37:54.000Z</time>
      </trkpt>
      <trkpt lat="35.88765" lon="-5.30952">
        <ele>34.699686</ele>
        <time>2022-04-16T12:37:55.000Z</time>
      </trkpt>
      <trkpt lat="35.88761" lon="-5.30952">
        <ele>34.746873</ele>
        <time>2022-04-16T12:37:58.000Z</time>
      </trkpt>
      <trkpt lat="35.88759" lon="-5.30953">
        <ele>34.769305</ele>
        <time>2022-04-16T12:38:00.000Z</time>
      </trkpt>
      <trkpt lat="35.88757" lon="-5.30952">
        <ele>34.794061</ele>
        <time>2022-04-16T12:38:01.000Z</time>
      </trkpt>
      <trkpt lat="35.88752" lon="-5.30953">
        <ele>34.844452</ele>
        <time>2022-04-16T12:38:04.000Z</time>
      </trkpt>
      <trkpt lat="35.88751" lon="-5.30954">
        <ele>34.868285</ele>
        <time>2022-04-16T12:38:06.000Z</time>
      </trkpt>
      <trkpt lat="35.88748" lon="-5.30955">
        <ele>34.901581</ele>
        <time>2022-04-16T12:38:09.000Z</time>
      </trkpt>
      <trkpt lat="35.88747" lon="-5.30955">
        <ele>34.912082</ele>
        <time>2022-04-16T12:38:10.000Z</time>
      </trkpt>
      <trkpt lat="35.88746" lon="-5.30955">
        <ele>34.928028</ele>
        <time>2022-04-16T12:38:11.000Z</time>
      </trkpt>
      <trkpt lat="35.88742" lon="-5.30951">
        <ele>34.986951</ele>
        <time>2022-04-16T12:38:15.000Z</time>
      </trkpt>
      <trkpt lat="35.88741" lon="-5.3095">
        <ele>34.999971</ele>
        <time>2022-04-16T12:38:17.000Z</time>
      </trkpt>
      <trkpt lat="35.88739" lon="-5.30949">
        <ele>35.029912</ele>
        <time>2022-04-16T12:38:23.000Z</time>
      </trkpt>
      <trkpt lat="35.88735" lon="-5.30945">
        <ele>35.084874</ele>
        <time>2022-04-16T12:38:29.000Z</time>
      </trkpt>
      <trkpt lat="35.88731" lon="-5.3094">
        <ele>35.181854</ele>
        <time>2022-04-16T12:38:34.000Z</time>
      </trkpt>
      <trkpt lat="35.88731" lon="-5.30936">
        <ele>35.299133</ele>
        <time>2022-04-16T12:38:35.000Z</time>
      </trkpt>
      <trkpt lat="35.88735" lon="-5.30918">
        <ele>35.838639</ele>
        <time>2022-04-16T12:38:40.000Z</time>
      </trkpt>
      <trkpt lat="35.88737" lon="-5.30895">
        <ele>36.517792</ele>
        <time>2022-04-16T12:38:47.000Z</time>
      </trkpt>
      <trkpt lat="35.88735" lon="-5.30876">
        <ele>37.088178</ele>
        <time>2022-04-16T12:38:54.000Z</time>
      </trkpt>
      <trkpt lat="35.88736" lon="-5.30862">
        <ele>37.497884</ele>
        <time>2022-04-16T12:38:59.000Z</time>
      </trkpt>
      <trkpt lat="35.88737" lon="-5.30861">
        <ele>37.544248</ele>
        <time>2022-04-16T12:39:01.000Z</time>
      </trkpt>
      <trkpt lat="35.88738" lon="-5.30858">
        <ele>37.63028</ele>
        <time>2022-04-16T12:39:02.000Z</time>
      </trkpt>
      <trkpt lat="35.88738" lon="-5.30855">
        <ele>37.706475</ele>
        <time>2022-04-16T12:39:03.000Z</time>
      </trkpt>
      <trkpt lat="35.88739" lon="-5.30844">
        <ele>38.051529</ele>
        <time>2022-04-16T12:39:07.000Z</time>
      </trkpt>
      <trkpt lat="35.88739" lon="-5.30841">
        <ele>38.127864</ele>
        <time>2022-04-16T12:39:08.000Z</time>
      </trkpt>
      <trkpt lat="35.8874" lon="-5.30832">
        <ele>38.403804</ele>
        <time>2022-04-16T12:39:11.000Z</time>
      </trkpt>
      <trkpt lat="35.8874" lon="-5.30826">
        <ele>38.582935</ele>
        <time>2022-04-16T12:39:13.000Z</time>
      </trkpt>
      <trkpt lat="35.88741" lon="-5.30821">
        <ele>38.720974</ele>
        <time>2022-04-16T12:39:15.000Z</time>
      </trkpt>
      <trkpt lat="35.88738" lon="-5.30815">
        <ele>38.913206</ele>
        <time>2022-04-16T12:39:19.000Z</time>
      </trkpt>
      <trkpt lat="35.88738" lon="-5.30815">
        <ele>38.935146</ele>
        <time>2022-04-16T12:39:20.000Z</time>
      </trkpt>
      <trkpt lat="35.88734" lon="-5.30818">
        <ele>39.106307</ele>
        <time>2022-04-16T12:39:23.000Z</time>
      </trkpt>
      <trkpt lat="35.88725" lon="-5.30821">
        <ele>39.44572</ele>
        <time>2022-04-16T12:39:27.000Z</time>
      </trkpt>
      <trkpt lat="35.8872" lon="-5.30822">
        <ele>39.601948</ele>
        <time>2022-04-16T12:39:29.000Z</time>
      </trkpt>
      <trkpt lat="35.88717" lon="-5.30824">
        <ele>39.716231</ele>
        <time>2022-04-16T12:39:31.000Z</time>
      </trkpt>
      <trkpt lat="35.88714" lon="-5.30817">
        <ele>39.942761</ele>
        <time>2022-04-16T12:39:33.000Z</time>
      </trkpt>
      <trkpt lat="35.88712" lon="-5.30811">
        <ele>40.152013</ele>
        <time>2022-04-16T12:39:35.000Z</time>
      </trkpt>
      <trkpt lat="35.887" lon="-5.30808">
        <ele>40.595711</ele>
        <time>2022-04-16T12:39:44.000Z</time>
      </trkpt>
      <trkpt lat="35.88688" lon="-5.30795">
        <ele>41.167518</ele>
        <time>2022-04-16T12:39:52.000Z</time>
      </trkpt>
      <trkpt lat="35.88687" lon="-5.30795">
        <ele>41.206617</ele>
        <time>2022-04-16T12:39:53.000Z</time>
      </trkpt>
      <trkpt lat="35.88679" lon="-5.30792">
        <ele>41.479644</ele>
        <time>2022-04-16T12:39:57.000Z</time>
      </trkpt>
      <trkpt lat="35.88677" lon="-5.30791">
        <ele>41.560029</ele>
        <time>2022-04-16T12:39:58.000Z</time>
      </trkpt>
      <trkpt lat="35.88675" lon="-5.30787">
        <ele>41.655075</ele>
        <time>2022-04-16T12:40:00.000Z</time>
      </trkpt>
      <trkpt lat="35.88674" lon="-5.30785">
        <ele>41.64471</ele>
        <time>2022-04-16T12:40:01.000Z</time>
      </trkpt>
      <trkpt lat="35.88672" lon="-5.3078">
        <ele>41.619136</ele>
        <time>2022-04-16T12:40:03.000Z</time>
      </trkpt>
      <trkpt lat="35.88671" lon="-5.30777">
        <ele>41.603943</ele>
        <time>2022-04-16T12:40:04.000Z</time>
      </trkpt>
      <trkpt lat="35.8867" lon="-5.30771">
        <ele>41.5738</ele>
        <time>2022-04-16T12:40:06.000Z</time>
      </trkpt>
      <trkpt lat="35.8867" lon="-5.30768">
        <ele>41.559585</ele>
        <time>2022-04-16T12:40:07.000Z</time>
      </trkpt>
      <trkpt lat="35.88667" lon="-5.30762">
        <ele>41.526522</ele>
        <time>2022-04-16T12:40:09.000Z</time>
      </trkpt>
      <trkpt lat="35.88663" lon="-5.30752">
        <ele>41.475124</ele>
        <time>2022-04-16T12:40:13.000Z</time>
      </trkpt>
      <trkpt lat="35.88662" lon="-5.30753">
        <ele>41.46658</ele>
        <time>2022-04-16T12:40:14.000Z</time>
      </trkpt>
      <trkpt lat="35.88659" lon="-5.30756">
        <ele>41.444376</ele>
        <time>2022-04-16T12:40:16.000Z</time>
      </trkpt>
      <trkpt lat="35.88658" lon="-5.30758">
        <ele>41.430685</ele>
        <time>2022-04-16T12:40:18.000Z</time>
      </trkpt>
      <trkpt lat="35.88655" lon="-5.30761">
        <ele>41.413909</ele>
        <time>2022-04-16T12:40:19.000Z</time>
      </trkpt>
      <trkpt lat="35.88653" lon="-5.30767">
        <ele>41.381703</ele>
        <time>2022-04-16T12:40:21.000Z</time>
      </trkpt>
      <trkpt lat="35.8865" lon="-5.30766">
        <ele>41.362795</ele>
        <time>2022-04-16T12:40:25.000Z</time>
      </trkpt>
      <trkpt lat="35.88641" lon="-5.30765">
        <ele>41.313225</ele>
        <time>2022-04-16T12:40:31.000Z</time>
      </trkpt>
      <trkpt lat="35.88634" lon="-5.30769">
        <ele>41.263893</ele>
        <time>2022-04-16T12:40:36.000Z</time>
      </trkpt>
      <trkpt lat="35.88634" lon="-5.3077">
        <ele>41.259107</ele>
        <time>2022-04-16T12:40:37.000Z</time>
      </trkpt>
      <trkpt lat="35.88637" lon="-5.30776">
        <ele>41.222944</ele>
        <time>2022-04-16T12:40:41.000Z</time>
      </trkpt>
      <trkpt lat="35.88639" lon="-5.30777">
        <ele>41.2144</ele>
        <time>2022-04-16T12:40:42.000Z</time>
      </trkpt>
      <trkpt lat="35.88647" lon="-5.30781">
        <ele>41.1616</ele>
        <time>2022-04-16T12:40:47.000Z</time>
      </trkpt>
      <trkpt lat="35.88651" lon="-5.30783">
        <ele>41.136091</ele>
        <time>2022-04-16T12:40:49.000Z</time>
      </trkpt>
      <trkpt lat="35.88656" lon="-5.30784">
        <ele>41.10834</ele>
        <time>2022-04-16T12:40:51.000Z</time>
      </trkpt>
      <trkpt lat="35.8866" lon="-5.30785">
        <ele>41.083841</ele>
        <time>2022-04-16T12:40:53.000Z</time>
      </trkpt>
      <trkpt lat="35.88661" lon="-5.30787">
        <ele>41.071289</ele>
        <time>2022-04-16T12:40:54.000Z</time>
      </trkpt>
      <trkpt lat="35.88662" lon="-5.30789">
        <ele>41.061162</ele>
        <time>2022-04-16T12:40:55.000Z</time>
      </trkpt>
      <trkpt lat="35.88661" lon="-5.30791">
        <ele>41.049182</ele>
        <time>2022-04-16T12:40:56.000Z</time>
      </trkpt>
      <trkpt lat="35.88658" lon="-5.30793">
        <ele>41.028714</ele>
        <time>2022-04-16T12:40:58.000Z</time>
      </trkpt>
      <trkpt lat="35.88653" lon="-5.30795">
        <ele>41.002398</ele>
        <time>2022-04-16T12:41:00.000Z</time>
      </trkpt>
      <trkpt lat="35.8865" lon="-5.30795">
        <ele>40.983833</ele>
        <time>2022-04-16T12:41:02.000Z</time>
      </trkpt>
      <trkpt lat="35.88649" lon="-5.30796">
        <ele>40.975503</ele>
        <time>2022-04-16T12:41:03.000Z</time>
      </trkpt>
      <trkpt lat="35.88646" lon="-5.30796">
        <ele>40.959998</ele>
        <time>2022-04-16T12:41:10.000Z</time>
      </trkpt>
      <trkpt lat="35.88645" lon="-5.30796">
        <ele>40.951192</ele>
        <time>2022-04-16T12:41:15.000Z</time>
      </trkpt>
      <trkpt lat="35.88643" lon="-5.30797">
        <ele>40.938868</ele>
        <time>2022-04-16T12:41:20.000Z</time>
      </trkpt>
      <trkpt lat="35.88644" lon="-5.30799">
        <ele>40.925952</ele>
        <time>2022-04-16T12:41:25.000Z</time>
      </trkpt>
      <trkpt lat="35.88647" lon="-5.30796">
        <ele>40.903463</ele>
        <time>2022-04-16T12:41:30.000Z</time>
      </trkpt>
      <trkpt lat="35.88648" lon="-5.30793">
        <ele>40.888464</ele>
        <time>2022-04-16T12:41:33.000Z</time>
      </trkpt>
      <trkpt lat="35.88648" lon="-5.30786">
        <ele>40.853314</ele>
        <time>2022-04-16T12:41:43.000Z</time>
      </trkpt>
      <trkpt lat="35.88646" lon="-5.30795">
        <ele>40.809996</ele>
        <time>2022-04-16T12:45:17.000Z</time>
      </trkpt>
      <trkpt lat="35.88647" lon="-5.30796">
        <ele>40.802583</ele>
        <time>2022-04-16T12:45:18.000Z</time>
      </trkpt>
      <trkpt lat="35.88647" lon="-5.30795">
        <ele>40.799234</ele>
        <time>2022-04-16T12:45:23.000Z</time>
      </trkpt>
      <trkpt lat="35.88648" lon="-5.30795">
        <ele>40.79181</ele>
        <time>2022-04-16T12:45:25.000Z</time>
      </trkpt>
      <trkpt lat="35.88647" lon="-5.30794">
        <ele>40.783578</ele>
        <time>2022-04-16T12:45:31.000Z</time>
      </trkpt>
      <trkpt lat="35.88646" lon="-5.30794">
        <ele>40.781234</ele>
        <time>2022-04-16T12:45:35.000Z</time>
      </trkpt>
      <trkpt lat="35.88648" lon="-5.30794">
        <ele>40.774056</ele>
        <time>2022-04-16T12:45:38.000Z</time>
      </trkpt>
      <trkpt lat="35.88647" lon="-5.30794">
        <ele>40.768569</ele>
        <time>2022-04-16T12:45:47.000Z</time>
      </trkpt>
      <trkpt lat="35.88647" lon="-5.30793">
        <ele>40.764926</ele>
        <time>2022-04-16T12:45:53.000Z</time>
      </trkpt>
      <trkpt lat="35.88647" lon="-5.30793">
        <ele>40.764926</ele>
        <time>2022-04-16T12:45:55.000Z</time>
      </trkpt>
      <trkpt lat="35.88647" lon="-5.30793">
        <ele>40.764926</ele>
        <time>2022-04-16T12:45:57.000Z</time>
      </trkpt>
      <trkpt lat="35.88647" lon="-5.30793">
        <ele>40.764926</ele>
        <time>2022-04-16T12:46:00.000Z</time>
      </trkpt>
      <trkpt lat="35.88648" lon="-5.30793">
        <ele>40.76434</ele>
        <time>2022-04-16T12:46:03.000Z</time>
      </trkpt>
      <trkpt lat="35.88648" lon="-5.30793">
        <ele>40.76149</ele>
        <time>2022-04-16T12:46:07.000Z</time>
      </trkpt>
      <trkpt lat="35.88647" lon="-5.30792">
        <ele>40.757646</ele>
        <time>2022-04-16T12:46:15.000Z</time>
      </trkpt>
      <trkpt lat="35.88647" lon="-5.30789">
        <ele>40.741287</ele>
        <time>2022-04-16T12:46:31.000Z</time>
      </trkpt>
      <trkpt lat="35.88646" lon="-5.30788">
        <ele>40.736411</ele>
        <time>2022-04-16T12:46:35.000Z</time>
      </trkpt>
      <trkpt lat="35.88646" lon="-5.30789">
        <ele>40.731979</ele>
        <time>2022-04-16T12:46:40.000Z</time>
      </trkpt>
      <trkpt lat="35.88648" lon="-5.3079">
        <ele>40.721466</ele>
        <time>2022-04-16T12:46:46.000Z</time>
      </trkpt>
      <trkpt lat="35.88647" lon="-5.30789">
        <ele>40.717469</ele>
        <time>2022-04-16T12:46:53.000Z</time>
      </trkpt>
      <trkpt lat="35.88649" lon="-5.30786">
        <ele>40.698541</ele>
        <time>2022-04-16T12:47:01.000Z</time>
      </trkpt>
      <trkpt lat="35.88648" lon="-5.30786">
        <ele>40.696695</ele>
        <time>2022-04-16T12:47:09.000Z</time>
      </trkpt>
      <trkpt lat="35.88649" lon="-5.30786">
        <ele>40.695155</ele>
        <time>2022-04-16T12:47:10.000Z</time>
      </trkpt>
      <trkpt lat="35.88648" lon="-5.30788">
        <ele>40.684216</ele>
        <time>2022-04-16T12:47:14.000Z</time>
      </trkpt>
      <trkpt lat="35.88648" lon="-5.30788">
        <ele>40.681952</ele>
        <time>2022-04-16T12:47:17.000Z</time>
      </trkpt>
      <trkpt lat="35.88649" lon="-5.30788">
        <ele>40.679021</ele>
        <time>2022-04-16T12:47:22.000Z</time>
      </trkpt>
      <trkpt lat="35.88649" lon="-5.3079">
        <ele>40.671333</ele>
        <time>2022-04-16T12:47:24.000Z</time>
      </trkpt>
      <trkpt lat="35.88648" lon="-5.3079">
        <ele>40.667335</ele>
        <time>2022-04-16T12:47:26.000Z</time>
      </trkpt>
      <trkpt lat="35.88648" lon="-5.30786">
        <ele>40.648114</ele>
        <time>2022-04-16T12:47:29.000Z</time>
      </trkpt>
      <trkpt lat="35.88647" lon="-5.30786">
        <ele>40.64151</ele>
        <time>2022-04-16T12:47:31.000Z</time>
      </trkpt>
      <trkpt lat="35.88658" lon="-5.30788">
        <ele>40.372122</ele>
        <time>2022-04-16T12:47:36.000Z</time>
      </trkpt>
      <trkpt lat="35.88666" lon="-5.30794">
        <ele>40.016836</ele>
        <time>2022-04-16T12:47:40.000Z</time>
      </trkpt>
      <trkpt lat="35.88679" lon="-5.30799">
        <ele>39.522586</ele>
        <time>2022-04-16T12:47:43.000Z</time>
      </trkpt>
      <trkpt lat="35.88683" lon="-5.30802">
        <ele>39.334867</ele>
        <time>2022-04-16T12:47:45.000Z</time>
      </trkpt>
      <trkpt lat="35.88689" lon="-5.30807">
        <ele>39.070634</ele>
        <time>2022-04-16T12:47:49.000Z</time>
      </trkpt>
      <trkpt lat="35.88689" lon="-5.30808">
        <ele>39.019683</ele>
        <time>2022-04-16T12:47:50.000Z</time>
      </trkpt>
      <trkpt lat="35.88692" lon="-5.30819">
        <ele>38.675235</ele>
        <time>2022-04-16T12:47:54.000Z</time>
      </trkpt>
      <trkpt lat="35.88692" lon="-5.30834">
        <ele>38.206516</ele>
        <time>2022-04-16T12:47:58.000Z</time>
      </trkpt>
      <trkpt lat="35.88692" lon="-5.3084">
        <ele>38.017113</ele>
        <time>2022-04-16T12:48:00.000Z</time>
      </trkpt>
      <trkpt lat="35.88687" lon="-5.30856">
        <ele>37.491663</ele>
        <time>2022-04-16T12:48:05.000Z</time>
      </trkpt>
      <trkpt lat="35.88686" lon="-5.30864">
        <ele>37.248982</ele>
        <time>2022-04-16T12:48:07.000Z</time>
      </trkpt>
      <trkpt lat="35.88681" lon="-5.30886">
        <ele>36.543945</ele>
        <time>2022-04-16T12:48:12.000Z</time>
      </trkpt>
      <trkpt lat="35.88679" lon="-5.30896">
        <ele>36.224387</ele>
        <time>2022-04-16T12:48:14.000Z</time>
      </trkpt>
      <trkpt lat="35.88677" lon="-5.30901">
        <ele>36.050668</ele>
        <time>2022-04-16T12:48:15.000Z</time>
      </trkpt>
      <trkpt lat="35.88675" lon="-5.30912">
        <ele>35.703228</ele>
        <time>2022-04-16T12:48:17.000Z</time>
      </trkpt>
      <trkpt lat="35.88675" lon="-5.30916">
        <ele>35.572701</ele>
        <time>2022-04-16T12:48:18.000Z</time>
      </trkpt>
      <trkpt lat="35.88675" lon="-5.3092">
        <ele>35.448544</ele>
        <time>2022-04-16T12:48:19.000Z</time>
      </trkpt>
      <trkpt lat="35.88675" lon="-5.30931">
        <ele>35.11029</ele>
        <time>2022-04-16T12:48:22.000Z</time>
      </trkpt>
      <trkpt lat="35.88672" lon="-5.30941">
        <ele>34.771992</ele>
        <time>2022-04-16T12:48:24.000Z</time>
      </trkpt>
      <trkpt lat="35.8867" lon="-5.30947">
        <ele>34.579304</ele>
        <time>2022-04-16T12:48:25.000Z</time>
      </trkpt>
      <trkpt lat="35.88669" lon="-5.30954">
        <ele>34.37064</ele>
        <time>2022-04-16T12:48:26.000Z</time>
      </trkpt>
      <trkpt lat="35.88665" lon="-5.30968">
        <ele>33.909032</ele>
        <time>2022-04-16T12:48:28.000Z</time>
      </trkpt>
      <trkpt lat="35.88663" lon="-5.30975">
        <ele>33.697313</ele>
        <time>2022-04-16T12:48:29.000Z</time>
      </trkpt>
      <trkpt lat="35.88662" lon="-5.3098">
        <ele>33.589126</ele>
        <time>2022-04-16T12:48:30.000Z</time>
      </trkpt>
      <trkpt lat="35.88661" lon="-5.30986">
        <ele>33.48322</ele>
        <time>2022-04-16T12:48:31.000Z</time>
      </trkpt>
      <trkpt lat="35.8866" lon="-5.30999">
        <ele>33.239684</ele>
        <time>2022-04-16T12:48:33.000Z</time>
      </trkpt>
      <trkpt lat="35.8866" lon="-5.31012">
        <ele>32.990594</ele>
        <time>2022-04-16T12:48:35.000Z</time>
      </trkpt>
      <trkpt lat="35.8866" lon="-5.31019">
        <ele>32.869237</ele>
        <time>2022-04-16T12:48:36.000Z</time>
      </trkpt>
      <trkpt lat="35.8866" lon="-5.31038">
        <ele>32.507152</ele>
        <time>2022-04-16T12:48:39.000Z</time>
      </trkpt>
      <trkpt lat="35.8866" lon="-5.31046">
        <ele>32.366151</ele>
        <time>2022-04-16T12:48:41.000Z</time>
      </trkpt>
      <trkpt lat="35.88659" lon="-5.31074">
        <ele>31.851799</ele>
        <time>2022-04-16T12:48:47.000Z</time>
      </trkpt>
      <trkpt lat="35.88657" lon="-5.31101">
        <ele>31.347208</ele>
        <time>2022-04-16T12:48:54.000Z</time>
      </trkpt>
      <trkpt lat="35.8866" lon="-5.31118">
        <ele>31.013901</ele>
        <time>2022-04-16T12:48:57.000Z</time>
      </trkpt>
      <trkpt lat="35.88666" lon="-5.31139">
        <ele>30.602769</ele>
        <time>2022-04-16T12:49:00.000Z</time>
      </trkpt>
      <trkpt lat="35.88668" lon="-5.31148">
        <ele>30.430946</ele>
        <time>2022-04-16T12:49:02.000Z</time>
      </trkpt>
      <trkpt lat="35.88672" lon="-5.31155">
        <ele>30.26226</ele>
        <time>2022-04-16T12:49:04.000Z</time>
      </trkpt>
      <trkpt lat="35.88682" lon="-5.31148">
        <ele>29.998216</ele>
        <time>2022-04-16T12:49:07.000Z</time>
      </trkpt>
      <trkpt lat="35.88707" lon="-5.31136">
        <ele>29.190817</ele>
        <time>2022-04-16T12:49:14.000Z</time>
      </trkpt>
      <trkpt lat="35.88724" lon="-5.31129">
        <ele>28.46055</ele>
        <time>2022-04-16T12:49:18.000Z</time>
      </trkpt>
      <trkpt lat="35.88732" lon="-5.31125">
        <ele>28.117865</ele>
        <time>2022-04-16T12:49:21.000Z</time>
      </trkpt>
      <trkpt lat="35.88737" lon="-5.31123">
        <ele>27.916775</ele>
        <time>2022-04-16T12:49:22.000Z</time>
      </trkpt>
      <trkpt lat="35.8874" lon="-5.31121">
        <ele>27.7658</ele>
        <time>2022-04-16T12:49:23.000Z</time>
      </trkpt>
      <trkpt lat="35.88752" lon="-5.31117">
        <ele>27.274199</ele>
        <time>2022-04-16T12:49:27.000Z</time>
      </trkpt>
      <trkpt lat="35.88754" lon="-5.31116">
        <ele>27.18556</ele>
        <time>2022-04-16T12:49:28.000Z</time>
      </trkpt>
      <trkpt lat="35.88765" lon="-5.31118">
        <ele>26.727961</ele>
        <time>2022-04-16T12:49:32.000Z</time>
      </trkpt>
      <trkpt lat="35.88774" lon="-5.3113">
        <ele>26.188102</ele>
        <time>2022-04-16T12:49:36.000Z</time>
      </trkpt>
      <trkpt lat="35.88778" lon="-5.31138">
        <ele>25.88207</ele>
        <time>2022-04-16T12:49:38.000Z</time>
      </trkpt>
      <trkpt lat="35.88781" lon="-5.31147">
        <ele>25.550003</ele>
        <time>2022-04-16T12:49:40.000Z</time>
      </trkpt>
      <trkpt lat="35.88789" lon="-5.31171">
        <ele>24.711288</ele>
        <time>2022-04-16T12:49:45.000Z</time>
      </trkpt>
      <trkpt lat="35.88791" lon="-5.31175">
        <ele>24.572575</ele>
        <time>2022-04-16T12:49:46.000Z</time>
      </trkpt>
      <trkpt lat="35.88799" lon="-5.31201">
        <ele>23.632989</ele>
        <time>2022-04-16T12:49:51.000Z</time>
      </trkpt>
      <trkpt lat="35.88806" lon="-5.3122">
        <ele>22.925719</ele>
        <time>2022-04-16T12:49:55.000Z</time>
      </trkpt>
      <trkpt lat="35.8881" lon="-5.31226">
        <ele>22.686894</ele>
        <time>2022-04-16T12:49:57.000Z</time>
      </trkpt>
      <trkpt lat="35.88812" lon="-5.31229">
        <ele>22.573306</ele>
        <time>2022-04-16T12:49:58.000Z</time>
      </trkpt>
      <trkpt lat="35.88817" lon="-5.31244">
        <ele>22.017061</ele>
        <time>2022-04-16T12:50:02.000Z</time>
      </trkpt>
      <trkpt lat="35.88819" lon="-5.31248">
        <ele>21.839314</ele>
        <time>2022-04-16T12:50:03.000Z</time>
      </trkpt>
      <trkpt lat="35.88821" lon="-5.31259">
        <ele>21.423593</ele>
        <time>2022-04-16T12:50:06.000Z</time>
      </trkpt>
      <trkpt lat="35.88827" lon="-5.3127">
        <ele>20.971351</ele>
        <time>2022-04-16T12:50:11.000Z</time>
      </trkpt>
      <trkpt lat="35.88838" lon="-5.31275">
        <ele>20.416734</ele>
        <time>2022-04-16T12:50:16.000Z</time>
      </trkpt>
      <trkpt lat="35.88845" lon="-5.31282">
        <ele>20.044251</ele>
        <time>2022-04-16T12:50:18.000Z</time>
      </trkpt>
      <trkpt lat="35.88852" lon="-5.31289">
        <ele>19.635073</ele>
        <time>2022-04-16T12:50:20.000Z</time>
      </trkpt>
      <trkpt lat="35.88855" lon="-5.31292">
        <ele>19.441975</ele>
        <time>2022-04-16T12:50:21.000Z</time>
      </trkpt>
      <trkpt lat="35.88863" lon="-5.31297">
        <ele>19.063597</ele>
        <time>2022-04-16T12:50:23.000Z</time>
      </trkpt>
      <trkpt lat="35.88866" lon="-5.31298">
        <ele>18.924865</ele>
        <time>2022-04-16T12:50:24.000Z</time>
      </trkpt>
      <trkpt lat="35.88869" lon="-5.31299">
        <ele>18.774464</ele>
        <time>2022-04-16T12:50:25.000Z</time>
      </trkpt>
      <trkpt lat="35.8888" lon="-5.31304">
        <ele>18.249731</ele>
        <time>2022-04-16T12:50:28.000Z</time>
      </trkpt>
      <trkpt lat="35.88885" lon="-5.31305">
        <ele>18.026709</ele>
        <time>2022-04-16T12:50:29.000Z</time>
      </trkpt>
      <trkpt lat="35.8889" lon="-5.31307">
        <ele>17.792058</ele>
        <time>2022-04-16T12:50:30.000Z</time>
      </trkpt>
      <trkpt lat="35.88897" lon="-5.31315">
        <ele>17.379197</ele>
        <time>2022-04-16T12:50:32.000Z</time>
      </trkpt>
      <trkpt lat="35.88899" lon="-5.31326">
        <ele>16.964381</ele>
        <time>2022-04-16T12:50:34.000Z</time>
      </trkpt>
      <trkpt lat="35.88898" lon="-5.31332">
        <ele>16.748016</ele>
        <time>2022-04-16T12:50:35.000Z</time>
      </trkpt>
      <trkpt lat="35.88893" lon="-5.31369">
        <ele>15.373193</ele>
        <time>2022-04-16T12:50:41.000Z</time>
      </trkpt>
      <trkpt lat="35.88893" lon="-5.31376">
        <ele>15.112776</ele>
        <time>2022-04-16T12:50:42.000Z</time>
      </trkpt>
      <trkpt lat="35.88893" lon="-5.314">
        <ele>14.262794</ele>
        <time>2022-04-16T12:50:45.000Z</time>
      </trkpt>
      <trkpt lat="35.88893" lon="-5.31408">
        <ele>14.222233</ele>
        <time>2022-04-16T12:50:46.000Z</time>
      </trkpt>
      <trkpt lat="35.88895" lon="-5.31425">
        <ele>14.177233</ele>
        <time>2022-04-16T12:50:48.000Z</time>
      </trkpt>
      <trkpt lat="35.88899" lon="-5.31442">
        <ele>14.131736</ele>
        <time>2022-04-16T12:50:50.000Z</time>
      </trkpt>
      <trkpt lat="35.88901" lon="-5.31458">
        <ele>14.086521</ele>
        <time>2022-04-16T12:50:52.000Z</time>
      </trkpt>
      <trkpt lat="35.88907" lon="-5.3149">
        <ele>13.999849</ele>
        <time>2022-04-16T12:50:56.000Z</time>
      </trkpt>
      <trkpt lat="35.88915" lon="-5.31528">
        <ele>13.897696</ele>
        <time>2022-04-16T12:51:01.000Z</time>
      </trkpt>
      <trkpt lat="35.88917" lon="-5.31542">
        <ele>13.859325</ele>
        <time>2022-04-16T12:51:03.000Z</time>
      </trkpt>
      <trkpt lat="35.88929" lon="-5.31607">
        <ele>13.685221</ele>
        <time>2022-04-16T12:51:12.000Z</time>
      </trkpt>
      <trkpt lat="35.88935" lon="-5.31643">
        <ele>14.22578</ele>
        <time>2022-04-16T12:51:17.000Z</time>
      </trkpt>
      <trkpt lat="35.88938" lon="-5.31658">
        <ele>14.550215</ele>
        <time>2022-04-16T12:51:19.000Z</time>
      </trkpt>
      <trkpt lat="35.88951" lon="-5.31699">
        <ele>15.46959</ele>
        <time>2022-04-16T12:51:25.000Z</time>
      </trkpt>
      <trkpt lat="35.88954" lon="-5.31704">
        <ele>15.598963</ele>
        <time>2022-04-16T12:51:26.000Z</time>
      </trkpt>
      <trkpt lat="35.88959" lon="-5.31712">
        <ele>15.827732</ele>
        <time>2022-04-16T12:51:28.000Z</time>
      </trkpt>
      <trkpt lat="35.88964" lon="-5.31719">
        <ele>16.01531</ele>
        <time>2022-04-16T12:51:30.000Z</time>
      </trkpt>
      <trkpt lat="35.88969" lon="-5.31728">
        <ele>16.250596</ele>
        <time>2022-04-16T12:51:33.000Z</time>
      </trkpt>
      <trkpt lat="35.88974" lon="-5.31736">
        <ele>16.46446</ele>
        <time>2022-04-16T12:51:36.000Z</time>
      </trkpt>
      <trkpt lat="35.88976" lon="-5.31739">
        <ele>16.540178</ele>
        <time>2022-04-16T12:51:37.000Z</time>
      </trkpt>
      <trkpt lat="35.88988" lon="-5.31756">
        <ele>17.015601</ele>
        <time>2022-04-16T12:51:44.000Z</time>
      </trkpt>
      <trkpt lat="35.88989" lon="-5.31759">
        <ele>17.091386</ele>
        <time>2022-04-16T12:51:45.000Z</time>
      </trkpt>
      <trkpt lat="35.89007" lon="-5.31782">
        <ele>17.749193</ele>
        <time>2022-04-16T12:51:53.000Z</time>
      </trkpt>
      <trkpt lat="35.89021" lon="-5.31792">
        <ele>18.191977</ele>
        <time>2022-04-16T12:51:58.000Z</time>
      </trkpt>
      <trkpt lat="35.89023" lon="-5.31811">
        <ele>18.397411</ele>
        <time>2022-04-16T12:52:02.000Z</time>
      </trkpt>
      <trkpt lat="35.89013" lon="-5.31826">
        <ele>18.469164</ele>
        <time>2022-04-16T12:52:06.000Z</time>
      </trkpt>
      <trkpt lat="35.89011" lon="-5.31835">
        <ele>18.505414</ele>
        <time>2022-04-16T12:52:08.000Z</time>
      </trkpt>
      <trkpt lat="35.8901" lon="-5.31852">
        <ele>18.565146</ele>
        <time>2022-04-16T12:52:11.000Z</time>
      </trkpt>
      <trkpt lat="35.89009" lon="-5.31863">
        <ele>18.608901</ele>
        <time>2022-04-16T12:52:13.000Z</time>
      </trkpt>
      <trkpt lat="35.89007" lon="-5.3188">
        <ele>18.670882</ele>
        <time>2022-04-16T12:52:16.000Z</time>
      </trkpt>
      <trkpt lat="35.89006" lon="-5.31895">
        <ele>18.72571</ele>
        <time>2022-04-16T12:52:19.000Z</time>
      </trkpt>
      <trkpt lat="35.89004" lon="-5.3191">
        <ele>18.781907</ele>
        <time>2022-04-16T12:52:22.000Z</time>
      </trkpt>
      <trkpt lat="35.89001" lon="-5.31927">
        <ele>18.848138</ele>
        <time>2022-04-16T12:52:25.000Z</time>
      </trkpt>
      <trkpt lat="35.88995" lon="-5.3195">
        <ele>18.936521</ele>
        <time>2022-04-16T12:52:29.000Z</time>
      </trkpt>
      <trkpt lat="35.88993" lon="-5.31955">
        <ele>18.957565</ele>
        <time>2022-04-16T12:52:30.000Z</time>
      </trkpt>
      <trkpt lat="35.88989" lon="-5.31965">
        <ele>18.998495</ele>
        <time>2022-04-16T12:52:32.000Z</time>
      </trkpt>
      <trkpt lat="35.88987" lon="-5.31974">
        <ele>19.030817</ele>
        <time>2022-04-16T12:52:34.000Z</time>
      </trkpt>
      <trkpt lat="35.88984" lon="-5.3198">
        <ele>19.057047</ele>
        <time>2022-04-16T12:52:36.000Z</time>
      </trkpt>
      <trkpt lat="35.88979" lon="-5.31986">
        <ele>19.092254</ele>
        <time>2022-04-16T12:52:39.000Z</time>
      </trkpt>
      <trkpt lat="35.88977" lon="-5.31988">
        <ele>19.103797</ele>
        <time>2022-04-16T12:52:40.000Z</time>
      </trkpt>
      <trkpt lat="35.88966" lon="-5.32001">
        <ele>19.168923</ele>
        <time>2022-04-16T12:52:46.000Z</time>
      </trkpt>
      <trkpt lat="35.88963" lon="-5.32003">
        <ele>19.153659</ele>
        <time>2022-04-16T12:52:48.000Z</time>
      </trkpt>
      <trkpt lat="35.88962" lon="-5.32005">
        <ele>19.128227</ele>
        <time>2022-04-16T12:52:51.000Z</time>
      </trkpt>
      <trkpt lat="35.88962" lon="-5.32004">
        <ele>19.11971</ele>
        <time>2022-04-16T12:52:57.000Z</time>
      </trkpt>
      <trkpt lat="35.88962" lon="-5.32004">
        <ele>19.11971</ele>
        <time>2022-04-16T12:53:05.000Z</time>
      </trkpt>
      <trkpt lat="35.88962" lon="-5.32004">
        <ele>19.11971</ele>
        <time>2022-04-16T12:53:07.000Z</time>
      </trkpt>
      <trkpt lat="35.88962" lon="-5.32004">
        <ele>19.116496</ele>
        <time>2022-04-16T12:53:11.000Z</time>
      </trkpt>
      <trkpt lat="35.88967" lon="-5.32">
        <ele>19.043128</ele>
        <time>2022-04-16T12:53:13.000Z</time>
      </trkpt>
      <trkpt lat="35.88979" lon="-5.31987">
        <ele>18.848133</ele>
        <time>2022-04-16T12:53:17.000Z</time>
      </trkpt>
      <trkpt lat="35.88984" lon="-5.3198">
        <ele>18.75054</ele>
        <time>2022-04-16T12:53:19.000Z</time>
      </trkpt>
      <trkpt lat="35.88994" lon="-5.31964">
        <ele>18.553083</ele>
        <time>2022-04-16T12:53:24.000Z</time>
      </trkpt>
      <trkpt lat="35.89" lon="-5.31954">
        <ele>18.427179</ele>
        <time>2022-04-16T12:53:27.000Z</time>
      </trkpt>
      <trkpt lat="35.89008" lon="-5.31935">
        <ele>18.201653</ele>
        <time>2022-04-16T12:53:33.000Z</time>
      </trkpt>
      <trkpt lat="35.89008" lon="-5.31933">
        <ele>18.187269</ele>
        <time>2022-04-16T12:53:34.000Z</time>
      </trkpt>
      <trkpt lat="35.89008" lon="-5.31931">
        <ele>18.163699</ele>
        <time>2022-04-16T12:53:36.000Z</time>
      </trkpt>
      <trkpt lat="35.89009" lon="-5.31929">
        <ele>18.14586</ele>
        <time>2022-04-16T12:53:38.000Z</time>
      </trkpt>
      <trkpt lat="35.8901" lon="-5.31925">
        <ele>18.100344</ele>
        <time>2022-04-16T12:53:40.000Z</time>
      </trkpt>
      <trkpt lat="35.89011" lon="-5.31921">
        <ele>18.052786</ele>
        <time>2022-04-16T12:53:42.000Z</time>
      </trkpt>
      <trkpt lat="35.8901" lon="-5.31903">
        <ele>17.87721</ele>
        <time>2022-04-16T12:53:47.000Z</time>
      </trkpt>
      <trkpt lat="35.8901" lon="-5.31895">
        <ele>17.790117</ele>
        <time>2022-04-16T12:53:49.000Z</time>
      </trkpt>
      <trkpt lat="35.89008" lon="-5.31883">
        <ele>17.670266</ele>
        <time>2022-04-16T12:53:53.000Z</time>
      </trkpt>
      <trkpt lat="35.89009" lon="-5.3188">
        <ele>17.640818</ele>
        <time>2022-04-16T12:53:54.000Z</time>
      </trkpt>
      <trkpt lat="35.89011" lon="-5.31856">
        <ele>17.390123</ele>
        <time>2022-04-16T12:54:01.000Z</time>
      </trkpt>
      <trkpt lat="35.89013" lon="-5.31837">
        <ele>17.201116</ele>
        <time>2022-04-16T12:54:06.000Z</time>
      </trkpt>
      <trkpt lat="35.89013" lon="-5.3183">
        <ele>17.132134</ele>
        <time>2022-04-16T12:54:08.000Z</time>
      </trkpt>
      <trkpt lat="35.89017" lon="-5.31818">
        <ele>17.001775</ele>
        <time>2022-04-16T12:54:12.000Z</time>
      </trkpt>
      <trkpt lat="35.89025" lon="-5.31806">
        <ele>16.793732</ele>
        <time>2022-04-16T12:54:17.000Z</time>
      </trkpt>
      <trkpt lat="35.89025" lon="-5.31802">
        <ele>16.74022</ele>
        <time>2022-04-16T12:54:18.000Z</time>
      </trkpt>
      <trkpt lat="35.89025" lon="-5.31799">
        <ele>16.683127</ele>
        <time>2022-04-16T12:54:19.000Z</time>
      </trkpt>
      <trkpt lat="35.89027" lon="-5.31785">
        <ele>16.461257</ele>
        <time>2022-04-16T12:54:24.000Z</time>
      </trkpt>
      <trkpt lat="35.8903" lon="-5.31782">
        <ele>16.38924</ele>
        <time>2022-04-16T12:54:30.000Z</time>
      </trkpt>
      <trkpt lat="35.89035" lon="-5.31775">
        <ele>16.237646</ele>
        <time>2022-04-16T12:54:34.000Z</time>
      </trkpt>
      <trkpt lat="35.89037" lon="-5.31772">
        <ele>16.174809</ele>
        <time>2022-04-16T12:54:35.000Z</time>
      </trkpt>
      <trkpt lat="35.8904" lon="-5.31769">
        <ele>16.102397</ele>
        <time>2022-04-16T12:54:36.000Z</time>
      </trkpt>
      <trkpt lat="35.89052" lon="-5.31756">
        <ele>15.785969</ele>
        <time>2022-04-16T12:54:40.000Z</time>
      </trkpt>
      <trkpt lat="35.89056" lon="-5.31752">
        <ele>15.692814</ele>
        <time>2022-04-16T12:54:41.000Z</time>
      </trkpt>
      <trkpt lat="35.89063" lon="-5.31745">
        <ele>15.504741</ele>
        <time>2022-04-16T12:54:43.000Z</time>
      </trkpt>
      <trkpt lat="35.89067" lon="-5.31741">
        <ele>15.414147</ele>
        <time>2022-04-16T12:54:44.000Z</time>
      </trkpt>
      <trkpt lat="35.89075" lon="-5.31739">
        <ele>15.261569</ele>
        <time>2022-04-16T12:54:46.000Z</time>
      </trkpt>
      <trkpt lat="35.89081" lon="-5.31743">
        <ele>15.123446</ele>
        <time>2022-04-16T12:54:48.000Z</time>
      </trkpt>
      <trkpt lat="35.89083" lon="-5.31746">
        <ele>15.056786</ele>
        <time>2022-04-16T12:54:49.000Z</time>
      </trkpt>
      <trkpt lat="35.89086" lon="-5.31755">
        <ele>14.912986</ele>
        <time>2022-04-16T12:54:51.000Z</time>
      </trkpt>
      <trkpt lat="35.89088" lon="-5.3177">
        <ele>14.661218</ele>
        <time>2022-04-16T12:54:55.000Z</time>
      </trkpt>
      <trkpt lat="35.89093" lon="-5.31793">
        <ele>14.295111</ele>
        <time>2022-04-16T12:55:01.000Z</time>
      </trkpt>
      <trkpt lat="35.89093" lon="-5.31795">
        <ele>14.254792</ele>
        <time>2022-04-16T12:55:04.000Z</time>
      </trkpt>
      <trkpt lat="35.89094" lon="-5.31795">
        <ele>14.244527</ele>
        <time>2022-04-16T12:55:09.000Z</time>
      </trkpt>
      <trkpt lat="35.89096" lon="-5.31796">
        <ele>14.19334</ele>
        <time>2022-04-16T12:55:13.000Z</time>
      </trkpt>
      <trkpt lat="35.89096" lon="-5.31798">
        <ele>14.164594</ele>
        <time>2022-04-16T12:55:14.000Z</time>
      </trkpt>
      <trkpt lat="35.89096" lon="-5.318">
        <ele>14.143207</ele>
        <time>2022-04-16T12:55:15.000Z</time>
      </trkpt>
      <trkpt lat="35.89099" lon="-5.31801">
        <ele>14.096595</ele>
        <time>2022-04-16T12:55:16.000Z</time>
      </trkpt>
      <trkpt lat="35.89105" lon="-5.31805">
        <ele>13.958233</ele>
        <time>2022-04-16T12:55:18.000Z</time>
      </trkpt>
      <trkpt lat="35.89112" lon="-5.31821">
        <ele>13.664934</ele>
        <time>2022-04-16T12:55:22.000Z</time>
      </trkpt>
      <trkpt lat="35.89117" lon="-5.31841">
        <ele>13.411488</ele>
        <time>2022-04-16T12:55:26.000Z</time>
      </trkpt>
      <trkpt lat="35.8912" lon="-5.31853">
        <ele>13.393348</ele>
        <time>2022-04-16T12:55:28.000Z</time>
      </trkpt>
      <trkpt lat="35.89133" lon="-5.31896">
        <ele>13.329218</ele>
        <time>2022-04-16T12:55:36.000Z</time>
      </trkpt>
      <trkpt lat="35.8914" lon="-5.31924">
        <ele>13.287729</ele>
        <time>2022-04-16T12:55:41.000Z</time>
      </trkpt>
      <trkpt lat="35.89146" lon="-5.31946">
        <ele>13.255351</ele>
        <time>2022-04-16T12:55:45.000Z</time>
      </trkpt>
      <trkpt lat="35.89157" lon="-5.31972">
        <ele>13.213838</ele>
        <time>2022-04-16T12:55:50.000Z</time>
      </trkpt>
      <trkpt lat="35.8916" lon="-5.31976">
        <ele>13.205798</ele>
        <time>2022-04-16T12:55:51.000Z</time>
      </trkpt>
      <trkpt lat="35.89164" lon="-5.31979">
        <ele>13.197713</ele>
        <time>2022-04-16T12:55:52.000Z</time>
      </trkpt>
      <trkpt lat="35.89172" lon="-5.31984">
        <ele>13.180957</ele>
        <time>2022-04-16T12:55:54.000Z</time>
      </trkpt>
      <trkpt lat="35.89176" lon="-5.31989">
        <ele>13.172249</ele>
        <time>2022-04-16T12:55:55.000Z</time>
      </trkpt>
      <trkpt lat="35.89178" lon="-5.31995">
        <ele>13.162088</ele>
        <time>2022-04-16T12:55:56.000Z</time>
      </trkpt>
      <trkpt lat="35.89181" lon="-5.32005">
        <ele>13.14703</ele>
        <time>2022-04-16T12:55:58.000Z</time>
      </trkpt>
      <trkpt lat="35.89184" lon="-5.3201">
        <ele>13.138732</ele>
        <time>2022-04-16T12:55:59.000Z</time>
      </trkpt>
      <trkpt lat="35.89197" lon="-5.3203">
        <ele>13.105119</ele>
        <time>2022-04-16T12:56:03.000Z</time>
      </trkpt>
      <trkpt lat="35.89207" lon="-5.32045">
        <ele>13.10403</ele>
        <time>2022-04-16T12:56:06.000Z</time>
      </trkpt>
      <trkpt lat="35.89213" lon="-5.32053">
        <ele>13.10343</ele>
        <time>2022-04-16T12:56:08.000Z</time>
      </trkpt>
      <trkpt lat="35.89217" lon="-5.32058">
        <ele>13.103084</ele>
        <time>2022-04-16T12:56:09.000Z</time>
      </trkpt>
      <trkpt lat="35.89224" lon="-5.32068">
        <ele>13.102352</ele>
        <time>2022-04-16T12:56:11.000Z</time>
      </trkpt>
      <trkpt lat="35.89231" lon="-5.32078">
        <ele>13.10162</ele>
        <time>2022-04-16T12:56:13.000Z</time>
      </trkpt>
      <trkpt lat="35.89235" lon="-5.32083">
        <ele>13.101267</ele>
        <time>2022-04-16T12:56:14.000Z</time>
      </trkpt>
      <trkpt lat="35.89242" lon="-5.32093">
        <ele>13.100526</ele>
        <time>2022-04-16T12:56:16.000Z</time>
      </trkpt>
      <trkpt lat="35.89246" lon="-5.32098">
        <ele>13.100156</ele>
        <time>2022-04-16T12:56:17.000Z</time>
      </trkpt>
      <trkpt lat="35.89265" lon="-5.32125">
        <ele>13.098231</ele>
        <time>2022-04-16T12:56:22.000Z</time>
      </trkpt>
      <trkpt lat="35.8927" lon="-5.32128">
        <ele>13.097893</ele>
        <time>2022-04-16T12:56:23.000Z</time>
      </trkpt>
      <trkpt lat="35.89278" lon="-5.32132">
        <ele>13.0973</ele>
        <time>2022-04-16T12:56:25.000Z</time>
      </trkpt>
      <trkpt lat="35.89284" lon="-5.32141">
        <ele>13.096652</ele>
        <time>2022-04-16T12:56:27.000Z</time>
      </trkpt>
      <trkpt lat="35.89294" lon="-5.32164">
        <ele>13.095245</ele>
        <time>2022-04-16T12:56:31.000Z</time>
      </trkpt>
      <trkpt lat="35.89299" lon="-5.32173">
        <ele>13.094648</ele>
        <time>2022-04-16T12:56:33.000Z</time>
      </trkpt>
      <trkpt lat="35.8932" lon="-5.32203">
        <ele>13.088908</ele>
        <time>2022-04-16T12:56:39.000Z</time>
      </trkpt>
      <trkpt lat="35.89345" lon="-5.32238">
        <ele>13.071958</ele>
        <time>2022-04-16T12:56:46.000Z</time>
      </trkpt>
      <trkpt lat="35.89367" lon="-5.32268">
        <ele>13.05779</ele>
        <time>2022-04-16T12:56:52.000Z</time>
      </trkpt>
      <trkpt lat="35.89371" lon="-5.32272">
        <ele>13.055388</ele>
        <time>2022-04-16T12:56:53.000Z</time>
      </trkpt>
      <trkpt lat="35.89381" lon="-5.3228">
        <ele>13.050259</ele>
        <time>2022-04-16T12:56:55.000Z</time>
      </trkpt>
      <trkpt lat="35.89388" lon="-5.32289">
        <ele>13.045858</ele>
        <time>2022-04-16T12:56:57.000Z</time>
      </trkpt>
      <trkpt lat="35.89392" lon="-5.32303">
        <ele>13.040542</ele>
        <time>2022-04-16T12:56:59.000Z</time>
      </trkpt>
      <trkpt lat="35.89398" lon="-5.32313">
        <ele>13.036158</ele>
        <time>2022-04-16T12:57:01.000Z</time>
      </trkpt>
      <trkpt lat="35.89422" lon="-5.32343">
        <ele>13.021122</ele>
        <time>2022-04-16T12:57:07.000Z</time>
      </trkpt>
      <trkpt lat="35.89426" lon="-5.32347">
        <ele>13.01879</ele>
        <time>2022-04-16T12:57:08.000Z</time>
      </trkpt>
      <trkpt lat="35.89436" lon="-5.32353">
        <ele>13.012108</ele>
        <time>2022-04-16T12:57:11.000Z</time>
      </trkpt>
      <trkpt lat="35.89446" lon="-5.32358">
        <ele>12.983184</ele>
        <time>2022-04-16T12:57:15.000Z</time>
      </trkpt>
      <trkpt lat="35.89464" lon="-5.32371">
        <ele>12.92263</ele>
        <time>2022-04-16T12:57:21.000Z</time>
      </trkpt>
      <trkpt lat="35.89486" lon="-5.32391">
        <ele>12.845551</ele>
        <time>2022-04-16T12:57:28.000Z</time>
      </trkpt>
      <trkpt lat="35.89512" lon="-5.32428">
        <ele>12.733402</ele>
        <time>2022-04-16T12:57:37.000Z</time>
      </trkpt>
      <trkpt lat="35.89536" lon="-5.32465">
        <ele>12.624206</ele>
        <time>2022-04-16T12:57:46.000Z</time>
      </trkpt>
      <trkpt lat="35.89543" lon="-5.32474">
        <ele>12.597005</ele>
        <time>2022-04-16T12:57:50.000Z</time>
      </trkpt>
      <trkpt lat="35.89553" lon="-5.32492">
        <ele>12.545903</ele>
        <time>2022-04-16T12:57:57.000Z</time>
      </trkpt>
      <trkpt lat="35.89555" lon="-5.32497">
        <ele>12.53226</ele>
        <time>2022-04-16T12:57:59.000Z</time>
      </trkpt>
      <trkpt lat="35.8956" lon="-5.32504">
        <ele>12.512172</ele>
        <time>2022-04-16T12:58:05.000Z</time>
      </trkpt>
      <trkpt lat="35.8956" lon="-5.32504">
        <ele>12.512172</ele>
        <time>2022-04-16T12:58:13.000Z</time>
      </trkpt>
      <trkpt lat="35.8956" lon="-5.32504">
        <ele>12.512172</ele>
        <time>2022-04-16T12:58:29.000Z</time>
      </trkpt>
      <trkpt lat="35.8956" lon="-5.32504">
        <ele>12.512172</ele>
        <time>2022-04-16T12:58:33.000Z</time>
      </trkpt>
      <trkpt lat="35.8956" lon="-5.32504">
        <ele>12.512172</ele>
        <time>2022-04-16T12:58:42.000Z</time>
      </trkpt>
      <trkpt lat="35.8956" lon="-5.32504">
        <ele>12.512172</ele>
        <time>2022-04-16T12:59:16.000Z</time>
      </trkpt>
      <trkpt lat="35.8956" lon="-5.32504">
        <ele>12.512172</ele>
        <time>2022-04-16T12:59:21.000Z</time>
      </trkpt>
      <trkpt lat="35.8956" lon="-5.32504">
        <ele>12.512172</ele>
        <time>2022-04-16T12:59:25.000Z</time>
      </trkpt>
      <trkpt lat="35.8956" lon="-5.32504">
        <ele>12.512172</ele>
        <time>2022-04-16T12:59:32.000Z</time>
      </trkpt>
      <trkpt lat="35.8956" lon="-5.32504">
        <ele>12.512172</ele>
        <time>2022-04-16T12:59:51.000Z</time>
      </trkpt>
      <trkpt lat="35.8956" lon="-5.32504">
        <ele>12.512172</ele>
        <time>2022-04-16T12:59:54.000Z</time>
      </trkpt>
      <trkpt lat="35.8956" lon="-5.32504">
        <ele>12.512172</ele>
        <time>2022-04-16T13:00:02.000Z</time>
      </trkpt>
      <trkpt lat="35.89567" lon="-5.3251">
        <ele>12.495916</ele>
        <time>2022-04-16T13:00:13.000Z</time>
      </trkpt>
      <trkpt lat="35.89579" lon="-5.32525">
        <ele>12.468241</ele>
        <time>2022-04-16T13:00:19.000Z</time>
      </trkpt>
      <trkpt lat="35.89586" lon="-5.32534">
        <ele>12.45263</ele>
        <time>2022-04-16T13:00:23.000Z</time>
      </trkpt>
      <trkpt lat="35.89593" lon="-5.32535">
        <ele>12.442485</ele>
        <time>2022-04-16T13:00:26.000Z</time>
      </trkpt>
      <trkpt lat="35.89604" lon="-5.32527">
        <ele>12.422053</ele>
        <time>2022-04-16T13:00:31.000Z</time>
      </trkpt>
      <trkpt lat="35.8961" lon="-5.32517">
        <ele>12.40689</ele>
        <time>2022-04-16T13:00:35.000Z</time>
      </trkpt>
      <trkpt lat="35.89612" lon="-5.32508">
        <ele>12.394763</ele>
        <time>2022-04-16T13:00:38.000Z</time>
      </trkpt>
      <trkpt lat="35.89611" lon="-5.32501">
        <ele>12.385457</ele>
        <time>2022-04-16T13:00:41.000Z</time>
      </trkpt>
      <trkpt lat="35.89608" lon="-5.32497">
        <ele>12.379351</ele>
        <time>2022-04-16T13:00:43.000Z</time>
      </trkpt>
      <trkpt lat="35.89606" lon="-5.32495">
        <ele>12.375189</ele>
        <time>2022-04-16T13:00:45.000Z</time>
      </trkpt>
      <trkpt lat="35.89605" lon="-5.32494">
        <ele>12.372727</ele>
        <time>2022-04-16T13:00:46.000Z</time>
      </trkpt>
      <trkpt lat="35.89605" lon="-5.32491">
        <ele>12.369418</ele>
        <time>2022-04-16T13:00:48.000Z</time>
      </trkpt>
      <trkpt lat="35.89605" lon="-5.3249">
        <ele>12.367637</ele>
        <time>2022-04-16T13:00:49.000Z</time>
      </trkpt>
      <trkpt lat="35.89603" lon="-5.32485">
        <ele>12.361022</ele>
        <time>2022-04-16T13:00:54.000Z</time>
      </trkpt>
      <trkpt lat="35.89602" lon="-5.32483">
        <ele>12.357181</ele>
        <time>2022-04-16T13:00:56.000Z</time>
      </trkpt>
      <trkpt lat="35.896" lon="-5.32479">
        <ele>12.352088</ele>
        <time>2022-04-16T13:00:58.000Z</time>
      </trkpt>
      <trkpt lat="35.89597" lon="-5.32475">
        <ele>12.344512</ele>
        <time>2022-04-16T13:01:00.000Z</time>
      </trkpt>
      <trkpt lat="35.89583" lon="-5.3246">
        <ele>12.31575</ele>
        <time>2022-04-16T13:01:07.000Z</time>
      </trkpt>
      <trkpt lat="35.8957" lon="-5.32444">
        <ele>12.286701</ele>
        <time>2022-04-16T13:01:14.000Z</time>
      </trkpt>
      <trkpt lat="35.89568" lon="-5.32442">
        <ele>12.282739</ele>
        <time>2022-04-16T13:01:15.000Z</time>
      </trkpt>
      <trkpt lat="35.89548" lon="-5.32415">
        <ele>12.23661</ele>
        <time>2022-04-16T13:01:24.000Z</time>
      </trkpt>
      <trkpt lat="35.89546" lon="-5.32411">
        <ele>12.230896</ele>
        <time>2022-04-16T13:01:25.000Z</time>
      </trkpt>
      <trkpt lat="35.89541" lon="-5.32406">
        <ele>12.221515</ele>
        <time>2022-04-16T13:01:27.000Z</time>
      </trkpt>
      <trkpt lat="35.89534" lon="-5.32395">
        <ele>12.20646</ele>
        <time>2022-04-16T13:01:30.000Z</time>
      </trkpt>
      <trkpt lat="35.8952" lon="-5.32378">
        <ele>12.181304</ele>
        <time>2022-04-16T13:01:35.000Z</time>
      </trkpt>
      <trkpt lat="35.89497" lon="-5.32347">
        <ele>12.137478</ele>
        <time>2022-04-16T13:01:44.000Z</time>
      </trkpt>
      <trkpt lat="35.89484" lon="-5.3232">
        <ele>12.104024</ele>
        <time>2022-04-16T13:01:51.000Z</time>
      </trkpt>
      <trkpt lat="35.89472" lon="-5.32301">
        <ele>12.07917</ele>
        <time>2022-04-16T13:01:56.000Z</time>
      </trkpt>
      <trkpt lat="35.89457" lon="-5.32282">
        <ele>12.051744</ele>
        <time>2022-04-16T13:02:01.000Z</time>
      </trkpt>
      <trkpt lat="35.89446" lon="-5.32266">
        <ele>12.030369</ele>
        <time>2022-04-16T13:02:05.000Z</time>
      </trkpt>
      <trkpt lat="35.89435" lon="-5.32249">
        <ele>12.007546</ele>
        <time>2022-04-16T13:02:10.000Z</time>
      </trkpt>
      <trkpt lat="35.89425" lon="-5.32236">
        <ele>11.972339</ele>
        <time>2022-04-16T13:02:14.000Z</time>
      </trkpt>
      <trkpt lat="35.89411" lon="-5.32216">
        <ele>11.722086</ele>
        <time>2022-04-16T13:02:21.000Z</time>
      </trkpt>
      <trkpt lat="35.89399" lon="-5.32206">
        <ele>11.55339</ele>
        <time>2022-04-16T13:02:26.000Z</time>
      </trkpt>
      <trkpt lat="35.89393" lon="-5.32211">
        <ele>11.472076</ele>
        <time>2022-04-16T13:02:30.000Z</time>
      </trkpt>
      <trkpt lat="35.89384" lon="-5.32222">
        <ele>11.320191</ele>
        <time>2022-04-16T13:02:38.000Z</time>
      </trkpt>
      <trkpt lat="35.89382" lon="-5.32225">
        <ele>11.283854</ele>
        <time>2022-04-16T13:02:40.000Z</time>
      </trkpt>
      <trkpt lat="35.89381" lon="-5.32226">
        <ele>11.267514</ele>
        <time>2022-04-16T13:02:41.000Z</time>
      </trkpt>
      <trkpt lat="35.8938" lon="-5.32228">
        <ele>11.247758</ele>
        <time>2022-04-16T13:02:44.000Z</time>
      </trkpt>
      <trkpt lat="35.8938" lon="-5.32228">
        <ele>11.247758</ele>
        <time>2022-04-16T13:02:52.000Z</time>
      </trkpt>
      <trkpt lat="35.8938" lon="-5.32228">
        <ele>11.247758</ele>
        <time>2022-04-16T13:02:54.000Z</time>
      </trkpt>
      <trkpt lat="35.8938" lon="-5.32228">
        <ele>11.247758</ele>
        <time>2022-04-16T13:02:56.000Z</time>
      </trkpt>
      <trkpt lat="35.8938" lon="-5.32228">
        <ele>11.246593</ele>
        <time>2022-04-16T13:03:00.000Z</time>
      </trkpt>
      <trkpt lat="35.8938" lon="-5.32228">
        <ele>11.246593</ele>
        <time>2022-04-16T13:03:04.000Z</time>
      </trkpt>
      <trkpt lat="35.8938" lon="-5.32228">
        <ele>11.246593</ele>
        <time>2022-04-16T13:03:07.000Z</time>
      </trkpt>
      <trkpt lat="35.8938" lon="-5.32228">
        <ele>11.246593</ele>
        <time>2022-04-16T13:03:09.000Z</time>
      </trkpt>
      <trkpt lat="35.8938" lon="-5.32228">
        <ele>11.243097</ele>
        <time>2022-04-16T13:03:15.000Z</time>
      </trkpt>
      <trkpt lat="35.8938" lon="-5.32228">
        <ele>11.240879</ele>
        <time>2022-04-16T13:03:22.000Z</time>
      </trkpt>
      <trkpt lat="35.8938" lon="-5.32229">
        <ele>11.232384</ele>
        <time>2022-04-16T13:03:29.000Z</time>
      </trkpt>
      <trkpt lat="35.89379" lon="-5.32231">
        <ele>11.217942</ele>
        <time>2022-04-16T13:03:37.000Z</time>
      </trkpt>
      <trkpt lat="35.89379" lon="-5.32231">
        <ele>11.217942</ele>
        <time>2022-04-16T13:03:39.000Z</time>
      </trkpt>
      <trkpt lat="35.89379" lon="-5.32231">
        <ele>11.217942</ele>
        <time>2022-04-16T13:03:47.000Z</time>
      </trkpt>
      <trkpt lat="35.89379" lon="-5.32231">
        <ele>11.217942</ele>
        <time>2022-04-16T13:03:59.000Z</time>
      </trkpt>
      <trkpt lat="35.8938" lon="-5.32231">
        <ele>11.215724</ele>
        <time>2022-04-16T13:04:25.000Z</time>
      </trkpt>
      <trkpt lat="35.8938" lon="-5.32226">
        <ele>11.173786</ele>
        <time>2022-04-16T13:04:28.000Z</time>
      </trkpt>
      <trkpt lat="35.8938" lon="-5.32226">
        <ele>11.167662</ele>
        <time>2022-04-16T13:04:33.000Z</time>
      </trkpt>
      <trkpt lat="35.89379" lon="-5.32226">
        <ele>11.163995</ele>
        <time>2022-04-16T13:04:38.000Z</time>
      </trkpt>
      <trkpt lat="35.8938" lon="-5.32218">
        <ele>11.08746</ele>
        <time>2022-04-16T13:04:41.000Z</time>
      </trkpt>
      <trkpt lat="35.89388" lon="-5.32203">
        <ele>10.919771</ele>
        <time>2022-04-16T13:04:46.000Z</time>
      </trkpt>
      <trkpt lat="35.89409" lon="-5.32183">
        <ele>10.604496</ele>
        <time>2022-04-16T13:04:55.000Z</time>
      </trkpt>
      <trkpt lat="35.89419" lon="-5.32169">
        <ele>10.437129</ele>
        <time>2022-04-16T13:05:01.000Z</time>
      </trkpt>
      <trkpt lat="35.89419" lon="-5.32167">
        <ele>10.415225</ele>
        <time>2022-04-16T13:05:02.000Z</time>
      </trkpt>
      <trkpt lat="35.89421" lon="-5.32163">
        <ele>10.374961</ele>
        <time>2022-04-16T13:05:05.000Z</time>
      </trkpt>
      <trkpt lat="35.8942" lon="-5.32162">
        <ele>10.363216</ele>
        <time>2022-04-16T13:05:07.000Z</time>
      </trkpt>
      <trkpt lat="35.89421" lon="-5.32156">
        <ele>10.299451</ele>
        <time>2022-04-16T13:05:12.000Z</time>
      </trkpt>
      <trkpt lat="35.89422" lon="-5.32152">
        <ele>10.265769</ele>
        <time>2022-04-16T13:05:14.000Z</time>
      </trkpt>
      <trkpt lat="35.89423" lon="-5.32151">
        <ele>10.251816</ele>
        <time>2022-04-16T13:05:15.000Z</time>
      </trkpt>
      <trkpt lat="35.89424" lon="-5.32151">
        <ele>10.240702</ele>
        <time>2022-04-16T13:05:20.000Z</time>
      </trkpt>
      <trkpt lat="35.89423" lon="-5.3215">
        <ele>10.229202</ele>
        <time>2022-04-16T13:05:26.000Z</time>
      </trkpt>
      <trkpt lat="35.89422" lon="-5.3215">
        <ele>10.22523</ele>
        <time>2022-04-16T13:05:32.000Z</time>
      </trkpt>
      <trkpt lat="35.89421" lon="-5.3215">
        <ele>10.212413</ele>
        <time>2022-04-16T13:05:56.000Z</time>
      </trkpt>
      <trkpt lat="35.89421" lon="-5.32149">
        <ele>10.20578</ele>
        <time>2022-04-16T13:06:05.000Z</time>
      </trkpt>
      <trkpt lat="35.89425" lon="-5.32145">
        <ele>10.139802</ele>
        <time>2022-04-16T13:06:09.000Z</time>
      </trkpt>
      <trkpt lat="35.89427" lon="-5.32142">
        <ele>10.106775</ele>
        <time>2022-04-16T13:06:10.000Z</time>
      </trkpt>
      <trkpt lat="35.89429" lon="-5.32138">
        <ele>10.060989</ele>
        <time>2022-04-16T13:06:12.000Z</time>
      </trkpt>
      <trkpt lat="35.89429" lon="-5.32136">
        <ele>10.043643</ele>
        <time>2022-04-16T13:06:13.000Z</time>
      </trkpt>
      <trkpt lat="35.89428" lon="-5.32135">
        <ele>10.027839</ele>
        <time>2022-04-16T13:06:14.000Z</time>
      </trkpt>
      <trkpt lat="35.89428" lon="-5.32129">
        <ele>9.970907</ele>
        <time>2022-04-16T13:06:17.000Z</time>
      </trkpt>
      <trkpt lat="35.89432" lon="-5.32126">
        <ele>9.918339</ele>
        <time>2022-04-16T13:06:19.000Z</time>
      </trkpt>
      <trkpt lat="35.89438" lon="-5.32127">
        <ele>9.878819</ele>
        <time>2022-04-16T13:06:21.000Z</time>
      </trkpt>
      <trkpt lat="35.89451" lon="-5.32131">
        <ele>9.820599</ele>
        <time>2022-04-16T13:06:26.000Z</time>
      </trkpt>
      <trkpt lat="35.89453" lon="-5.32133">
        <ele>9.810526</ele>
        <time>2022-04-16T13:06:27.000Z</time>
      </trkpt>
      <trkpt lat="35.89454" lon="-5.32135">
        <ele>9.800055</ele>
        <time>2022-04-16T13:06:28.000Z</time>
      </trkpt>
      <trkpt lat="35.89458" lon="-5.32144">
        <ele>9.766279</ele>
        <time>2022-04-16T13:06:31.000Z</time>
      </trkpt>
      <trkpt lat="35.89465" lon="-5.32165">
        <ele>9.686261</ele>
        <time>2022-04-16T13:06:39.000Z</time>
      </trkpt>
      <trkpt lat="35.89476" lon="-5.32179">
        <ele>9.618612</ele>
        <time>2022-04-16T13:06:45.000Z</time>
      </trkpt>
      <trkpt lat="35.89483" lon="-5.3219">
        <ele>9.57229</ele>
        <time>2022-04-16T13:06:49.000Z</time>
      </trkpt>
      <trkpt lat="35.8949" lon="-5.32208">
        <ele>9.504051</ele>
        <time>2022-04-16T13:06:56.000Z</time>
      </trkpt>
      <trkpt lat="35.89496" lon="-5.32213">
        <ele>9.470831</ele>
        <time>2022-04-16T13:06:59.000Z</time>
      </trkpt>
      <trkpt lat="35.89506" lon="-5.32224">
        <ele>9.415962</ele>
        <time>2022-04-16T13:07:04.000Z</time>
      </trkpt>
      <trkpt lat="35.89515" lon="-5.32233">
        <ele>9.366044</ele>
        <time>2022-04-16T13:07:09.000Z</time>
      </trkpt>
      <trkpt lat="35.89521" lon="-5.32239">
        <ele>9.333267</ele>
        <time>2022-04-16T13:07:13.000Z</time>
      </trkpt>
      <trkpt lat="35.89523" lon="-5.32239">
        <ele>9.32507</ele>
        <time>2022-04-16T13:07:14.000Z</time>
      </trkpt>
      <trkpt lat="35.89526" lon="-5.32237">
        <ele>9.312714</ele>
        <time>2022-04-16T13:07:19.000Z</time>
      </trkpt>
      <trkpt lat="35.89528" lon="-5.32236">
        <ele>9.302743</ele>
        <time>2022-04-16T13:07:21.000Z</time>
      </trkpt>
      <trkpt lat="35.89529" lon="-5.32231">
        <ele>9.283783</ele>
        <time>2022-04-16T13:07:25.000Z</time>
      </trkpt>
      <trkpt lat="35.89528" lon="-5.3223">
        <ele>9.277596</ele>
        <time>2022-04-16T13:07:30.000Z</time>
      </trkpt>
      <trkpt lat="35.89527" lon="-5.32225">
        <ele>9.259684</ele>
        <time>2022-04-16T13:07:33.000Z</time>
      </trkpt>
      <trkpt lat="35.89521" lon="-5.32215">
        <ele>9.218564</ele>
        <time>2022-04-16T13:07:38.000Z</time>
      </trkpt>
      <trkpt lat="35.89509" lon="-5.32199">
        <ele>9.141685</ele>
        <time>2022-04-16T13:07:46.000Z</time>
      </trkpt>
      <trkpt lat="35.89493" lon="-5.32176">
        <ele>9.130226</ele>
        <time>2022-04-16T13:07:55.000Z</time>
      </trkpt>
      <trkpt lat="35.89478" lon="-5.32157">
        <ele>9.130226</ele>
        <time>2022-04-16T13:08:03.000Z</time>
      </trkpt>
      <trkpt lat="35.89468" lon="-5.32147">
        <ele>9.130226</ele>
        <time>2022-04-16T13:08:09.000Z</time>
      </trkpt>
      <trkpt lat="35.89461" lon="-5.32147">
        <ele>9.130226</ele>
        <time>2022-04-16T13:08:13.000Z</time>
      </trkpt>
      <trkpt lat="35.89457" lon="-5.32146">
        <ele>9.130226</ele>
        <time>2022-04-16T13:08:15.000Z</time>
      </trkpt>
      <trkpt lat="35.89455" lon="-5.32146">
        <ele>9.130226</ele>
        <time>2022-04-16T13:08:16.000Z</time>
      </trkpt>
      <trkpt lat="35.89451" lon="-5.32144">
        <ele>9.130226</ele>
        <time>2022-04-16T13:08:18.000Z</time>
      </trkpt>
      <trkpt lat="35.89449" lon="-5.32142">
        <ele>9.130226</ele>
        <time>2022-04-16T13:08:20.000Z</time>
      </trkpt>
      <trkpt lat="35.89449" lon="-5.32141">
        <ele>9.130226</ele>
        <time>2022-04-16T13:08:24.000Z</time>
      </trkpt>
      <trkpt lat="35.89449" lon="-5.32141">
        <ele>9.130226</ele>
        <time>2022-04-16T13:08:29.000Z</time>
      </trkpt>
      <trkpt lat="35.89449" lon="-5.32141">
        <ele>9.130226</ele>
        <time>2022-04-16T13:08:32.000Z</time>
      </trkpt>
      <trkpt lat="35.89449" lon="-5.32141">
        <ele>9.130226</ele>
        <time>2022-04-16T13:08:42.000Z</time>
      </trkpt>
      <trkpt lat="35.89449" lon="-5.32141">
        <ele>9.130226</ele>
        <time>2022-04-16T13:08:44.000Z</time>
      </trkpt>
      <trkpt lat="35.89449" lon="-5.32142">
        <ele>9.130226</ele>
        <time>2022-04-16T13:08:46.000Z</time>
      </trkpt>
      <trkpt lat="35.89447" lon="-5.32144">
        <ele>9.130226</ele>
        <time>2022-04-16T13:08:47.000Z</time>
      </trkpt>
      <trkpt lat="35.89437" lon="-5.32154">
        <ele>9.130226</ele>
        <time>2022-04-16T13:08:51.000Z</time>
      </trkpt>
      <trkpt lat="35.89435" lon="-5.32159">
        <ele>9.130226</ele>
        <time>2022-04-16T13:08:55.000Z</time>
      </trkpt>
      <trkpt lat="35.89432" lon="-5.32162">
        <ele>9.130226</ele>
        <time>2022-04-16T13:08:56.000Z</time>
      </trkpt>
      <trkpt lat="35.89423" lon="-5.3217">
        <ele>9.130226</ele>
        <time>2022-04-16T13:08:59.000Z</time>
      </trkpt>
      <trkpt lat="35.89415" lon="-5.32177">
        <ele>9.130226</ele>
        <time>2022-04-16T13:09:02.000Z</time>
      </trkpt>
      <trkpt lat="35.8941" lon="-5.32185">
        <ele>9.130226</ele>
        <time>2022-04-16T13:09:05.000Z</time>
      </trkpt>
      <trkpt lat="35.89408" lon="-5.32188">
        <ele>9.130226</ele>
        <time>2022-04-16T13:09:06.000Z</time>
      </trkpt>
      <trkpt lat="35.89392" lon="-5.32204">
        <ele>9.130226</ele>
        <time>2022-04-16T13:09:12.000Z</time>
      </trkpt>
      <trkpt lat="35.89385" lon="-5.3221">
        <ele>9.130226</ele>
        <time>2022-04-16T13:09:15.000Z</time>
      </trkpt>
      <trkpt lat="35.89377" lon="-5.32224">
        <ele>9.130226</ele>
        <time>2022-04-16T13:09:20.000Z</time>
      </trkpt>
      <trkpt lat="35.89377" lon="-5.32226">
        <ele>9.130226</ele>
        <time>2022-04-16T13:09:21.000Z</time>
      </trkpt>
      <trkpt lat="35.89379" lon="-5.3223">
        <ele>9.130226</ele>
        <time>2022-04-16T13:09:26.000Z</time>
      </trkpt>
      <trkpt lat="35.8938" lon="-5.3223">
        <ele>9.130226</ele>
        <time>2022-04-16T13:09:34.000Z</time>
      </trkpt>
      <trkpt lat="35.8938" lon="-5.3223">
        <ele>9.130226</ele>
        <time>2022-04-16T13:09:37.000Z</time>
      </trkpt>
      <trkpt lat="35.89378" lon="-5.32232">
        <ele>9.130226</ele>
        <time>2022-04-16T13:09:44.000Z</time>
      </trkpt>
      <trkpt lat="35.89377" lon="-5.32233">
        <ele>9.130226</ele>
        <time>2022-04-16T13:09:47.000Z</time>
      </trkpt>
      <trkpt lat="35.89377" lon="-5.32233">
        <ele>9.130226</ele>
        <time>2022-04-16T13:09:49.000Z</time>
      </trkpt>
      <trkpt lat="35.89377" lon="-5.32233">
        <ele>9.130226</ele>
        <time>2022-04-16T13:09:51.000Z</time>
      </trkpt>
      <trkpt lat="35.89377" lon="-5.32233">
        <ele>9.130226</ele>
        <time>2022-04-16T13:09:53.000Z</time>
      </trkpt>
    </trkseg>
  </trk>
</gpx>